     2              OBSERVATION DATA    GPS                 RINEX VERSION / TYPE
teqc 2000Feb29 Duncan Agnew 20000704 01:25:45UTC            PGM / RUN BY / DATE
                                                            COMMENT
L2: 1 -> 1; 5 -> 5; 60 -> 9                                 COMMENT
L2: 1 -> 1; 5 -> 5; 60 -> 9                                 COMMENT
L2: 1 -> 1; 5 -> 5; 60 -> 9                                 COMMENT
L2: 1 -> 1; 5 -> 5; 60 -> 9                                 COMMENT
L2: 1 -> 1; 5 -> 5; 60 -> 9                                 COMMENT
Original Marker Name: 6490                                  COMMENT
Campaign Name: USMC MCAGCC                                  COMMENT
4-Character Station Name: EBON                              COMMENT
6-Character Antenna Code: TRMSST                            COMMENT
Vertical Measurement Point: BGP                             COMMENT
Vertical Offset to Rinex Ref. Point: 0.0597                 COMMENT
Radial Measurement Point: NGP                               COMMENT
Radial Offset to Rinex Ref. Point: 0.2334                   COMMENT
Antenna Height from Field Measurement: 1.3050 m             COMMENT
Additional Antenna Identification Info.:                    COMMENT
Model 14532.00                                              COMMENT
Original XYZ: -2321884.8865 -4723688.2931 3592085.0667      COMMENT
New XYZ position is based on association with SCEC monument COMMENT
E1F2H9Q3+0011. Position of that monument is believed to be  COMMENT
valid to within 1 m horizontally; vertical accuracy         COMMENT
should be no worse than 3-times this value.                 COMMENT
                                                            COMMENT
Revised Rinex header created by UCSD GPS archive for        COMMENT
GSAC on 10-Aug-2000 (2000:223) 22:14:00 GMT                 COMMENT
For assistance contact dagnew@ucsd.edu                      COMMENT
or anderson@python.ucsd.edu                                 COMMENT
                                                            COMMENT
EBONY                                                       MARKER NAME
____0001                                                    MARKER NUMBER
-Unknown- 11TH ARTILLERY US MARINE CORPS                    OBSERVER / AGENCY
16490 TRIMBLE MSGR NP 7.56; SP 3.52                         REC # / TYPE / VERS
S/N UNKNOWN TR 4000SST L1/L2 GEO                            ANT # / TYPE
 -2321888.8387 -4723692.2372  3592085.9971                  APPROX POSITION XYZ
        1.2243        0.0000        0.0000                  ANTENNA: DELTA H/E/N
     1     1     0                                          WAVELENGTH FACT L1/2
     6    L1    L2    P1    P2    S1    S2                  # / TYPES OF OBSERV
     0                                                      INTERVAL
  1997    10     3    21    43    0.000000                  TIME OF FIRST OBS
  1997    10     4     1    47   30.000000                  TIME OF LAST OBS
                                                            END OF HEADER
 97 10  3 21 43  0.0000000  0  5G 1G14G15G25G29
    198280.05715    131963.12315  22955709.320    22955715.891          10.000
        10.000
    -15820.00216    -12327.55316  22534801.086    22534808.063          12.000
        12.750
    252802.61616    196988.89216  20863162.883    20863169.160          17.250
        19.500
     53723.78916     41863.00316  20769518.602    20769523.289          19.000
        20.250
    187516.87116    146116.97516  20820752.320    20820757.383          18.500
        20.750
 97 10  3 21 43 15.0000000  0  5G 1G14G15G25G29
    271131.934 5    188730.806 5  22969572.313    22969579.363          10.250
        10.250
    -18287.647 6    -14250.370 6  22534331.352    22534338.492          12.000
        12.500
    303069.037 6    236157.523 6  20872728.289    20872734.520          17.250
        19.500
    101426.584 6     79034.009 6  20778596.031    20778600.773          19.000
        20.250
    224766.603 6    175142.738 6  20827840.680    20827845.621          18.500
        20.500
 97 10  3 21 43 30.0000000  0  5G 1G14G15G25G29
    344132.142 5    245614.060 5  22983464.047    22983470.852          10.500
        10.500
    -20594.334 6    -16047.766 6  22533892.531    22533899.301          12.000
        12.500
    353627.987 6    275554.100 6  20882349.367    20882355.473          17.250
        19.500
    149397.654 6    116414.069 6  20787724.531    20787729.254          19.250
        20.250
    262206.927 6    204317.014 6  20834965.234    20834970.258          18.500
        20.750
 97 10  3 21 43 45.0000000  0  5G 1G14G15G25G29
    417258.104 5    302595.308 5  22997379.469    22997386.559          10.000
        10.500
    -22765.793 6    -17739.789 6  22533479.219    22533486.156          12.250
        12.750
    404454.631 6    315159.267 6  20892021.430    20892027.586          17.000
        19.250
    197615.264 6    153986.232 6  20796899.984    20796904.832          19.250
        20.250
    299811.663 6    233619.405 6  20842121.172    20842126.262          18.250
        20.750
 97 10  3 21 44  0.0000000  0  5G 1G14G15G25G29
    490484.634 5    359654.927 5  23011313.883    23011321.035          10.250
        10.500
    -24826.690 6    -19345.667 6  22533087.016    22533094.008          12.250
        12.750
    455523.783 6    354953.403 6  20901739.453    20901745.738          17.000
        19.500
    246053.428 6    191730.250 6  20806117.531    20806122.395          19.250
        20.250
    337557.072 6    263031.410 6  20849303.883    20849308.766          18.500
        20.750
 97 10  3 21 44 15.0000000  0  5G 1G14G15G25G29
    563815.419 5    416795.785 5  23025268.664    23025275.336          10.500
        10.500
    -26771.173 6    -20860.825 6  22532717.211    22532723.824          12.250
        12.500
    506841.125 6    394940.927 6  20911504.844    20911511.074          17.000
        19.500
    294712.898 6    229646.717 6  20815377.211    20815382.055          19.250
        20.250
    375450.503 6    292558.758 6  20856514.711    20856519.824          18.250
        21.000
 97 10  3 21 44 30.0000000  0  5G 1G14G15G25G29
    637238.863 5    474008.841 5  23039240.398    23039247.559          10.500
        10.500
    -28610.567 6    -22294.105 6  22532367.328    22532373.688          12.500
        12.500
    558395.414 6    435113.097 6  20921315.258    20921321.551          17.000
        19.500
    343582.110 6    267726.624 6  20824676.734    20824681.598          19.250
        20.250
    413478.175 6    322190.709 6  20863751.164    20863756.297          18.500
        21.000
 97 10  3 21 44 45.0000000  0  5G 1G14G15G25G29
    710750.818 5    531290.865 5  23053229.391    23053236.027          10.500
        10.250
    -30347.378 6    -23647.454 6  22532036.563    22532042.930          12.500
        12.500
    610181.266 6    475465.697 6  20931169.648    20931176.090          16.750
        19.500
    392654.336 6    305964.718 6  20834014.891    20834019.715          19.250
        20.250
    451629.800 6    351919.248 6  20871011.281    20871016.328          18.500
        21.000
 97 10  3 21 45  0.0000000  0  5G 1G14G15G25G29
    784345.527 5    588637.370 5  23067234.070    23067240.988          10.500
        10.500
    -31982.578 6    -24921.608 6  22531725.203    22531731.883          12.250
        12.500
    662193.458 6    515994.670 6  20941067.320    20941073.734          16.750
        19.500
    441921.783 6    344354.938 6  20843390.180    20843394.965          19.250
        20.250
    489896.657 6    381737.579 6  20878293.055    20878298.152          18.500
        21.000
 97 10  3 21 45 15.0000000  0  5G 1G14G15G25G29
    858014.847 5    646042.019 5  23081252.906    23081260.117          10.250
        10.750
    -33523.159 6    -26122.038 6  22531432.406    22531438.504          12.500
        12.500
    714424.664 6    556694.289 6  20951006.500    20951012.934          16.500
        19.250
    491376.565 6    382891.127 6  20852801.070    20852805.902          19.000
        20.250
    528273.903 6    411641.926 6  20885596.109    20885601.238          18.500
        21.000
 97 10  3 21 45 30.0000000  0  5G 1G14G15G25G29
    931752.567 5    703499.958 5  23095284.289    23095291.484          10.000
        10.500
    -34973.521 6    -27252.171 6  22531156.133    22531162.563          12.500
        12.500
    766870.662 6    597561.296 6  20960986.656    20960993.031          16.750
        19.250
    541013.880 6    421569.548 6  20862246.883    20862251.680          19.250
        20.250
    566756.934 6    441628.702 6  20892919.297    20892924.285          18.500
        21.000
 97 10  3 21 45 45.0000000  0  5G 1G14G15G25G29
   1005548.832 5    761003.521 5  23109327.742    23109334.777          10.500
        10.750
    -36338.295 6    -28315.619 6  22530896.477    22530902.863          12.500
        12.250
    819525.755 6    638591.227 6  20971006.508    20971012.914          16.500
        19.500
    590827.101 6    460385.049 6  20871725.930    20871730.699          19.500
        20.250
    605340.157 6    471693.548 6  20900261.438    20900266.461          18.750
        21.000
 97 10  3 21 46  0.0000000  0  5G 1G14G15G25G29
   1079404.902 5    818553.687 5  23123382.016    23123389.188           9.750
         9.750
    -37616.453 5    -29311.557 5  22530652.898    22530659.668          10.250
        11.250
    872389.731 6    679783.949 6  20981066.047    20981072.582          15.250
        20.250
    640815.134 6    499336.780 6  20881238.234    20881243.285          17.250
        21.000
    644026.344 6    501838.641 6  20907623.078    20907628.094          17.500
        20.000
 97 10  3 21 46 15.0000000  0  5G 1G14G15G25G29
   1153316.495 5    876147.130 5  23137447.172    23137453.887           9.750
        10.000
    -38810.474 5    -30241.942 5  22530425.859    22530432.402           9.750
        10.750
    925457.993 6    721135.827 6  20991164.734    20991171.285          15.750
        21.000
    690971.599 6    538419.731 6  20890782.844    20890787.930          17.750
        22.000
    682813.820 6    532062.647 6  20915004.164    20915009.176          17.750
        20.000
 97 10  3 21 46 30.0000000  0  5G 1G14G15G25G29
   1227286.956 5    933786.433 5  23151522.992    23151529.977          10.000
         9.750
    -39921.167 5    -31107.408 5  22530214.531    22530220.883          10.500
        11.000
    978728.949 6    762645.646 6  21001301.813    21001308.359          15.500
        21.000
    741300.064 6    577636.704 6  20900359.961    20900364.938          18.000
        21.750
    721699.192 6    562362.942 6  20922404.000    20922409.035          18.000
        20.250
 97 10  3 21 46 45.0000000  0  5G 1G14G15G25G29
   1301313.942 5    991469.760 5  23165610.320    23165616.984          10.500
        10.000
    -40945.772 6    -31905.773 5  22530019.531    22530025.926          12.250
        11.750
   1032201.541 6    804312.588 6  21011477.406    21011483.895          16.500
        19.750
    791801.227 6    616988.260 6  20909970.031    20909974.816          19.000
        20.500
    760680.139 6    592737.701 6  20929821.680    20929826.516          18.250
        20.500
 97 10  3 21 47  0.0000000  0  5G 1G14G15G25G29
   1375393.944 5   1049194.417 5  23179706.977    23179713.695           9.750
        11.250
    -41886.522 6    -32638.810 5  22529840.539    22529847.148          13.250
        11.500
   1085872.859 6    846134.375 6  21021690.836    21021697.211          15.000
        17.000
    842469.568 6    656470.075 6  20919611.914    20919616.734          17.750
        22.000
    799755.439 6    623185.996 6  20937257.625    20937262.121          19.500
        17.750
 97 10  3 21 47 15.0000000  0  5G 1G14G15G25G29
   1449528.652 5   1106961.688 5  23193814.383    23193821.492           9.250
        11.500
    -42744.538 6    -33307.379 5  22529677.297    22529683.820          13.500
        11.250
   1139742.834 6    888110.970 6  21031941.891    21031948.336          14.750
        17.000
    893305.806 6    696082.732 6  20929285.719    20929290.484          17.250
        21.750
    838926.340 6    653708.772 6  20944711.570    20944716.262          19.500
        18.000
 97 10  3 21 47 30.0000000  0  5G 1G14G15G25G29
   1523715.677 5   1164769.740 5  23207931.109    23207938.441           9.250
        11.000
    -43523.910 6    -33914.665 5  22529529.000    22529535.484          13.250
        11.500
   1193807.106 6    930238.962 6  21042230.164    21042236.422          15.750
        18.000
    944307.912 6    735824.632 6  20938991.102    20938995.883          17.750
        22.500
    878186.996 7    684301.494 6  20952182.516    20952187.320          20.000
        18.000
 97 10  3 21 47 45.0000000  0  5G 1G14G15G25G29
   1597953.522 5   1222617.409 5  23222058.102    23222065.160           9.500
         9.750
    -44223.330 6    -34459.647 6  22529395.820    22529402.570          12.750
        12.750
   1248064.704 6    972517.592 6  21052555.031    21052561.352          16.750
        19.500
    995475.740 6    775695.666 6  20948728.055    20948732.750          19.250
        20.000
    917534.162 6    714961.609 6  20959669.930    20959674.879          18.500
        21.000
 97 10  3 21 48  0.0000000  0  5G 1G14G15G25G29
   1672239.417 5   1280502.477 5  23236194.688    23236201.945          11.000
         9.500
    -44850.848 6    -34948.626 6  22529276.555    22529283.074          12.750
        13.000
   1302509.788 6   1014942.343 6  21062915.523    21062921.813          16.500
        19.500
   1046803.574 6    815691.376 6  20958495.297    20958500.219          18.000
        19.500
    956962.209 6    745684.785 6  20967172.641    20967177.801          16.500
        22.000
 97 10  3 21 48 15.0000000  0  5G 1G14G15G25G29
   1746574.839 5   1338426.164 5  23250339.930    23250347.039           9.750
         9.500
    -45408.885 6    -35383.410 6  22529170.273    22529176.734          13.250
        13.000
   1357142.789 6   1057513.489 6  21073311.898    21073318.168          16.750
        19.500
   1098293.483 6    855813.379 6  20968293.570    20968298.285          19.500
        20.000
    996469.879 6    776469.983 6  20974690.922    20974695.848          18.500
        21.000
 97 10  3 21 48 30.0000000  0  5G 1G14G15G25G29
   1820954.288 5   1396384.157 5  23264494.383    23264500.637           9.750
         9.250
    -45903.696 6    -35768.970 6  22529076.094    22529082.727          13.250
        13.000
   1411960.089 6   1100228.265 6  21083743.281    21083749.520          16.750
        19.500
   1149944.873 6    896061.215 6  20978122.516    20978127.293          19.250
        20.250
   1036051.304 6    807312.650 6  20982222.945    20982227.895          18.500
        21.000
 97 10  3 21 48 45.0000000  0  5G 1G14G15G25G29
   1895387.395 5   1454383.963 5  23278657.789    23278665.695           9.250
         9.500
    -46325.064 6    -36097.290 6  22528995.719    22529002.582          13.250
        13.250
   1466974.271 6   1143096.444 6  21094212.094    21094218.441          16.750
        19.500
   1201767.674 6    936442.613 6  20987984.078    20987988.816          19.250
        20.250
   1075717.302 6    838221.217 6  20989771.086    20989776.008          18.500
        21.000
 97 10  3 21 49  0.0000000  4  1
1.305                                                       COMMENT
 97 10  3 21 49  0.0000000  0  5G 1G14G15G25G29
   1969877.185 5   1512427.937 5  23292833.523    23292840.137           9.750
         9.500
    -46671.884 6    -36367.510 6  22528929.750    22528936.313          13.500
        13.250
   1522190.269 6   1186121.891 6  21104719.375    21104725.605          16.500
        19.500
   1253762.796 6    976958.292 6  20997878.359    20997883.113          19.250
        20.250
   1115474.328 6    869200.721 6  20997336.609    20997341.668          18.500
        21.000
 97 10  3 21 49 15.0000000  4  1
1.305                                                       COMMENT
 97 10  3 21 49 15.0000000  0  5G 1G14G15G25G29
   2044416.352 5   1570510.378 5  23307017.555    23307024.465           9.500
         9.500
    -46959.060 6    -36591.265 6  22528875.141    22528881.754          13.500
        13.250
   1577595.166 6   1229294.523 6  21115262.648    21115268.969          16.500
        19.500
   1305918.811 6   1017599.342 6  21007803.320    21007808.094          19.000
        20.000
   1155311.085 6    900242.349 6  21004917.375    21004922.242          18.500
        21.000
 97 10  3 21 49 30.0010000  0  5G 1G14G15G25G29
   2119010.361 5   1628635.563 5  23321212.872    23321219.614          10.000
         9.500
    -47185.565 6    -36767.753 6  22528832.005    22528838.731          13.500
        13.250
   1633192.414 6   1272617.045 6  21125842.396    21125848.849          16.750
        19.500
   1358239.023 6   1058368.331 6  21017759.614    21017764.403          19.250
        20.000
   1195231.087 6    931348.848 6  21012513.903    21012518.798          18.500
        21.000
 97 10  3 21 49 45.0010000  0  5G 1G14G15G25G29
   2193633.987 5   1686783.819 5  23335412.763    23335419.646           9.500
         9.000
    -47368.714 6    -36910.435 6  22528797.091    22528803.927          13.500
        13.250
   1688958.921 6   1316071.460 6  21136454.427    21136460.771          16.500
        19.500
   1410701.733 6   1099248.372 6  21027742.794    21027747.505          19.250
        20.250
   1235216.748 6    962506.513 6  21020122.872    21020127.880          18.500
        21.000
 97 10  3 21 50  0.0010000  0  5G 1G14G15G25G29
   2268284.314 5   1744952.890 5  23349618.419    23349625.231           9.750
         9.250
    -47518.250 6    -37026.940 6  22528768.442    22528775.216          13.500
        13.250
   1744890.926 6   1359654.826 6  21147097.911    21147104.317          16.750
        19.500
   1463300.751 6   1140234.612 6  21037752.138    21037756.892          18.750
        20.250
   1275268.174 6    993715.421 6  21027744.427    21027749.407          18.500
        21.000
 97 10  3 21 50 15.0010000  0  5G 1G14G15G25G29
   2342971.370 5   1803150.573 5  23363831.130    23363838.071           9.750
         9.500
    -47624.019 6    -37109.347 6  22528748.606    22528755.001          13.750
        13.500
   1800997.080 6   1403373.889 6  21157774.606    21157780.970          16.750
        19.500
   1516043.041 6   1181332.503 6  21047788.646    21047793.396          19.250
        20.250
   1315394.790 6   1024982.905 6  21035380.099    21035385.095          18.500
        21.000
 97 10  3 21 50 30.0010000  0  5G 1G14G15G25G29
   2417697.164 5   1861378.451 5  23378050.739    23378057.688           9.750
         9.500
    -47679.666 6    -37152.690 6  22528738.122    22528744.595          14.000
        13.250
   1857280.286 6   1447230.927 6  21168484.997    21168491.302          16.750
        19.500
   1568928.394 6   1222541.865 6  21057852.372    21057857.146          19.250
        20.250
   1355601.595 6   1056312.886 6  21043031.403    21043036.317          18.500
        21.000
 97 10  3 21 50 45.0010000  0  5G 1G14G15G25G29
   2492467.884 5   1919641.315 5  23392279.356    23392286.110           9.500
         9.250
    -47676.636 6    -37150.317 6  22528738.591    22528745.298          14.000
        13.500
   1913744.845 6   1491229.268 6  21179229.841    21179236.173          16.750
        19.500
   1621958.096 6   1263863.707 6  21067943.544    21067948.372          19.000
        20.250
   1395895.128 6   1087710.441 6  21050698.997    21050703.880          18.500
        20.750
 97 10  3 21 51  0.0010000  0  5G 1G14G15G25G29
   2567282.178 5   1977938.143 5  23406515.169    23406523.431           9.000
         9.750
    -47614.692 6    -37102.020 6  22528750.286    22528756.677          14.000
        13.500
   1970387.646 6   1535366.515 6  21190008.591    21190014.954          16.500
        19.500
   1675128.161 6   1305294.924 6  21078061.513    21078066.286          19.250
        20.000
   1436273.761 6   1119174.315 6  21058382.810    21058387.728          18.500
        21.000
 97 10  3 21 51 15.0010000  0  5G 1G14G15G25G29
   2642141.150 5   2036269.776 5  23420761.606    23420768.036           9.750
         9.500
    -47492.868 6    -37007.083 6  22528773.567    22528779.841          14.000
        13.500
   2027206.832 6   1579641.190 6  21200820.927    21200827.466          16.500
        19.750
   1728440.114 6   1346836.710 6  21088206.474    21088211.146          19.250
        20.000
   1476737.874 6   1150704.795 6  21066082.771    21066087.778          18.500
        21.000
 97 10  3 21 51 30.0010000  0  5G 1G14G15G25G29
   2717040.204 5   2094632.659 5  23435013.763    23435021.095           9.500
         9.500
    -47310.675 6    -36865.089 6  22528808.208    22528814.606          14.000
        13.500
   2084200.519 6   1624051.847 6  21211666.450    21211672.849          16.500
        19.750
   1781894.649 6   1388489.588 6  21098378.427    21098383.228          19.250
        20.000
   1517284.538 6   1182299.604 6  21073798.544    21073803.606          18.500
        21.000
 97 10  3 21 51 45.0010000  0  5G 1G14G15G25G29
   2791977.332 5   2153025.193 5  23449274.349    23449281.704           9.750
         9.750
    -47067.102 6    -36675.282 6  22528854.419    22528860.935          14.250
        13.750
   2141370.049 6   1668599.514 6  21222545.427    21222551.954          16.500
        19.500
   1835494.154 6   1430255.435 6  21108578.278    21108583.052          19.250
        20.000
   1557915.076 6   1213959.757 6  21081530.294    21081535.282          18.500
        21.000
 97 10  3 21 52  0.0010000  0  5G 1G14G15G25G29
   2866953.389 5   2211448.080 5  23463541.692    23463548.677           9.750
         9.500
    -46758.504 6    -36434.797 6  22528913.271    22528919.544          14.250
        13.750
   2198717.337 6   1713285.698 6  21233458.153    21233464.696          16.500
        19.750
   1889240.652 6   1472135.821 6  21118805.739    21118810.548          19.250
        20.000
   1598628.102 6   1245684.195 6  21089277.755    21089282.743          18.500
        21.000
 97 10  3 21 52 15.0010000  0  5G 1G14G15G25G29
   2941966.955 5   2269900.191 5  23477815.974    23477823.247           9.500
         9.250
    -46383.153 6    -36142.301 6  22528984.638    22528990.938          14.250
        13.500
   2256241.138 6   1758109.433 6  21244404.599    21244411.224          16.250
        19.750
   1943132.161 6   1514129.204 6  21129061.130    21129065.907          19.250
        20.000
   1639418.223 6   1277468.710 6  21097039.700    21097044.743          18.500
        21.000
 97 10  3 21 52 30.0010000  0  5G 1G14G15G25G29
   3017009.413 5   2328374.809 5  23492096.513    23492103.751           9.500
         9.250
    -45948.192 6    -35803.348 6  22529067.552    22529073.946          14.250
        13.750
   2313932.887 6   1803064.029 6  21255382.817    21255389.614          16.250
        19.500
   1997162.343 6   1556230.643 6  21139342.653    21139347.349          19.250
        20.000
   1680274.507 6   1309304.783 6  21104814.622    21104819.563          18.500
        21.000
 97 10  3 21 52 45.0010000  0  5G 1G14G15G25G29
   3092084.546 5   2386874.889 5  23506382.169    23506389.134           9.000
         9.000
    -45449.605 6    -35414.822 6  22529162.380    22529168.813          14.250
        14.000
   2371798.354 6   1848153.995 6  21266394.380    21266401.024          16.250
        19.500
   2051340.554 6   1598447.433 6  21149652.411    21149657.106          19.250
        20.000
   1721204.008 6   1341197.901 6  21112603.130    21112608.130          18.500
        21.000
 97 10  3 21 53  0.0010000  0  5G 1G14G15G25G29
   3167185.662 5   2445395.225 5  23520674.278    23520680.724           9.500
         8.750
    -44893.349 6    -34981.367 6  22529268.161    22529274.513          14.250
        14.000
   2429831.807 6   1893374.849 6  21277437.669    21277444.356          16.250
        19.500
   2105663.883 6   1640777.295 6  21159989.786    21159994.513          19.250
        20.000
   1762201.088 6   1373143.680 6  21120404.700    21120409.618          18.750
        21.000
 97 10  3 21 53 15.0010000  0  5G 1G14G15G25G29
   3242311.982 5   2503935.191 5  23534969.841    23534977.364           9.000
         9.000
    -44279.734 6    -34503.213 6  22529384.802    22529391.204          14.250
        13.750
   2488033.867 6   1938727.093 6  21288513.216    21288519.864          16.250
        19.500
   2160134.533 6   1683221.955 6  21170355.208    21170359.997          19.500
        20.000
   1803266.256 6   1405142.510 6  21128218.974    21128223.903          18.750
        21.000
 97 10  3 21 53 30.0010000  0  5G 1G14G15G25G29
   3317458.628 5   2562490.987 5  23549269.903    23549276.716           9.000
         8.750
    -43611.065 6    -33982.159 6  22529511.903    22529518.591          14.000
        14.000
   2546401.862 6   1984208.632 6  21299620.278    21299626.923          16.250
        19.500
   2214748.645 6   1725778.401 6  21180747.950    21180752.688          19.250
        20.250
   1844395.576 6   1437191.338 6  21136045.825    21136050.829          18.500
        21.000
 97 10  3 21 53 45.0010000  0  5G 1G14G15G25G29
   3392629.757 5   2621065.881 5  23563574.739    23563581.364           9.250
         8.750
    -42879.630 6    -33412.197 6  22529651.231    22529657.876          14.000
        14.000
   2604941.469 6   2029823.898 6  21310760.028    21310766.579          16.250
        19.500
   2269509.261 6   1768449.010 6  21191168.528    21191173.321          19.250
        20.000
   1885593.657 6   1469293.734 6  21143885.466    21143890.478          18.500
        21.000
 97 10  3 21 54  0.0010000  0  5G 1G14G15G25G29
   3467821.111 5   2679656.527 5  23577882.458    23577890.204           8.750
         8.750
    -42089.465 6    -32796.465 6  22529801.552    22529808.380          14.000
        14.250
   2663646.836 6   2075568.333 6  21321931.349    21321937.817          16.250
        19.250
   2324409.043 6   1811228.065 6  21201615.567    21201620.376          19.500
        20.250
   1926852.963 6   1501443.845 6  21151736.763    21151741.849          18.500
        21.000
 97 10  3 21 54 15.0010000  0  5G 1G14G15G25G29
   3543032.247 5   2738262.579 5  23592195.427    23592201.767           9.000
         8.250
    -41242.752 6    -32136.674 6  22529962.458    22529969.239          14.000
        14.250
   2722516.517 6   2121440.800 6  21333133.864    21333140.435          16.500
        19.250
   2379444.999 6   1854113.221 6  21212088.661    21212093.587          19.250
        20.250
   1968172.638 6   1533640.991 6  21159599.755    21159604.708          18.750
        21.000
 97 10  3 21 54 30.0010000  0  5G 1G14G15G25G29
   3618277.141 5   2796894.956 5  23606513.208    23606520.407           8.500
         8.250
    -40327.620 6    -31423.579 6  22530136.505    22530143.349          14.000
        14.250
   2781562.791 6   2167450.871 6  21344370.106    21344376.599          16.500
        19.250
   2434629.029 6   1897113.763 6  21222589.771    21222594.524          19.500
        20.250
   2009569.563 6   1565898.344 6  21167477.333    21167482.267          18.750
        21.000
 97 10  3 21 54 45.0010000  0  5G 1G14G15G25G29
   3693560.685 5   2855557.424 5  23620840.044    23620846.989           9.000
         8.750
    -39337.767 6    -30652.243 6  22530324.950    22530331.755          14.000
        14.250
   2840791.681 6   2213603.243 6  21355641.028    21355647.509          16.500
        19.250
   2489966.799 6   1940234.100 6  21233120.161    21233125.009          19.500
        20.250
   2051052.445 6   1598222.664 6  21175371.294    21175376.310          18.750
        21.000
 97 10  3 21 55  0.0010000  0  5G 1G14G15G25G29
   3768873.562 5   2914242.764 5  23635171.317    23635178.243           9.000
         8.500
    -38281.640 6    -29829.271 6  22530525.942    22530532.731          14.000
        14.250
   2900193.412 6   2259890.295 6  21366944.903    21366951.278          16.500
        19.250
   2545446.329 6   1983464.903 6  21243677.427    21243682.294          19.250
        20.250
   2092611.361 6   1630606.235 6  21183279.771    21183284.638          18.750
        21.000
 97 10  3 21 55 15.0010000  0  5G 1G14G15G25G29
   3844213.161 5   2972948.928 5  23649508.146    23649515.177           9.000
         8.750
    -37163.291 6    -28957.821 6  22530738.896    22530745.575          14.250
        14.250
   2959762.166 6   2306307.489 6  21378280.450    21378286.856          16.500
        19.250
   2601058.698 6   2026799.214 6  21254260.317    21254265.083          19.500
        20.250
   2134238.385 6   1663042.878 6  21191201.114    21191205.923          18.500
        21.000
 97 10  3 21 55 30.0010000  0  6G 1G14G15G22G25G29
   3919575.517 5   3031672.824 5  23663849.255    23663856.493           9.500
         9.250
    -35985.129 6    -28039.764 6  22530963.052    22530969.724          14.250
        14.250
   3019494.333 6   2352852.023 6  21389647.161    21389653.563          16.500
        19.250
     -5364.299 3     -1899.38315  24463533.989    24463544.271           5.000
         7.000
   2656799.103 6   2070233.292 6  21264867.396    21264872.122          19.500
        20.000
   2175927.488 6   1695527.897 6  21199134.255    21199139.173          18.500
        21.000
 97 10  3 21 55 45.0010000  0  6G 1G14G15G22G25G29
   3994945.574 5   3090402.710 5  23678191.497    23678198.923           9.000
         9.000
    -34763.876 6    -27088.115 6  22531195.450    22531202.013          14.250
        14.250
   3079373.774 6   2399511.318 6  21401041.872    21401048.216          16.500
        19.250
    -12675.439 3     -7596.305 5  24462143.122    24462152.626           5.000
         6.750
   2712649.884 6   2113753.379 6  21275495.403    21275500.142          19.500
        20.000
   2217660.603 6   1728047.211 6  21207075.700    21207080.587          18.500
        20.750
 97 10  3 21 56  0.0010000  0  6G 1G14G15G22G25G29
   4070325.583 5   3149140.351 5  23692535.864    23692542.798           9.250
         9.000
    -33498.651 6    -26102.214 6  22531436.208    22531442.548          14.250
        14.250
   3139403.091 6   2446287.400 6  21412465.028    21412471.345          16.750
        19.250
    -19981.090 3    -13288.969 5  24460752.942    24460762.458           5.000
         6.750
   2768614.861 6   2157362.445 6  21286145.278    21286150.063          19.500
        20.000
   2259441.879 6   1760604.047 6  21215026.364    21215031.298          18.500
        20.750
 97 10  3 21 56 15.0010000  0  6G 1G14G15G22G25G29
   4145726.543 5   3207894.336 5  23706884.638    23706891.337           9.500
         9.000
    -32181.325 6    -25075.711 6  22531686.935    22531693.083          14.250
        14.250
   3199593.619 6   2493189.093 6  21423919.021    21423925.239          16.750
        19.250
    -27270.922 3    -18969.275 5  24459365.771    24459374.864           5.250
         6.750
   2824707.137 6   2201070.710 6  21296819.130    21296823.778          19.500
        20.000
   2301284.742 6   1793208.875 6  21222988.771    21222993.786          18.500
        20.750
 97 10  3 21 56 30.0010000  0  6G 1G14G15G22G25G29
   4221151.284 5   3266666.829 5  23721236.841    23721244.372           9.250
         9.000
    -30810.367 6    -24007.414 6  22531947.872    22531954.173          14.250
        14.250
   3259946.544 6   2540217.340 6  21435403.708    21435410.060          16.750
        19.250
    -34545.723 3    -24637.881 5  24457981.114    24457990.763           5.250
         6.750
   2880927.325 6   2244878.648 6  21307517.622    21307522.345          19.500
        20.000
   2343191.948 6   1825863.838 6  21230963.442    21230968.403          18.500
        21.000
 97 10  3 21 56 45.0010000  0  6G 1G14G15G22G25G29
   4296597.453 5   3325456.032 5  23735594.974    23735600.950           9.750
         8.750
    -29385.411 6    -22897.038 6  22532218.942    22532225.462          14.250
        14.250
   3320460.075 6   2587370.726 6  21446919.005    21446925.438          16.500
        19.500
    -41809.878 3    -30298.196 5  24456598.794    24456608.239           5.500
         6.750
   2937275.169 6   2288786.055 6  21318240.271    21318244.884          19.500
        20.000
   2385159.982 6   1858566.206 6  21238949.731    21238954.622          18.500
        20.750
 97 10  3 21 57  0.0010000  0  6G 1G14G15G22G25G29
   4372062.949 5   3384260.306 5  23749954.997    23749962.075           9.500
         9.000
    -27908.446 6    -21746.143 6  22532499.896    22532506.372          14.000
        14.250
   3381133.228 6   2634648.495 6  21458464.708    21458471.142          16.500
        19.250
    -49067.329 3    -35953.300 5  24455217.521    24455227.224           5.500
         6.750
   2993750.105 6   2332792.495 6  21328987.099    21328991.817          19.500
        20.000
   2427182.709 6   1891311.192 6  21246946.380    21246951.310          18.250
        20.750
 97 10  3 21 57 15.0010000  0  6G 1G14G15G22G25G29
   4447550.435 5   3443081.694 5  23764319.942    23764327.063           9.500
         9.500
    -26378.463 6    -20553.929 6  22532791.130    22532797.403          14.250
        14.250
   3441966.390 6   2682050.942 6  21470040.856    21470047.349          16.500
        19.250
    -56316.407 3    -41601.845 5  24453838.216    24453847.493           5.500
         6.750
   3050352.897 6   2376898.572 6  21339758.263    21339762.927          19.500
        20.000
   2469261.042 6   1924099.508 6  21254953.724    21254958.642          18.500
        20.750
 97 10  3 21 57 30.0010000  0  6G 1G14G15G22G25G29
   4523061.423 5   3501921.404 5  23778689.388    23778696.169           9.250
         9.250
    -24794.919 6    -19319.982 6  22533092.497    22533098.688          14.250
        14.250
   3502961.738 6   2729579.773 6  21481647.903    21481654.349          16.500
        19.500
    -63552.252 3    -47240.140 5  24452461.442    24452470.622           5.500
         7.000
   3107088.493 6   2421108.117 6  21350554.677    21350559.341          19.500
        20.000
   2511397.488 6   1956933.098 6  21262971.942    21262976.911          18.250
        21.000
 97 10  3 21 57 45.0010000  0  6G 1G14G15G22G25G29
   4598589.702 5   3560774.577 5  23793060.716    23793068.692           8.250
         9.000
    -23162.685 6    -18048.090 6  22533402.817    22533409.290          14.000
        14.250
   3564114.541 6   2777231.301 6  21493284.802    21493291.321          16.500
        19.250
    -70780.205 3    -52872.226 5  24451085.778    24451095.095           5.500
         6.750
   3163954.320 6   2465419.155 6  21361375.708    21361380.489          19.500
        20.000
   2553589.501 6   1989809.991 6  21271000.739    21271005.798          18.250
        21.000
 97 10  3 21 58  0.0010000  0  6G 1G14G15G22G25G29
   4674139.495 5   3619644.512 5  23807438.028    23807445.372           8.500
         9.000
    -21479.931 6    -16736.838 6  22533723.028    22533729.552          14.250
        14.250
   3625427.537 6   2825007.644 6  21504952.302    21504958.810          16.250
        19.250
    -77996.141 3    -58494.959 5  24449712.239    24449721.845           5.500
         6.750
   3220954.462 6   2509834.848 6  21372222.591    21372227.333          19.500
        20.000
   2595844.098 6   2022735.653 6  21279041.646    21279046.622          18.500
        21.000
 97 10  3 22 45 15.0010000  4  2
END OF STATIC OBSERVATION                                   COMMENT
1.305                                                       COMMENT
 97 10  3 22 45 15.0010000  0  6G14G15G22G16G25G29
   1443013.805 6   1124429.531 6  21313442.958    21313448.821          19.250
        19.250
  17598282.573 6  13712943.024 6  22664938.919    22664946.091          12.000
        15.000
   -793574.365 5   -616078.342 6  22814572.661    22814579.384          11.250
        12.750
   -595812.59415   -462094.61415  23778398.419    23778405.142           9.250
         9.000
  15933421.039 6  12415652.212 6  22292362.513    22292367.618          16.250
        15.250
  11485794.902 6   8949970.195 6  21471780.372    21471785.302          18.000
        20.250
 97 10  3 22 45 30.0010000  0  6G14G15G22G16G25G29
   1458223.444 6   1136281.201 6  21316337.247    21316343.114          19.250
        19.500
  17682522.133 5  13778584.224 6  22680969.278    22680976.360          11.750
        15.000
   -791739.580 5   -614648.603 6  22814921.638    22814928.646          11.250
        12.750
   -600867.701 5   -466033.643 5  23777436.513    23777443.716           9.000
         9.000
  16009159.313 6  12474669.051 6  22306775.099    22306780.173          16.250
        15.250
  11537133.279 6   8989974.130 6  21481549.763    21481554.806          18.000
        20.250
 97 10  3 22 45 45.0010000  0  6G14G15G22G16G25G29
   1473536.130 6   1148213.177 6  21319251.161    21319257.063          19.250
        19.250
  17766845.582 6  13844290.777 6  22697015.521    22697022.653          12.000
        15.000
   -789815.682 5   -613149.426 6  22815287.802    22815294.833          11.250
        13.000
   -605888.776 5   -469946.135 5  23776480.388    23776487.544           8.750
         9.000
  16084962.184 6  12533736.210 6  22321199.661    22321205.142          16.250
        15.250
  11588520.210 6   9030015.884 6  21491328.528    21491333.587          18.000
        20.000
 97 10  3 22 46  0.0010000  0  6G14G15G22G16G25G29
   1488947.218 6   1160221.822 6  21322183.810    21322189.556          19.250
        19.500
  17851248.431 5  13910059.199 6  22713076.872    22713083.790          11.750
        14.750
   -787807.483 5   -611584.563 6  22815669.997    22815676.810          11.500
        12.750
   -610881.124 5   -473836.251 5  23775530.567    23775537.579           8.750
         9.000
  16160826.759 6  12592851.454 6  22335636.521    22335641.646          16.500
        15.500
  11639951.711 6   9070092.381 6  21501115.544    21501120.583          18.000
        20.250
 97 10  3 22 46 15.0010000  0  6G14G15G22G16G25G29
   1504460.558 6   1172310.151 6  21325135.903    21325141.735          19.500
        19.500
  17935734.830 5  13975892.740 6  22729153.974    22729161.142          11.500
        14.750
   -785715.780 5   -609954.623 6  22816067.942    22816074.860          11.500
        12.750
   -615844.644 5   -477703.912 5  23774586.810    23774592.927           9.250
         8.750
  16236760.900 6  12652020.914 6  22350086.442    22350091.431          16.250
        15.250
  11691430.043 6   9110205.369 6  21510911.606    21510916.571          18.000
        20.000
 97 10  3 22 46 30.0010000  0  6G14G15G22G16G25G29
   1520077.905 6   1184479.520 6  21328107.786    21328113.509          19.500
        19.500
  18020305.105 5  14041791.627 6  22745247.099    22745254.302          11.500
        14.750
   -783540.551 5   -608259.612 6  22816481.794    22816488.587          11.500
        12.750
   -620774.694 5   -481545.484 5  23773648.067    23773655.228           9.250
         9.250
  16312767.836 6  12711247.085 6  22364549.903    22364555.013          16.250
        15.000
  11742954.471 6   9150354.274 6  21520716.349    21520721.278          18.000
        20.000
 97 10  3 22 46 45.0010000  0  6G14G15G22G16G25G29
   1535798.348 6   1196729.221 6  21331099.224    21331105.021          19.250
        19.500
  18104958.691 5  14107755.433 6  22761356.161    22761363.427          11.500
        14.750
   -781281.700 5   -606499.438 6  22816911.755    22816918.634          11.750
        13.000
   -625666.700 5   -485357.406 5  23772716.380    23772724.981           8.750
         9.500
  16388849.060 6  12770531.154 6  22379027.919    22379032.958          16.250
        15.000
  11794523.920 6   9190538.262 6  21530529.747    21530534.599          18.000
        20.000
 97 10  3 22 47  0.0010000  0  6G14G15G22G16G25G29
   1551615.398 6   1209054.204 6  21334109.177    21334115.001          19.250
        19.500
  18189692.534 5  14173781.769 6  22777480.349    22777487.720          11.250
        14.750
   -778940.489 5   -604675.080 6  22817357.231    22817364.146          11.750
        13.000
   -630526.634 5   -489144.332 5  23771791.896    23771799.907           8.750
         9.500
  16465000.978 6  12829870.302 6  22393519.005    22393524.271          16.250
        15.000
  11846135.633 6   9230755.180 6  21540351.067    21540355.954          18.000
        20.000
 97 10  3 22 47 15.0020000  0  6G14G15G22G16G25G29
   1567532.492 6   1221457.142 6  21337138.080    21337143.854          19.250
        19.500
  18274515.595 5  14239877.640 6  22793621.604    22793629.084          11.250
        14.750
   -776509.964 5   -602781.130 6  22817819.658    22817826.604          11.750
        13.000
   -635352.004 5   -492904.340 5  23770873.783    23770880.924           9.000
         9.000
  16541231.095 6  12889270.389 6  22408025.158    22408030.221          16.250
        15.000
  11897796.515 6   9271010.412 6  21550181.955    21550186.842          18.000
        20.000
 97 10  3 22 47 30.0020000  0  6G14G15G22G16G25G29
   1583550.011 6   1233938.335 6  21340186.002    21340191.834          19.000
        19.500
  18359416.242 5  14306033.965 6  22809777.643    22809785.178          11.250
        14.500
   -773989.452 5   -600817.060 6  22818299.275    22818306.096          11.750
        13.000
   -640139.801 5   -496635.077 5  23769962.963    23769969.916           9.500
         9.000
  16617527.441 6  12948722.079 6  22422543.854    22422549.014          16.250
        15.000
  11949497.649 6   9311297.014 6  21560020.119    21560025.135          18.000
        20.000
 97 10  3 22 47 45.0020000  0  6G14G15G22G16G25G29
   1599664.411 6   1246495.020 6  21343252.400    21343258.186          19.000
        19.500
  18444395.556 5  14372251.582 6  22825948.619    22825956.170          11.250
        14.750
   -771384.434 5   -598787.140 6  22818794.908    22818801.713          11.750
        13.000
   -644894.241 5   -500339.818 5  23769058.064    23769065.854           9.250
         9.250
  16693894.126 6  13008228.589 6  22437075.955    22437081.018          16.000
        15.000
  12001236.140 6   9351612.716 6  21569865.682    21569870.713          18.000
        20.000
 97 10  3 22 48  0.0020000  0  6G14G15G22G16G25G29
   1615874.929 6   1259126.594 6  21346337.354    21346343.119          19.000
        19.500
  18529453.204 5  14438530.233 6  22842134.682    22842142.072          11.250
        14.500
   -768697.267 5   -596693.221 6  22819306.252    22819313.119          11.750
        13.000
   -649617.064 5   -504019.912 5  23768158.635    23768167.100           9.000
         9.500
  16770334.418 6  13067792.445 6  22451622.033    22451627.166          16.000
        15.000
  12053013.297 6   9391958.555 6  21579718.643    21579723.498          18.000
        20.000
 97 10  3 22 48 15.0020000  0  6G14G15G22G16G25G29
   1632179.301 6   1271831.311 6  21349439.932    21349445.721          19.000
        19.500
  18614587.782 5  14504868.846 6  22858335.346    22858342.775          11.250
        14.500
   -765929.407 5   -594536.402 6  22819833.049    22819839.721          11.750
        13.000
   -654310.101 5   -507676.787 5  23767266.236    23767273.975           9.250
         9.500
  16846846.157 6  13127411.982 6  22466181.658    22466187.037          16.000
        15.000
  12104827.866 6   9432333.545 6  21589578.580    21589583.424          18.000
        20.000
 97 10  3 22 48 30.0020000  0  6G14G15G22G16G25G29
   1648580.337 6   1284611.346 6  21352560.885    21352566.740          19.000
        19.500
  18699800.932 5  14571268.678 6  22874550.947    22874558.342          11.250
        14.500
   -763076.401 6   -592313.251 6  22820375.807    22820382.666          12.000
        13.000
   -658967.152 5   -511305.632 5  23766379.729    23766387.232           9.500
         9.250
  16923427.236 6  13187085.534 6  22480754.658    22480759.717          16.000
        15.000
  12156683.444 6   9472740.489 6  21599446.385    21599451.205          18.000
        20.000
 97 10  3 22 48 45.0020000  0  6G14G15G22G16G25G29
   1665079.482 6   1297467.832 6  21355700.510    21355706.451          19.000
        19.500
  18785092.531 5  14637729.638 6  22890781.432    22890788.775          11.250
        14.500
   -760135.985 6   -590021.981 6  22820935.268    22820942.131          12.000
        13.000
   -663586.132 5   -514904.810 5  23765501.377    23765508.635           9.750
         9.250
  17000074.016 6  13246810.297 6  22495339.924    22495345.025          16.000
        14.750
  12208580.867 6   9513180.040 6  21609322.049    21609326.912          18.000
        20.000
 97 10  3 22 49  0.0020000  0  6G14G15G22G16G25G29
   1681672.227 6   1310397.259 6  21358858.049    21358863.861          18.750
        19.500
  18870457.438 5  14704247.718 6  22907025.736    22907033.213          11.250
        14.750
   -757113.038 6   -587666.397 6  22821510.650    22821517.240          12.250
        13.000
   -668175.091 5   -518480.607 5  23764627.588    23764634.881           9.500
         9.250
  17076780.115 6  13306581.283 6  22509936.588    22509941.936          15.750
        14.750
  12260514.336 6   9553647.678 6  21619204.729    21619209.592          18.250
        20.000
 97 10  3 22 49 15.0020000  0  6G14G15G22G16G25G29
   1698363.104 6   1323403.137 6  21362034.189    21362040.057          18.750
        19.500
  18955896.147 5  14770823.309 6  22923284.400    22923291.771          11.250
        14.750
   -754007.353 6   -585246.356 6  22822101.572    22822108.252          12.250
        13.000
   -672735.114 5   -522033.849 5  23763759.908    23763767.318           9.500
         9.500
  17153549.047 6  13366401.216 6  22524545.221    22524550.646          15.750
        15.000
  12312482.756 6   9594142.548 6  21629094.080    21629098.861          18.000
        20.000
 97 10  3 22 49 30.0020000  0  6G14G15G22G16G25G29
   1715155.717 6   1336488.306 6  21365229.838    21365235.729          19.000
        19.500
  19041409.268 5  14837456.886 6  22939557.002    22939564.428          11.250
        14.500
   -750819.558 6   -582762.320 6  22822708.127    22822714.826          12.250
        13.250
   -677262.195 5   -525561.409 5  23762898.893    23762906.123           9.750
         9.750
  17230383.414 6  13426272.143 6  22539166.463    22539171.482          15.750
        14.750
  12364486.732 6   9634665.132 6  21638990.018    21638994.885          18.000
        20.000
 97 10  3 22 49 45.0020000  0  6G14G15G22G16G25G29
   1732053.476 6   1349655.398 6  21368445.205    21368451.049          19.000
        19.500
  19126999.859 5  14904150.826 6  22955844.424    22955851.803          11.250
        14.500
   -747546.569 6   -580211.906 6  22823330.861    22823337.713          12.250
        13.250
   -681753.515 5   -529061.106 5  23762044.049    23762050.990          10.000
         9.500
  17307288.907 6  13486198.492 6  22553800.861    22553806.092          15.500
        14.750
  12416530.936 6   9675219.054 6  21648893.635    21648898.615          18.000
        20.000
 97 10  3 22 50  0.0020000  0  6G14G15G22G16G25G29
   1749048.778 6   1362898.496 6  21371679.205    21371685.104          18.750
        19.500
  19212662.197 5  14970900.675 6  22972145.400    22972152.686          11.250
        14.500
   -744189.702 6   -577596.124 6  22823969.830    22823976.650          12.500
        13.250
   -686214.368 5   -532537.080 5  23761195.299    23761202.252          10.000
         9.500
  17384258.842 6  13546175.059 6  22568447.768    22568453.104          15.750
        14.750
  12468611.026 6   9715800.945 6  21658804.189    21658809.193          18.000
        20.000
 97 10  3 22 50 15.0020000  0  6G14G15G22G16G25G29
   1766142.384 6   1376218.203 6  21374932.104    21374937.900          18.750
        19.250
  19298397.968 5  15037707.741 6  22988460.494    22988467.779          11.250
        14.250
   -740743.760 6   -574910.940 6  22824625.572    22824632.357          12.500
        13.250
   -690641.654 5   -535986.896 5  23760353.283    23760359.350          10.000
         9.500
  17461291.083 6  13606200.182 6  22583106.807    22583111.865          15.750
        14.750
  12520729.785 6   9756412.964 6  21668721.979    21668726.896          18.000
        20.000
 97 10  3 22 50 30.0020000  0  6G14G15G22G16G25G29
   1783333.610 6   1389613.970 6  21378203.377    21378209.154          18.750
        19.250
  19384206.019 5  15104571.126 6  23004789.244    23004796.475          11.250
        14.250
   -737207.538 6   -572155.411 6  22825298.354    22825305.045          12.250
        13.250
   -695036.223 5   -539411.212 5  23759516.221    23759522.771          10.000
         9.500
  17538383.784 6  13666272.409 6  22597776.814    22597782.189          15.500
        14.750
  12572885.831 6   9797054.038 6  21678647.135    21678651.986          18.000
        20.000
 97 10  3 22 50 45.0020000  0  6G14G15G22G16G25G29
   1800625.032 6   1403087.813 6  21381493.986    21381499.822          18.500
        19.250
  19470088.534 5  15171492.539 6  23021132.166    23021139.494          11.250
        14.250
   -733578.162 6   -569327.286 6  22825988.971    22825995.764          12.500
        13.500
   -699395.725 5   -542808.199 5  23758687.213    23758693.479          10.000
         9.500
  17615539.909 6  13726394.054 6  22612459.127    22612464.428          15.250
        14.500
  12625082.628 6   9837726.862 6  21688579.830    21688584.693          18.000
        20.000
 97 10  3 22 51  0.0020000  0  6G14G15G22G16G25G29
   1818014.270 6   1416637.877 6  21384802.916    21384808.721          18.500
        19.250
  19556043.594 5  15238470.489 6  23037488.869    23037496.123          11.250
        14.250
   -729857.622 6   -566428.134 6  22826696.697    22826703.479          12.500
        13.250
   -703724.696 5   -546181.399 5  23757863.104    23757869.920          10.250
         9.750
  17692761.869 6  13786567.010 6  22627154.025    22627159.123          15.750
        14.500
  12677319.463 6   9878430.896 6  21698520.158    21698525.025          18.250
        20.000
 97 10  3 22 51 15.0020000  0  6G14G15G22G16G25G29
   1835496.545 6   1430260.434 6  21388129.752    21388135.584          18.500
        19.250
  19642067.905 5  15305502.388 6  23053858.877    23053866.119          11.000
        14.250
   -726045.661 6   -563457.743 6  22827422.127    22827428.779          12.500
        13.500
   -708025.138 5   -549532.370 5  23757045.346    23757051.373          10.500
         9.750
  17770049.950 6  13846791.485 6  22641861.580    22641866.674          15.750
        14.750
  12729595.255 6   9919165.278 6  21708467.916    21708472.764          18.000
        20.000
 97 10  3 22 51 30.0020000  0  6G14G15G22G16G25G29
   1853070.826 6   1443954.695 6  21391474.033    21391479.908          18.500
        19.250
  19728162.845 5  15372589.333 6  23070242.166    23070249.408          11.000
        14.250
   -722138.470 6   -560413.135 6  22828165.736    22828172.428          12.500
        13.500
   -712292.760 5   -552857.760 5  23756232.611    23756238.982          10.000
         9.750
  17847401.622 6  13907065.502 6  22656581.010    22656586.385          15.500
        14.750
  12781913.132 6   9959932.461 6  21718423.611    21718428.611          18.000
        20.000
 97 10  3 22 51 45.0020000  0  6G14G15G22G16G25G29
   1870737.029 6   1457720.575 6  21394835.799    21394841.611          18.500
        19.250
  19814330.260 5  15439732.742 6  23086639.322    23086646.568          11.000
        14.250
   -718133.201 6   -557292.115 6  22828927.939    22828934.584          12.500
        13.500
   -716523.426 5   -556154.368 5  23755427.166    23755434.143           9.750
         9.750
  17924814.125 6  13967386.927 6  22671312.229    22671317.572          15.500
        14.500
  12834277.780 6  10000736.075 6  21728388.354    21728393.178          18.000
        20.000
 97 10  3 22 52  0.0020000  0  6G14G15G22G16G25G29
   1888490.331 6   1471554.322 6  21398214.111    21398220.057          18.500
        19.250
  19900566.817 5  15506930.032 6  23103049.666    23103056.756          11.000
        14.000
   -714030.764 6   -554095.377 6  22829708.564    22829715.146          12.500
        13.500
   -720720.050 5   -559424.427 5  23754629.166    23754635.350          10.500
         9.750
  18002283.258 6  14027752.482 6  22686054.330    22686059.393          15.750
        14.500
  12886685.879 6  10041573.557 6  21738361.158    21738366.096          18.000
        20.000
 97 10  3 22 52 15.0020000  0  6G14G15G22G16G25G29
   1906328.336 6   1485454.076 6  21401608.541    21401614.439          18.500
        19.250
  19986869.707 5  15574179.012 6  23119472.479    23119479.732          11.000
        14.000
   -709834.635 6   -550825.628 6  22830507.064    22830513.729          12.750
        13.750
   -724885.856 5   -562670.495 5  23753836.197    23753842.318          10.750
         9.750
  18079804.994 6  14088159.023 6  22700806.166    22700811.189          15.750
        14.500
  12939133.620 6  10082441.928 6  21748341.783    21748346.623          18.000
        20.000
 97 10  3 22 52 30.0020000  0  6G14G15G22G16G25G29
   1924257.720 6   1499425.034 6  21405020.408    21405026.170          18.750
        19.250
  20073241.986 5  15641482.061 6  23135908.588    23135915.826          10.750
        14.000
   -705544.050 6   -547482.272 6  22831323.354    22831330.178          12.750
        14.000
   -729018.244 5   -565890.519 5  23753049.361    23753056.592          10.250
        10.000
  18157385.704 6  14148611.524 6  22715569.025    22715574.393          15.500
        14.500
  12991626.261 6  10123345.285 6  21758330.791    21758335.705          18.250
        20.000
 97 10  3 22 52 45.0020000  0  6G14G15G22G16G25G29
   1942288.800 6   1513475.231 6  21408451.572    21408457.373          18.500
        19.250
  20159690.637 5  15708844.617 6  23152359.135    23152366.439          10.750
        14.000
   -701151.990 6   -544059.855 6  22832159.182    22832166.002          12.750
        14.000
   -733107.952 5   -569077.266 5  23752270.854    23752278.092          10.000
        10.250
  18235032.946 6  14209115.859 6  22730345.033    22730350.201          15.750
        14.750
  13044172.104 6  10164290.099 6  21768329.963    21768334.838          18.000
        20.000
 97 10  3 22 53  0.0020000  0  6G14G15G22G16G25G29
   1960412.438 6   1527597.559 6  21411900.338    21411906.033          18.750
        19.000
  20246206.418 5  15776259.488 6  23168822.424    23168829.936          10.750
        13.750
   -696668.201 6   -540565.952 6  22833012.439    22833019.217          12.750
        14.000
   -737162.561 5   -572236.680 5  23751499.736    23751506.510          10.500
        10.000
  18312737.644 6  14269664.967 6  22745131.814    22745136.963          15.500
        14.750
  13096760.887 6  10205268.374 6  21778337.197    21778341.975          18.250
        19.750
 97 10  3 22 53 15.0020000  0  6G14G15G22G16G25G29
   1978633.971 6   1541796.165 6  21415367.939    21415373.604          18.750
        19.250
  20332792.472 5  15843729.114 6  23185299.119    23185306.795          10.500
        13.750
   -692086.736 6   -536995.944 6  22833884.072    22833890.811          12.750
        14.000
   -741176.189 5   -575364.164 5  23750735.807    23750742.635          10.500
        10.000
  18390501.832 6  14330260.439 6  22759929.822    22759934.838          15.500
        14.500
  13149394.497 6  10246281.575 6  21788353.080    21788357.885          18.000
        19.750
 97 10  3 22 53 30.0020000  0  6G14G15G22G16G25G29
   1996953.040 6   1556070.770 6  21418853.814    21418859.338          19.000
        19.250
  20419445.950 5  15911251.273 6  23201788.760    23201796.404          10.500
        13.750
   -687411.303 6   -533352.717 6  22834773.822    22834780.518          13.000
        14.250
   -745151.205 5   -578461.560 5  23749979.174    23749985.932          10.500
        10.000
  18468319.058 6  14390897.228 6  22774737.838    22774743.096          15.250
        14.500
  13202068.219 6  10287326.042 6  21798376.486    21798381.346          18.000
        19.750
 97 10  3 22 53 45.0020000  0  6G14G15G22G16G25G29
   2015374.529 6   1570425.189 6  21422359.424    21422365.096          19.000
        19.250
  20506167.435 5  15978826.431 6  23218291.322    23218299.041          10.500
        13.500
   -682642.946 6   -529637.062 6  22835681.197    22835687.807          13.000
        14.250
   -749085.559 5   -581527.260 5  23749230.643    23749237.615          10.500
        10.500
  18546190.568 6  14451576.322 6  22789556.314    22789561.783          15.250
        14.500
  13254784.382 6  10328403.573 6  21808407.971    21808412.857          18.000
        19.750
 97 10  3 22 54  0.0020000  0  6G14G15G22G16G25G29
   2033901.817 6   1584862.047 6  21425885.018    21425890.592          19.000
        19.000
  20592958.244 5  16046455.598 6  23234807.252    23234814.752          10.500
        14.000
   -677779.206 6   -525847.103 6  22836606.549    22836613.311          13.000
        14.250
   -752976.917 5   -584559.467 5  23748489.697    23748497.424          10.250
        10.500
  18624123.861 6  14512303.557 6  22804386.596    22804391.760          15.250
        14.500
  13307543.540 6  10369514.605 6  21818447.814    21818452.631          18.250
        19.750
 97 10  3 22 54 15.0020000  0  6G14G15G22G16G25G29
   2052537.547 6   1599383.406 6  21429431.189    21429436.904          19.000
        19.250
  20679819.165 5  16114139.406 6  23251336.377    23251343.877          10.500
        13.750
   -672818.907 6   -521981.896 6  22837550.635    22837557.303          13.000
        14.500
   -756826.788 5   -587559.340 5  23747757.197    23747764.545          10.500
        10.500
  18702123.075 6  14573082.154 6  22819229.221    22819234.299          15.250
        14.250
  13360343.397 6  10410657.357 6  21828495.400    21828500.225          18.250
        19.750
 97 10  3 22 54 30.0020000  0  6G14G15G22G16G25G29
   2071284.071 6   1613991.090 6  21432998.494    21433004.076          19.000
        19.000
  20766749.398 5  16181877.218 6  23267878.908    23267886.209          10.500
        13.750
   -667765.519 6   -518044.150 6  22838512.197    22838518.912          13.000
        14.250
   -760635.292 5   -590526.983 5  23747032.822    23747039.467          10.750
        10.250
  18780187.659 6  14633911.698 6  22834084.486    22834089.650          15.250
        14.250
  13413184.642 6  10451832.357 6  21838550.721    21838555.471          18.250
        20.000
 97 10  3 22 54 45.0020000  0  6G14G15G22G16G25G29
   2090143.514 6   1628686.777 6  21436587.400    21436593.115          19.000
        19.250
  20853748.871 5  16249668.990 6  23284434.346    23284441.799          10.500
        13.750
   -662619.328 6   -514034.096 6  22839491.455    22839498.189          13.000
        14.500
   -764398.286 5   -593459.173 5  23746316.877    23746323.736          10.750
        10.500
  18858316.873 6  14694791.598 6  22848952.096    22848957.170          15.250
        14.250
  13466069.478 6  10493041.320 6  21848614.252    21848619.186          18.000
        20.000
 97 10  3 22 55  0.0020000  0  6G14G15G22G16G25G29
   2109113.087 6   1643468.276 6  21440197.182    21440202.885          19.250
        19.250
  20940816.745 5  16317514.054 6  23301002.924    23301010.283          10.500
        13.750
   -657381.565 6   -509952.684 6  22840488.150    22840494.932          13.250
        14.500
   -768115.647 5   -596355.792 5  23745608.791    23745616.416          10.500
        10.500
  18936508.646 6  14755720.253 6  22863831.533    22863836.697          15.250
        14.500
  13518994.390 6  10534281.517 6  21858685.635    21858690.479          18.250
        20.000
 97 10  3 22 55 15.0020000  0  6G14G15G22G16G25G29
   2128192.568 6   1658335.405 6  21443827.893    21443833.600          19.250
        19.250
  21027950.410 5  16385410.388 6  23317583.971    23317591.307          10.500
        13.500
   -652052.611 6   -505800.214 6  22841502.213    22841508.869          13.250
        14.500
   -771790.528 5   -599219.316 5  23744910.033    23744916.975          10.750
        10.500
  19014762.917 6  14816697.596 6  22878722.674    22878728.002          15.000
        14.250
  13571957.716 6  10575551.639 6  21868764.119    21868769.037          18.250
        20.000
 97 10  3 22 55 30.0020000  0  6G14G15G22G16G25G29
   2147387.071 6   1673292.174 6  21447480.400    21447486.143          19.250
        19.250
  21115152.793 5  16453360.269 6  23334178.025    23334185.416          10.500
        13.500
   -646628.318 6   -501573.453 6  22842534.385    22842540.908          13.250
        14.500
   -775418.387 5   -602046.206 5  23744219.893    23744226.689          11.000
        10.750
  19093085.271 6  14877727.994 6  22893626.994    22893631.975          15.250
        14.000
  13624963.602 6  10616854.938 6  21878850.947    21878855.682          18.250
        19.750
 97 10  3 22 55 45.0020000  0  6G14G15G22G16G25G29
   2166693.362 6   1688336.047 6  21451154.494    21451160.217          19.250
        19.250
  21202419.636 5  16521360.372 6  23350784.400    23350791.740          10.500
        13.500
   -641115.214 6   -497277.493 6  22843583.463    22843590.033          13.000
        14.500
   -779004.379 5   -604840.464 5  23743537.189    23743544.314          10.750
        10.750
  19171472.970 6  14938809.318 6  22908543.768    22908548.631          15.250
        14.000
  13678010.748 6  10658190.374 6  21888945.400    21888950.154          18.250
        19.750
 97 10  3 22 56  0.0020000  0  6G14G15G22G16G25G29
   2186112.398 6   1703467.774 6  21454849.768    21454855.393          19.500
        19.250
  21289753.411 5  16589412.644 6  23367403.463    23367410.709          10.000
        13.000
   -635509.070 6   -492909.033 6  22844650.135    22844656.740          13.250
        14.500
   -782544.210 5   -607598.752 5  23742863.604    23742870.775          10.750
        10.750
  19249930.540 6  14999945.078 6  22923473.666    22923479.084          15.000
        14.250
  13731100.629 6  10699559.121 6  21899048.072    21899052.877          18.500
        19.750
 97 10  3 22 56 15.0020000  0  6G14G15G22G16G25G29
   2205641.831 6   1718685.523 6  21458566.111    21458571.814          19.500
        19.250
  21377153.487 5  16657516.572 6  23384035.205    23384042.533          10.500
        13.250
   -629809.681 6   -488467.920 6  22845734.939    22845741.264          13.250
        14.750
   -786040.750 5   -610323.314 5  23742198.471    23742205.236          11.000
        10.750
  19328454.681 6  15061132.711 6  22938416.424    22938421.611          15.000
        14.250
  13784231.111 6  10740959.497 6  21909158.494    21909163.209          18.250
        19.750
 97 10  3 22 56 30.0020000  0  6G14G15G22G16G25G29
   2225281.467 6   1733989.147 6  21462303.346    21462309.053          19.500
        19.250
  21464618.872 5  16725671.390 6  23400679.236    23400686.678          10.000
        13.000
   -624018.012 6   -483954.888 6  22846836.799    22846843.459          13.250
        14.500
   -789493.436 5   -613013.707 5  23741541.408    23741548.088          11.000
        10.750
  19407041.356 6  15122369.077 6  22953370.939    22953375.889          15.000
        14.000
  13837404.233 6  10782393.096 6  21919277.064    21919281.932          18.500
        19.750
 97 10  3 22 56 45.0030000  0  6G14G15G22G16G25G29
   2245034.165 6   1749380.863 6  21466062.077    21466067.858          19.500
        19.250
  21552157.856 5  16793883.553 6  23417337.257    23417344.749          10.000
        13.000
   -618127.013 6   -479364.470 6  22847957.788    22847964.491          13.000
        14.500
   -792896.173 5   -615665.174 5  23740894.280    23740900.815          11.000
        10.750
  19485697.757 6  15183659.771 6  22968338.593    22968343.604          15.000
        13.750
  13890629.968 6  10823867.697 6  21929405.694    21929410.300          18.250
        19.750
 97 10  3 22 57  0.0030000  0  6G14G15G22G16G25G29
   2264894.598 6   1764856.534 6  21469841.476    21469847.206          19.500
        19.250
  21639755.722 5  16862141.603 6  23434006.444    23434013.983           9.750
        13.000
   -612133.957 6   -474694.522 6  22849098.179    22849104.808          13.250
        14.750
   -796252.264 5   -618280.281 5  23740255.147    23740262.265          11.000
        10.750
  19564409.333 6  15244993.467 6  22983317.108    22983322.249          15.000
        14.000
  13943897.380 6  10865374.776 6  21939541.952    21939546.706          18.250
        19.750
 97 10  3 22 57 15.0030000  0  6G14G15G22G16G25G29
   2284865.817 6   1780418.534 6  21473641.749    21473647.487          19.500
        19.250
  21727419.010 5  16930450.623 6  23450688.218    23450695.827           9.750
        13.000
   -606034.159 6   -469941.399 6  22850258.960    22850265.624          13.000
        14.750
   -799562.602 5   -620859.750 5  23739625.280    23739631.862          11.000
        10.750
  19643183.548 6  15306375.967 6  22998307.132    22998312.487          15.000
        14.000
  13997209.195 6  10906916.451 6  21949686.874    21949691.687          18.250
        19.750
 97 10  3 22 57 30.0030000  0  6G14G15G22G16G25G29
   2304945.093 6   1796064.737 6  21477462.710    21477468.409          19.500
        19.250
  21815144.365 5  16998808.013 6  23467381.718    23467389.448           9.500
        13.000
   -599828.660 6   -465105.912 6  22851439.640    22851446.362          13.000
        14.750
   -802830.742 5   -623406.337 5  23739003.304    23739009.874          11.000
        10.750
  19722015.784 6  15367803.671 6  23013308.554    23013313.851          15.000
        14.000
  14050565.201 6  10948492.561 6  21959840.241    21959845.030          18.250
        19.500
 97 10  3 22 57 45.0030000  0  6G14G15G22G16G25G29
   2325128.926 6   1811792.406 6  21481303.640    21481309.296          19.500
        19.250
  21902931.054 5  17067213.199 6  23484086.874    23484094.577           9.500
        12.750
   -593519.122 6   -460189.351 6  22852640.452    22852647.042          13.000
        14.750
   -806057.184 5   -625920.426 5  23738389.296    23738396.358          11.000
        10.750
  19800902.494 6  15429273.826 6  23028320.179    23028325.335          15.000
        13.500
  14103967.402 6  10990104.671 6  21970002.241    21970007.065          18.250
        19.750
 97 10  3 22 58  0.0030000  0  6G14G15G22G16G25G29
   2345420.775 6   1827604.246 6  21485165.093    21485170.726          19.750
        19.250
  21990782.855 5  17135669.115 6  23500804.593    23500812.495           9.250
        13.000
   -587099.406 6   -455186.944 6  22853861.929    22853868.604          13.000
        14.750
   -809238.853 5   -628399.631 5  23737783.858    23737790.562          11.000
        10.750
  19879845.350 6  15490787.736 6  23043342.101    23043347.265          14.750
        13.500
  14157419.896 6  11031755.960 6  21980173.960    21980178.722          18.250
        19.750
 97 10  3 22 58 15.0030000  0  6G14G15G22G16G25G29
   2365819.831 6   1843499.616 6  21489046.944    21489052.448          19.750
        19.250
  22078698.151 5  17204174.503 6  23517534.194    23517541.960           9.250
        12.750
   -580568.202 6   -450097.668 6  22855104.741    22855111.292          13.000
        14.750
   -812377.809 5   -630845.556 5  23737186.437    23737193.280          11.000
        10.750
  19958842.647 6  15552344.070 6  23058375.280    23058380.429          15.000
        13.500
  14210918.624 6  11073443.278 6  21990354.460    21990359.237          18.250
        19.750
 97 10  3 22 58 30.0030000  0  6G14G15G22G16G25G29
   2386326.770 6   1859479.070 6  21492949.241    21492954.729          19.750
        19.250
  22166674.535 5  17272727.494 6  23534275.905    23534283.347           9.500
        12.750
   -573925.819 6   -444921.747 6  22856368.632    22856375.433          13.000
        14.750
   -815476.984 5   -633260.478 5  23736596.046    23736603.562          10.750
        10.750
  20037891.700 6  15613940.730 6  23073417.796    23073423.218          15.000
        14.000
  14264464.200 6  11115167.102 6  22000543.835    22000548.585          18.500
        19.750
 97 10  3 22 58 45.0030000  0  6G14G15G22G16G25G29
   2406942.154 6   1875543.013 6  21496872.179    21496877.726          19.500
        19.250
  22254710.057 5  17341326.576 6  23551028.593    23551036.136           9.500
        12.750
   -567170.489 6   -439657.821 6  22857654.304    22857660.937          13.000
        14.750
   -818535.713 5   -635643.885 5  23736014.585    23736021.351          11.000
        10.750
  20116991.786 6  15675577.149 6  23088469.999    23088475.292          15.000
        13.750
  14318055.891 6  11156926.866 6  22010742.062    22010746.659          18.500
        19.500
 97 10  3 22 59  0.0030000  0  6G14G15G22G16G25G29
   2427670.727 6   1891695.156 6  21500816.601    21500822.093          19.750
        19.250
  22342806.828 5  17409973.372 6  23567792.858    23567800.448           9.500
        12.750
   -560300.577 6   -434304.616 6  22858961.444    22858968.144          13.000
        14.750
   -821554.174 5   -637995.923 5  23735440.022    23735446.593          11.000
        10.750
  20196145.176 6  15737255.108 6  23103532.280    23103537.354          14.750
        13.250
  14371693.433 6  11198722.357 6  22020948.827    22020953.526          18.500
        19.500
 97 10  3 22 59 15.0030000  0  6G14G15G22G16G25G29
   2448514.841 6   1907937.328 6  21504783.335    21504788.827          19.500
        19.250
  22430966.776 5  17478669.407 6  23584569.538    23584576.796           9.500
        12.750
   -553318.834 6   -428864.258 6  22860290.155    22860296.784          13.000
        15.000
   -824532.937 5   -640317.010 5  23734872.835    23734880.335          10.750
        11.000
  20275352.732 6  15798975.277 6  23118605.116    23118610.175          15.000
        13.250
  14425374.664 6  11240551.890 6  22031163.999    22031168.862          18.250
        19.500
 97 10  3 22 59 30.0030000  0  6G14G15G22G16G25G29
   2469471.557 6   1924267.244 6  21508771.038    21508776.628          19.500
        19.250
  22519187.063 5  17547412.452 6  23601357.272    23601364.729           9.500
        12.500
   -546231.946 6   -423341.984 6  22861638.671    22861645.163          13.000
        15.000
   -827473.737 5   -642608.530 5  23734313.421    23734320.831          11.000
        11.250
  20354614.436 6  15860737.645 6  23133688.358    23133693.507          15.000
        13.500
  14479098.537 6  11282414.651 6  22041387.468    22041392.218          18.250
        19.250
 97 10  3 22 59 45.0030000  0  6G14G15G22G16G25G29
   2490538.732 6   1940683.234 6  21512779.944    21512785.562          19.500
        19.250
  22607464.795 5  17616200.266 6  23618155.937    23618163.405           9.500
        12.750
   -539044.077 6   -417741.017 6  22863006.437    22863013.140          13.000
        15.000
   -830377.451 5   -644871.146 5  23733760.796    23733767.964          11.000
        11.000
  20433927.655 6  15922540.146 6  23148780.694    23148786.179          14.750
        13.500
  14532861.646 6  11324307.980 6  22051618.069    22051622.761          18.250
        19.250
 97 10  3 23  0  0.0030000  0  6G14G15G22G16G25G29
   2511719.741 6   1957187.927 6  21516810.663    21516816.339          19.500
        19.250
  22695801.158 5  17685033.765 6  23634965.804    23634973.323           9.500
        12.750
   -531753.598 6   -412060.095 6  22864393.796    22864400.354          13.250
        15.000
   -833241.405 5   -647102.780 5  23733215.491    23733222.800          10.750
        11.000
  20513295.802 6  15984385.438 6  23163884.140    23163889.534          14.750
        13.250
  14586662.139 6  11366230.441 6  22061856.030    22061860.647          18.250
        19.250
 97 10  3 23  0 15.0030000  0  6G14G15G22G16G25G29
   2533014.532 6   1973781.273 6  21520862.741    21520868.491          19.500
        19.250
  22784195.040 5  17753912.080 6  23651786.585    23651794.144           9.500
        13.000
   -524360.624 6   -406299.306 6  22865800.593    22865807.159          13.250
        15.000
   -836064.235 5   -649302.357 5  23732678.983    23732685.780          11.250
        11.000
  20592717.841 6  16046272.738 6  23178997.749    23179002.585          14.750
        13.000
  14640494.977 6  11408178.113 6  22072099.991    22072104.835          18.250
        19.250
 97 10  3 23  0 30.0030000  0  6G14G15G22G16G25G29
   2554426.837 6   1990466.198 6  21524937.452    21524943.167          19.500
        19.250
  22872650.730 5  17822838.561 6  23668619.069    23668626.698           9.250
        12.500
   -516861.757 6   -400455.993 6  22867227.483    22867234.108          13.250
        15.000
   -838840.587 5   -651465.739 5  23732150.249    23732157.683          11.250
        11.000
  20672196.918 6  16108204.486 6  23194122.069    23194126.858          14.750
        12.750
  14694366.201 6  11450155.692 6  22082351.413    22082356.112          18.250
        19.250
 97 10  3 23  0 45.0030000  0  6G14G15G22G16G25G29
   2575955.770 6   2007241.997 6  21529034.319    21529039.905          19.500
        19.250
  22961166.613 5  17891811.944 6  23685463.038    23685470.757           9.250
        12.500
   -509258.981 6   -394531.723 6  22868674.249    22868680.847          13.250
        15.000
   -841569.584 5   -653592.206 5  23731630.796    23731637.944          11.000
        11.000
  20751732.121 6  16170179.968 6  23209257.140    23209262.425          14.750
        13.000
  14748276.497 6  11492163.724 6  22092610.210    22092615.062          18.250
        19.500
 97 10  3 23  1  0.0030000  0  6G14G15G22G16G25G29
   2597600.035 6   2024107.666 6  21533153.022    21533158.585          19.500
        19.250
  23049743.234 5  17960832.656 6  23702318.647    23702326.370           9.250
        12.500
   -501555.391 6   -388528.902 6  22870140.241    22870146.628          13.500
        15.250
   -844248.631 5   -655679.759 5  23731121.640    23731128.405          11.500
        11.250
  20831324.161 6  16232199.721 6  23224402.687    23224408.405          14.500
        13.250
  14802226.088 6  11534202.364 6  22102876.476    22102881.296          18.250
        19.500
 97 10  3 23  1 15.0030000  0  6G14G15G22G16G25G29
   2619356.638 6   2041060.868 6  21537293.187    21537298.788          19.250
        19.250
  23138380.838 5  18029900.883 6  23719185.671    23719193.620           9.250
        12.500
   -493751.922 6   -382448.242 6  22871625.069    22871631.608          13.500
        15.250
   -846875.679 5   -657726.782 5  23730621.507    23730628.476          11.500
        11.500
  20910974.000 6  16294264.520 6  23239560.007    23239564.882          14.750
        13.000
  14856215.766 6  11576272.249 6  22113150.351    22113155.202          18.250
        19.500
 97 10  3 23  1 30.0030000  0  6G14G15G22G16G25G29
   2641226.210 6   2058102.100 6  21541454.890    21541460.437          19.500
        19.250
  23227080.995 5  18099017.857 6  23736064.562    23736072.655           9.000
        12.250
   -485842.757 6   -376285.230 6  22873130.265    22873136.714          13.500
        15.250
   -849442.873 5   -659727.171 5  23730132.733    23730139.327          11.500
        11.250
  20990685.843 6  16356377.643 6  23254728.624    23254733.308          14.500
        12.500
  14910251.117 6  11618377.716 6  22123433.062    22123437.812          18.250
        19.500
 97 10  3 23  1 45.0030000  0  6G14G15G22G16G25G29
   2663198.182 6   2075223.126 6  21545635.999    21545641.647          19.500
        19.250
  23315833.807 5  18168175.857 6  23752953.765    23752961.761           9.000
        12.250
   -477831.900 6   -370042.977 6  22874654.655    22874661.136          13.750
        15.250
   -851957.360 5   -661686.493 5  23729654.663    23729661.026          11.750
        11.250
  21070450.816 6  16418532.157 6  23269906.960    23269912.249          14.250
        12.500
  14964325.239 6  11660513.402 6  22133722.874    22133727.655          18.000
        19.250
 97 10  3 23  2  0.0030000  0  6G14G15G22G16G25G29
   2685272.393 6   2092423.819 6  21549836.499    21549842.136          19.250
        19.250
  23404638.868 5  18237374.573 6  23769852.726    23769860.815           9.000
        12.000
   -469716.337 6   -363719.121 6  22876198.843    22876205.354          13.500
        15.250
   -854421.180 5   -663606.330 5  23729185.671    23729192.479          11.750
        11.500
  21150266.563 6  16480726.239 6  23285095.601    23285100.847          14.500
        12.750
  15018437.571 6  11702678.854 6  22144020.077    22144024.874          18.250
        19.250
 97 10  3 23  2 15.0030000  0  6G14G15G22G16G25G29
   2707453.250 6   2109707.609 6  21554057.358    21554062.944          19.250
        19.250
  23493500.033 5  18306617.018 5  23786762.421    23786770.491           8.750
        11.750
   -461490.054 6   -357309.000 6  22877764.437    22877770.870          13.750
        15.250
   -856831.948 5   -665484.822 5  23728726.882    23728733.640          11.750
        11.500
  21230135.185 6  16542961.521 6  23300294.163    23300299.538          14.500
        13.000
  15072592.292 6  11744877.337 6  22154325.257    22154330.081          18.000
        19.250
 97 10  3 23  2 30.0030000  0  6G14G15G22G16G25G29
   2729739.973 6   2127073.892 6  21558298.187    21558303.925          19.250
        19.250
  23582414.934 5  18375901.312 5  23803682.593    23803690.390           9.000
        11.750
   -453154.208 6   -350813.502 6  22879350.601    22879357.007          13.750
        15.250
   -859191.886 6   -667323.723 5  23728278.085    23728284.323          12.250
        11.500
  21310055.542 6  16605237.110 6  23315502.483    23315507.972          14.500
        12.750
  15126791.411 6  11787110.414 6  22164639.015    22164643.897          17.750
        19.000
 97 10  3 23  2 45.0030000  0  6G14G15G22G16G25G29
   2752140.813 6   2144529.100 6  21562560.983    21562566.784          19.250
        19.250
  23671390.070 5  18445232.563 5  23820614.101    23820621.866           9.000
        11.750
   -444700.599 6   -344226.241 6  22880959.233    22880965.698          14.000
        15.250
   -861492.799 6   -669116.615 5  23727839.749    23727846.233          12.000
        11.500
  21390037.440 6  16667560.661 6  23330722.335    23330727.284          14.250
        12.250
  15181043.781 6  11829384.995 6  22174963.030    22174967.776          17.750
        19.000
 97 10  3 23  3  0.0030000  0  6G14G15G22G16G25G29
   2774650.650 6   2162069.240 6  21566844.421    21566850.112          19.250
        19.250
  23760421.393 5  18514607.581 5  23837556.468    23837563.894           9.000
        11.750
   -436131.422 6   -337548.932 6  22882589.835    22882596.214          14.000
        15.500
   -863736.935 6   -670865.265 5  23727413.054    23727419.456          12.250
        11.500
  21470078.263 6  16729930.128 6  23345953.601    23345958.530          14.000
        12.250
  15235346.204 6  11871698.568 6  22185296.421    22185301.065          17.750
        19.000
 97 10  3 23  3 15.0030000  0  6G14G15G22G16G25G29
   2797267.877 6   2179693.065 6  21571148.476    21571154.214          19.000
        19.250
  23849508.712 5  18584026.240 5  23854509.374    23854516.679           9.000
        11.750
   -427443.370 6   -330778.991 6  22884243.038    22884249.499          14.000
        15.250
   -865924.494 6   -672569.836 5  23726996.780    23727003.140          12.500
        11.750
  21550178.279 6  16792345.721 6  23361196.608    23361201.647          14.500
        12.750
  15289695.656 6  11914048.791 6  22195638.827    22195643.569          17.750
        19.250
 97 10  3 23  3 30.0030000  0  6G14G15G22G16G25G29
   2819998.306 6   2197405.091 6  21575473.897    21575479.569          19.000
        19.250
  23938652.130 5  18653488.613 5  23871472.765    23871480.089           9.000
        11.750
   -418632.881 6   -323913.647 6  22885919.647    22885926.026          14.000
        15.500
   -868057.220 6   -674231.674 5  23726590.530    23726597.007          12.250
        11.500
  21630336.383 6  16854806.576 6  23376450.007    23376455.511          14.250
        13.000
  15344091.389 6  11956435.076 6  22205989.905    22205994.663          17.750
        19.250
 97 10  3 23  3 45.0030000  0  6G14G15G22G16G25G29
   2842838.438 6   2215202.606 6  21579820.319    21579826.034          19.250
        19.250
  24027843.928 5  18722988.681 5  23888445.483    23888452.874           9.000
        11.500
   -409707.922 6   -316959.100 6  22887618.038    22887624.429          14.250
        15.500
   -870145.108 6   -675858.575 5  23726193.429    23726200.058          12.500
        11.750
  21710542.828 6  16917305.095 6  23391712.585    23391718.003          13.750
        12.500
  15398525.333 6  11998851.132 6  22216348.390    22216353.222          17.750
        19.250
 97 10  3 23  4  0.0030000  0  6G14G15G22G16G25G29
   2865799.861 6   2233094.626 6  21584189.601    21584195.233          19.250
        19.250
  24117092.158 5  18792532.729 5  23905428.991    23905436.358           9.250
        11.750
   -400662.883 6   -309910.985 6  22889339.280    22889345.608          14.250
        15.750
   -872184.684 6   -677447.831 6  23725805.124    23725811.937          12.500
        12.000
  21790802.544 6  16979845.123 6  23406985.671    23406990.425          14.000
        12.250
  15453004.930 6  12041302.763 6  22226715.429    22226720.374          17.750
        19.500
 97 10  3 23  4 15.0030000  0  6G14G15G22G16G25G29
   2888891.634 6   2251088.224 6  21588583.999    21588589.632          19.250
        19.250
  24206403.086 5  18862125.629 5  23922424.233    23922431.757           9.250
        11.750
   -391492.680 6   -302765.341 6  22891084.077    22891090.386          14.250
        15.750
   -874168.562 6   -678993.685 6  23725427.679    23725434.171          12.750
        12.000
  21871122.290 6  17042431.930 6  23422270.124    23422274.862          14.250
        12.250
  15507536.608 6  12083794.980 6  22237092.405    22237097.362          17.500
        19.500
 97 10  3 23  4 30.0030000  0  6G14G15G22G16G25G29
   2912099.901 6   2269172.594 6  21593000.062    21593005.796          19.250
        19.250
  24295764.532 5  18931757.896 5  23939429.147    23939436.651           9.000
        11.750
   -382209.844 6   -295531.930 6  22892850.577    22892857.093          14.250
        15.750
   -876103.797 6   -680501.638 6  23725059.413    23725066.054          12.750
        12.000
  21951490.283 6  17105056.341 6  23437563.741    23437568.878          14.250
        12.500
  15562110.755 6  12126320.291 6  22247477.624    22247482.487          17.500
        19.250
 97 10  3 23  4 45.0030000  0  6G14G15G22G16G25G29
   2935418.453 6   2287342.903 6  21597437.507    21597443.222          19.250
        19.250
  24385172.128 5  19001426.111 5  23956442.718    23956450.386           9.000
        11.750
   -372817.618 6   -288213.281 6  22894637.804    22894644.194          14.250
        15.750
   -877992.739 6   -681973.520 6  23724699.585    23724706.663          12.500
        12.250
  22031902.593 6  17167715.279 6  23452865.319    23452870.847          14.000
        12.500
  15616724.127 6  12168876.162 6  22257870.062    22257875.026          17.500
        19.250
 97 10  3 23  5  0.0030000  0  6G14G15G22G16G25G29
   2958851.089 6   2305602.113 6  21601896.624    21601902.312          19.000
        19.250
  24474630.540 5  19071133.936 5  23973466.015    23973473.839           9.000
        11.750
   -363313.021 6   -280807.062 6  22896446.476    22896452.831          14.250
        15.750
   -879831.598 6   -683406.364 6  23724349.952    23724356.776          12.750
        12.500
  22112360.794 6  17230409.972 6  23468175.866    23468181.659          13.500
        12.500
  15671380.245 6  12211465.347 6  22268270.812    22268275.733          17.250
        19.250
 97 10  3 23  5 15.0030000  0  6G14G15G22G16G25G29
   2982400.250 6   2323952.113 6  21606377.835    21606383.593          19.000
        19.250
  24564139.868 5  19140881.428 5  23990499.015    23990506.913           8.750
        11.500
   -353696.087 6   -273313.312 6  22898276.546    22898283.007          14.250
        15.750
   -881621.941 6   -684801.419 6  23724009.093    23724016.042          12.750
        12.250
  22192863.894 6  17293139.647 6  23483495.640    23483500.585          14.250
        12.250
  15726078.020 6  12254086.990 6  22278679.522    22278684.433          17.250
        19.250
 97 10  3 23  5 30.0030000  0  6G14G15G22G16G25G29
   3006070.916 6   2342396.790 6  21610882.155    21610887.894          19.000
        19.250
  24653699.178 5  19210667.871 5  24007541.562    24007549.425           8.500
        11.750
   -343968.211 6   -265733.125 6  22900127.601    22900134.050          14.250
        16.000
   -883365.490 6   -686160.010 6  23723677.218    23723684.226          12.750
        12.500
  22273412.623 6  17355904.891 6  23498823.507    23498828.097          14.000
        12.000
  15780818.258 6  12296741.718 6  22289096.187    22289101.065          17.500
        19.250
 97 10  3 23  5 45.0030000  0  6G14G15G22G16G25G29
   3029865.119 6   2360937.737 6  21615410.015    21615415.921          19.000
        19.000
  24743309.470 5  19280494.032 5  24024593.851    24024601.733           8.500
        11.500
   -334129.793 6   -258066.785 6  22901999.804    22902006.136          14.250
        15.750
   -885060.424 6   -687480.701 6  23723354.476    23723361.851          12.750
        12.750
  22354007.972 6  17418706.465 6  23514159.749    23514165.405          13.500
        12.250
  15835606.208 6  12339433.628 6  22299522.085    22299526.976          17.500
        19.250
 97 10  3 23  6  0.0030000  0  6G14G15G22G16G25G29
   3053780.097 6   2379572.795 6  21619960.851    21619966.558          19.000
        19.000
  24832969.807 5  19350359.209 5  24041655.687    24041663.534           8.500
        11.500
   -324181.406 6   -250314.765 6  22903892.976    22903899.206          14.250
        15.750
   -886703.416 6   -688760.940 6  23723042.062    23723049.050          13.000
        12.750
  22434650.747 6  17481544.974 6  23529505.819    23529511.644          13.750
        12.750
  15890442.844 6  12382163.474 6  22309957.171    22309961.886          17.500
        19.250
 97 10  3 23  6 15.0040000  0  6G14G15G22G16G25G29
   3077812.372 6   2398299.242 6  21624534.293    21624539.961          19.250
        19.000
  24922683.698 5  19420266.099 5  24058727.715    24058735.695           8.750
        11.500
   -314124.062 6   -242477.844 6  22905806.902    22905813.027          14.500
        16.000
   -888293.861 6   -690000.222 6  23722739.301    23722746.590          12.750
        12.750
  22515346.077 6  17544424.440 6  23544861.809    23544867.223          14.000
        12.500
  15945329.561 6  12424932.338 6  22320401.769    22320406.473          17.500
        19.250
 97 10  3 23  6 30.0040000  0  6G14G15G22G16G25G29
   3101954.250 6   2417111.105 6  21629128.348    21629133.930          19.250
        19.000
  25012437.779 5  19490204.312 5  24075807.465    24075815.168           8.500
        11.500
   -303959.851 6   -234557.648 6  22907740.863    22907747.207          14.500
        16.000
   -889830.313 6   -691197.436 6  23722447.019    23722454.113          13.000
        12.750
  22596084.864 6  17607337.778 6  23560226.238    23560230.891          14.000
        12.000
  16000256.447 6  12467732.508 6  22330853.957    22330858.742          17.500
        19.250
 97 10  3 23  6 45.0040000  0  6G14G15G22G16G25G29
   3126214.042 6   2436014.842 6  21633744.848    21633750.496          19.250
        19.000
  25102243.403 5  19560182.690 5  24092897.019    24092904.871           8.750
        11.500
   -293682.282 6   -226549.121 6  22909696.691    22909702.863          14.500
        16.000
   -891307.695 6   -692348.618 6  23722165.965    23722172.992          13.000
        12.750
  22676879.543 6  17670294.672 5  23575600.410    23575605.480          13.500
        11.750
  16055232.432 6  12510570.943 6  22341315.551    22341320.414          17.250
        19.250
 97 10  3 23  7  0.0040000  0  6G14G15G22G16G25G29
   3150588.977 6   2455008.304 6  21638383.230    21638388.887          19.250
        19.000
  25192093.977 5  19630196.092 5  24109995.176    24110002.699           8.750
        11.250
   -283298.392 6   -218457.741 6  22911672.644    22911678.980          14.500
        16.000
   -892736.241 6   -693461.748 6  23721894.098    23721900.922          13.000
        12.750
  22757725.199 6  17733291.281 6  23590984.996    23590990.273          13.500
        12.250
  16110249.126 6  12553441.093 6  22351784.863    22351789.859          17.250
        19.250
 97 10  3 23  7 15.0040000  0  6G14G15G22G16G25G29
   3175081.648 6   2474093.510 6  21643044.074    21643049.656          19.250
        19.000
  25281989.720 5  19700244.692 5  24127101.590    24127109.414           8.750
        11.250
   -272805.395 6   -210281.355 6  22913669.402    22913675.769          14.500
        16.000
   -894114.959 6   -694536.058 6  23721631.809    23721638.730          13.000
        13.000
  22838626.202 6  17796331.018 6  23606380.246    23606385.519          13.750
        12.250
  16165307.965 6  12596344.081 6  22362262.269    22362267.242          17.000
        19.250
 97 10  3 23  7 30.0040000  0  6G14G15G22G16G25G29
   3199689.729 6   2493268.642 6  21647726.801    21647732.430          19.250
        19.000
  25371927.614 5  19770326.128 5  24144216.496    24144223.996           8.750
        11.250
   -262202.513 6   -202019.338 6  22915686.988    22915693.258          14.750
        16.000
   -895443.696 6   -695571.414 6  23721378.824    23721385.969          13.000
        13.000
  22919580.552 6  17859412.319 6  23621785.379    23621790.477          13.750
        12.250
  16220406.476 6  12639277.981 6  22372747.059    22372752.102          17.000
        19.500
 97 10  3 23  7 45.0040000  0  6G14G15G22G16G25G29
   3224413.897 6   2512534.234 6  21652431.668    21652437.320          19.250
        18.750
  25461911.351 5  19840443.297 5  24161339.809    24161347.469           8.750
        11.250
   -251485.595 6   -193668.460 6  22917726.324    22917732.574          14.750
        16.000
   -896717.009 6   -696563.580 6  23721136.715    23721143.434          13.000
        13.000
  23000589.967 6  17922536.531 6  23637200.559    23637205.871          13.250
        12.250
  16275548.694 6  12682245.946 6  22383240.223    22383245.215          17.250
        19.250
 97 10  3 23  8  0.0040000  0  6G14G15G22G16G25G29
   3249246.493 6   2531884.315 6  21657157.004    21657162.723          19.250
        18.750
  25551936.006 5  19910592.347 5  24178471.004    24178478.582           8.750
        11.250
   -240658.173 6   -185231.473 6  22919786.754    22919793.019          14.750
        16.000
   -897937.980 6   -697514.963 6  23720904.426    23720911.012          13.250
        13.000
  23081647.682 6  17985698.382 5  23652625.277    23652630.535          13.250
        11.750
  16330728.587 6  12725243.265 6  22393740.527    22393745.422          17.250
        19.250
 97 10  3 23  8 15.0040000  0  6G14G15G22G16G25G29
   3274194.203 6   2551324.094 6  21661904.418    21661910.168          19.250
        18.750
  25642007.734 5  19980778.080 5  24195611.184    24195618.812           8.750
        11.250
   -229712.464 6   -176702.324 6  22921869.676    22921875.777          14.500
        16.000
   -899100.871 6   -698421.097 6  23720682.793    23720689.672          13.000
        13.000
  23162760.928 6  18048903.500 5  23668060.855    23668065.937          13.500
        11.750
  16385952.148 6  12768274.610 6  22404249.223    22404254.234          17.250
        19.250
 97 10  3 23  8 30.0040000  0  6G14G15G22G16G25G29
   3299257.986 6   2570854.321 6  21666673.918    21666679.496          19.250
        18.750
  25732126.952 5  20051000.809 5  24212760.316    24212767.816           8.750
        11.250
   -218645.823 6   -168078.937 6  22923975.504    22923981.746          14.500
        16.000
   -900207.026 6   -699283.014 6  23720472.590    23720479.262          13.000
        13.000
  23243930.107 6  18112152.209 6  23683507.019    23683512.227          13.750
        12.250
  16441219.041 6  12811339.720 6  22414766.277    22414771.168          17.250
        19.250
 97 10  3 23  8 45.0040000  0  6G14G15G22G16G25G29
   3324439.702 6   2590476.444 6  21671465.832    21671471.465          19.250
        18.750
  25822289.850 5  20121257.576 5  24229917.676    24229925.523           8.500
        11.250
   -207460.438 6   -159363.023 6  22926103.926    22926110.215          14.500
        16.000
   -901258.769 6   -700102.526 6  23720272.340    23720278.906          13.000
        13.000
  23325150.832 6  18175441.084 6  23698962.574    23698968.191          13.250
        12.500
  16496528.963 6  12854438.358 6  22425291.465    22425296.398          17.500
        19.250
 97 10  3 23  9  0.0040000  0  6G14G15G22G16G25G29
   3349746.137 6   2610195.749 6  21676281.457    21676287.039          19.250
        18.750
  25912500.349 5  20191551.440 5  24247083.949    24247092.000           8.250
        11.250
   -196149.982 6   -150549.653 6  22928256.285    22928262.488          14.750
        16.250
   -902252.258 6   -700876.652 6  23720083.129    23720089.871          13.000
        13.000
  23406424.399 6  18238771.118 6  23714427.965    23714433.672          13.000
        12.000
  16551887.119 6  12897574.587 6  22435825.793    22435830.566          17.500
        19.000
 97 10  3 23  9 15.0040000  0  6G14G15G22G16G25G29
   3375172.454 6   2630008.473 6  21681120.004    21681125.555          19.500
        18.500
  26002754.593 5  20261879.386 5  24264258.660    24264266.730           8.250
        11.250
   -184718.188 6   -141641.731 6  22930431.613    22930437.758          14.500
        16.250
   -903189.772 6   -701607.161 6  23719904.957    23719911.219          13.250
        13.000
  23487743.212 6  18302136.425 6  23729902.910    23729907.719          13.250
        12.000
  16607291.880 6  12940747.131 6  22446368.910    22446373.801          17.500
        19.000
 97 10  3 23  9 30.0040000  0  6G14G15G22G16G25G29
   3400718.103 6   2649914.176 6  21685981.160    21685986.719          19.500
        18.500
  26093051.699 5  20332240.729 5  24281441.652    24281449.883           8.000
        11.250
   -173164.335 6   -132638.697 6  22932630.152    22932636.387          14.750
        16.250
   -904066.042 6   -702289.951 6  23719737.793    23719744.320          13.000
        13.000
  23569102.643 6  18365533.385 5  23745385.191    23745390.172          13.500
        11.750
  16662742.320 6  12983955.267 6  22456920.785    22456925.578          17.500
        19.000
 97 10  3 23  9 45.0040000  0  6G14G15G22G16G25G29
   3426384.305 6   2669913.822 6  21690865.285    21690870.859          19.500
        18.500
  26183391.938 5  20402635.679 5  24298632.684    24298641.164           8.000
        11.250
   -161491.005 6   -123542.570 6  22934851.465    22934857.754          14.750
        16.250
   -904880.562 6   -702924.623 6  23719582.988    23719589.516          13.000
        13.000
  23650502.088 6  18428961.519 6  23760874.777    23760880.047          13.250
        12.000
  16718239.943 6  13027200.164 6  22467481.746    22467486.559          17.500
        19.000
 97 10  3 23 10  0.0040000  0  6G14G15G22G16G25G29
   3452176.222 6   2690011.425 6  21695773.379    21695778.840          19.500
        18.500
  26273778.620 5  20473066.832 5  24315832.894    24315841.051           7.750
        11.250
   -149695.065 6   -114350.901 6  22937096.113    22937102.316          14.750
        16.250
   -905629.060 6   -703507.850 6  23719440.277    23719447.117          13.000
        13.000
  23731945.461 6  18492423.874 6  23776372.785    23776378.340          13.000
        12.250
  16773789.368 6  13070485.436 6  22478052.363    22478057.250          17.500
        19.000
 97 10  3 23 10 15.0040000  0  6G14G15G22G16G25G29
   3478089.874 6   2710203.888 6  21700704.582    21700710.113          19.500
        18.500
  26364204.469 5  20543528.498 5  24333040.387    24333048.484           7.750
        11.250
   -137783.240 6   -105068.928 6  22939362.918    22939369.129          14.750
        16.250
   -906319.271 6   -704045.651 6  23719309.191    23719315.695          13.000
        13.000
  23813428.022 6  18555916.765 6  23791878.519    23791884.027          13.000
        12.250
  16829385.568 6  13113807.147 6  22488631.934    22488636.969          17.500
        19.250
 97 10  3 23 10 30.0040000  0  6G14G15G22G16G25G29
   3504127.801 6   2730493.189 6  21705659.402    21705664.945          19.500
        18.500
  26454669.962 5  20614021.046 5  24350255.543    24350263.750           7.750
        11.000
   -125753.668 6    -95695.208 6  22941652.035    22941658.324          14.750
        16.250
   -906949.627 6   -704536.821 6  23719189.246    23719195.613          13.250
        13.000
  23894951.067 6  18619441.211 5  23807392.098    23807397.277          13.250
        11.750
  16885028.877 6  13157165.569 6  22499220.519    22499225.445          17.500
        19.250
 97 10  3 23 10 45.0040000  0  6G14G15G22G16G25G29
   3530293.270 6   2750881.870 6  21710638.559    21710644.133          19.500
        18.250
  26545177.901 5  20684546.677 5  24367478.660    24367486.730           7.750
        11.000
   -113603.940 6    -86227.861 6  22943964.059    22943970.129          14.750
        16.250
   -907515.626 6   -704977.845 6  23719081.066    23719088.004          13.000
        13.000
  23976517.204 6  18682999.236 5  23822913.504    23822918.473          13.250
        11.750
  16940722.502 6  13200563.201 6  22509818.738    22509823.742          17.500
        19.250
 97 10  3 23 11  0.0040000  0  6G14G15G22G16G25G29
   3556581.008 6   2771365.829 6  21715640.730    21715646.289          19.500
        18.250
  26635726.120 5  20755103.689 5  24384709.699    24384717.469           8.000
        10.750
   -101336.739 6    -76668.978 6  22946298.441    22946304.555          14.750
        16.250
   -908017.941 6   -705369.236 6  23718985.965    23718992.250          13.250
        13.000
  24058122.378 6  18746587.685 5  23838442.426    23838447.652          12.750
        11.750
  16996463.181 6  13243997.496 6  22520425.840    22520430.793          17.500
        19.250
 97 10  3 23 11 15.0040000  0  6G14G15G22G16G25G29
   3582983.711 6   2791939.372 6  21720665.098    21720670.648          19.500
        18.250
  26726310.562 5  20825688.934 5  24401947.355    24401955.004           8.000
        10.750
    -88954.542 6    -67020.487 6  22948654.566    22948660.695          14.750
        16.250
   -908459.611 6   -705713.381 6  23718901.676    23718908.375          13.250
        13.250
  24139761.953 6  18810202.924 6  23853977.769    23853983.340          12.750
        12.250
  17052245.228 6  13287464.031 6  22531040.965    22531045.766          17.500
        19.000
 97 10  3 23 11 30.0040000  0  6G14G15G22G16G25G29
   3609502.436 6   2812603.315 6  21725711.340    21725716.965          19.500
        18.250
  26816932.781 5  20896303.608 5  24419192.332    24419199.926           8.000
        10.500
    -76454.020 6    -57279.788 6  22951033.402    22951039.523          15.000
        16.500
   -908835.880 6   -706006.558 6  23718829.918    23718836.621          13.500
        13.250
  24221439.630 6  18873847.857 6  23869521.059    23869526.250          13.250
        12.250
  17108071.804 6  13330965.255 6  22541664.285    22541669.043          17.500
        19.000
 97 10  3 23 11 45.0040000  0  6G14G15G22G16G25G29
   3636144.779 6   2833363.585 6  21730781.238    21730786.883          19.750
        18.250
  26907599.134 5  20966952.684 5  24436445.543    24436453.148           8.000
        10.500
    -63827.489 6    -47440.911 6  22953436.230    22953442.156          15.000
        16.500
   -909142.763 6   -706245.671 6  23718771.777    23718778.269          13.500
        13.250
  24303163.996 6  18937529.172 5  23885072.465    23885077.504          13.000
        11.750
  17163948.594 6  13374505.614 6  22552297.355    22552302.086          17.750
        18.750
 97 10  3 23 12  0.0040000  0  6G14G15G22G16G25G29
   3662904.946 6   2854215.672 6  21735873.566    21735879.031          19.750
        18.250
  26998303.983 5  21037631.753 5  24453706.262    24453713.746           8.000
        10.500
    -51081.043 6    -37508.594 6  22955861.660    22955867.777          15.250
        16.500
   -909389.099 6   -706437.602 6  23718724.715    23718731.394          13.500
        13.250
  24384929.919 6  19001242.870 5  23900631.660    23900637.172          12.750
        11.750
  17219868.297 6  13418079.403 6  22562938.480    22562943.281          17.500
        18.750
 97 10  3 23 12 15.0040000  0  6G14G15G22G16G25G29
   3689788.460 6   2875163.868 6  21740989.285    21740994.668          19.750
        18.250
  27089052.396 5  21108344.771 5  24470975.066    24470982.543           7.750
        10.250
    -38207.624 6    -27477.331 6  22958311.238    22958317.410          15.250
        16.500
   -909568.668 6   -706577.504 6  23718690.809    23718697.316          14.000
        13.500
  24466741.214 6  19064991.919 5  23916199.996    23916205.297          12.750
        11.750
  17275832.837 6  13461688.140 6  22573588.152    22573592.953          17.500
        18.750
 97 10  3 23 12 30.0040000  0  6G14G15G22G16G25G29
   3716787.910 6   2896202.410 6  21746127.121    21746132.512          19.750
        18.000
  27179837.092 5  21179086.048 5  24488250.613    24488258.363           7.750
        10.000
    -25212.104 6    -17350.916 6  22960784.246    22960790.410          15.250
        16.750
   -909686.992 6   -706669.687 6  23718668.269    23718674.984          13.750
        13.500
  24548589.025 6  19128769.430 5  23931775.004    23931780.258          12.750
        11.750
  17331833.391 6  13505324.940 6  22584244.637    22584249.383          17.500
        18.750
 97 10  3 23 12 45.0040000  0  6G14G15G22G16G25G29
   3743906.066 7   2917333.446 6  21751287.566    21751292.937          20.000
        18.000
  27270663.114 5  21249859.543 5  24505534.168    24505542.016           7.750
        10.250
    -12088.319 6     -7124.565 6  22963281.660    22963287.727          15.250
        16.750
   -909737.101 6   -706708.718 6  23718658.566    23718665.332          13.750
        13.500
  24630478.218 6  19192579.180 5  23947358.340    23947363.430          13.000
        11.750
  17387872.824 6  13548992.030 6  22594908.613    22594913.473          17.250
        18.750
 97 10  3 23 13  0.0040000  0  6G14G15G22G16G25G29
   3771141.854 7   2938556.141 6  21756470.473    21756475.781          20.000
        18.000
  27361529.648 5  21320664.603 5  24522825.473    24522833.445           7.750
        10.250
      1161.607 6      3200.078 6  22965803.043    22965809.129          15.250
        16.750
   -909719.324 6   -706694.863 6  23718662.254    23718668.773          14.000
        13.500
  24712407.503 6  19256420.177 6  23962948.855    23962954.453          13.000
        12.000
  17443949.412 6  13592688.077 6  22605579.582    22605584.328          17.250
        18.750
 97 10  3 23 13 15.0040000  0  6G14G15G22G16G25G29
   3798497.164 7   2959871.976 6  21761676.012    21761681.430          20.000
        18.000
  27452436.099 5  21391500.750 5  24540124.105    24540132.379           7.750
        10.500
     14540.351 6     13625.095 6  22968348.832    22968354.836          15.250
        16.750
   -909634.281 6   -706628.567 6  23718678.223    23718684.937          14.000
        13.500
  24794376.128 6  19320291.818 5  23978546.894    23978552.363          12.750
        11.750
  17500063.610 6  13636413.422 6  22616257.684    22616262.566          17.250
        18.750
 97 10  3 23 13 30.0040000  0  6G14G15G22G16G25G29
   3825976.990 7   2981284.830 6  21766905.223    21766910.547          20.000
        18.000
  27543384.301 5  21462369.438 5  24557431.113    24557439.246           7.750
        10.500
     28050.556 6     24152.556 6  22970919.769    22970925.855          15.500
        17.000
   -909479.724 6   -706508.124 6  23718707.660    23718714.062          14.000
        13.500
  24876390.136 6  19384198.827 5  23994153.848    23994158.684          12.750
        11.500
  17556220.046 6  13680171.683 6  22626944.027    22626948.894          17.500
        18.750
 97 10  3 23 13 45.0040000  0  6G14G15G22G16G25G29
   3853584.690 6   3002797.328 6  21772158.848    21772164.269          19.750
        18.000
  27634373.532 5  21533270.102 5  24574746.004    24574754.027           7.500
        10.250
     41689.297 6     34780.174 6  22973515.059    22973521.098          15.500
        17.000
   -909258.101 6   -706335.409 6  23718749.605    23718756.477          14.250
        13.750
  24958449.313 6  19448141.042 5  24009769.184    24009774.152          13.000
        11.500
  17612415.965 6  13723960.711 6  22637637.840    22637642.738          17.500
        18.750
 97 10  3 23 14  0.0040000  0  6G14G15G22G16G25G29
   3881315.647 6   3024405.866 6  21777435.824    21777441.223          19.750
        18.000
  27725399.140 5  21604199.110 5  24592067.473    24592075.617           7.500
        10.250
     55451.006 6     45503.612 6  22976133.855    22976139.926          15.500
        17.000
   -908974.060 6   -706114.060 6  23718803.863    23718810.633          14.250
        13.750
  25040548.004 6  19512114.046 5  24025392.113    24025397.316          13.000
        11.750
  17668644.081 6  13767774.827 6  22648337.684    22648342.531          17.500
        18.750
 97 10  3 23 14 15.0040000  0  6G14G15G22G16G25G29
   3909176.647 7   3046115.744 6  21782737.582    21782743.074          20.000
        18.000
  27816466.883 5  21675160.951 5  24609397.230    24609405.437           7.500
        10.000
     69343.216 6     56328.740 6  22978777.309    22978783.437          15.500
        17.000
   -908617.755 6   -705836.396 6  23718871.637    23718878.051          14.500
        13.750
  25122693.220 6  19576123.283 6  24041023.582    24041029.328          12.750
        12.250
  17724912.116 6  13811620.049 6  22659045.207    22659050.023          17.500
        18.750
 97 10  3 23 14 30.0040000  0  6G14G15G22G16G25G29
   3937160.667 7   3067921.482 6  21788062.855    21788068.332          20.000
        17.750
  27907568.645 5  21746149.296 5  24626733.738    24626741.570           7.500
        10.000
     83360.050 6     67250.975 6  22981444.621    22981450.746          15.500
        17.250
   -908197.122 6   -705508.619 6  23718951.457    23718958.223          14.250
        13.750
  25204879.806 6  19640164.773 5  24056663.199    24056668.703          12.750
        11.750
  17781217.038 6  13855494.018 6  22669759.543    22669764.383          17.500
        18.750
 97 10  3 23 14 45.0040000  0  6G14G15G22G16G25G29
   3965268.976 7   3089824.063 6  21793411.504    21793416.891          20.000
        17.750
  27998704.414 5  21817164.140 5  24644076.074    24644084.113           7.500
        10.000
     97500.981 6     78269.904 6  22984135.512    22984141.617          15.500
        17.500
   -907714.664 6   -705132.660 6  23719043.269    23719049.980          14.500
        14.000
  25287109.631 6  19704239.949 5  24072311.066    24072316.340          12.500
        11.500
  17837562.293 6  13899399.408 6  22680481.660    22680486.492          17.250
        18.500
 97 10  3 23 15  0.0040000  0  6G14G15G22G16G25G29
   3993503.245 7   3111824.795 6  21798784.379    21798789.723          20.000
        17.750
  28089874.436 5  21888205.683 5  24661425.457    24661433.359           7.500
        10.250
    111765.492 6     89385.133 6  22986850.012    22986856.035          15.500
        17.500
   -907171.080 6   -704709.081 6  23719146.910    23719153.508          14.750
        14.000
  25369384.265 6  19768350.049 5  24087967.512    24087972.734          12.750
        11.500
  17893952.075 6  13943339.494 6  22691212.230    22691217.008          17.250
        18.500
 97 10  3 23 15 15.0040000  0  6G14G15G22G16G25G29
   4021866.979 7   3133926.415 6  21804181.863    21804187.234          20.250
        17.750
  28181076.909 5  21959272.505 5  24678780.723    24678788.512           7.500
        10.500
    126155.581 6    100598.222 6  22989588.309    22989594.371          15.500
        17.500
   -906569.010 6   -704239.906 6  23719261.465    23719268.000          14.500
        14.000
  25451701.911 6  19832493.656 5  24103631.738    24103637.234          12.500
        11.500
  17950389.131 6  13987316.418 6  22701951.840    22701956.555          17.000
        18.500
 97 10  3 23 15 30.0040000  0  6G14G15G22G16G25G29
   4050362.891 7   3156131.020 6  21809604.566    21809609.711          20.250
        17.500
  28272313.064 5  22030365.574 5  24696142.355    24696150.402           7.500
        10.250
    140673.763 6    111911.121 6  22992351.082    22992357.102          15.500
        17.500
   -905908.297 6   -703725.049 6  23719387.082    23719393.523          14.750
        14.000
  25534065.416 6  19896672.997 5  24119304.957    24119310.625          12.250
        11.750
  18006877.838 6  14031333.595 6  22712701.363    22712706.094          17.250
        18.500
 97 10  3 23 15 45.0050000  0  6G14G15G22G16G25G29
   4078989.462 7   3178437.448 6  21815052.024    21815057.337          20.250
        17.750
  28363586.101 5  22101487.373 5  24713510.899    24713519.185           7.500
        10.500
    155316.703 6    123321.235 6  22995137.478    22995143.591          15.500
        17.500
   -905192.314 6   -703167.123 6  23719523.399    23719529.657          14.750
        14.000
  25616477.267 6  19960890.019 5  24134987.712    24134993.255          12.250
        11.750
  18063417.025 6  14075390.101 6  22723460.431    22723465.212          17.250
        18.500
 97 10  3 23 16  0.0050000  0  6G14G15G22G16G25G29
   4107742.391 7   3200842.331 6  21820523.438    21820528.653          20.250
        17.750
  28454882.952 5  22172627.734 5  24730884.157    24730892.345           7.500
        10.250
    170084.087 6    134828.317 6  22997947.681    22997953.755          15.500
        17.500
   -904423.060 6   -702567.687 6  23719669.798    23719676.200          14.750
        14.000
  25698923.279 6  20025133.643 5  24150676.563    24150682.349          12.250
        11.750
  18119997.728 6  14119478.964 6  22734227.212    22734232.067          17.250
        18.500
 97 10  3 23 16 15.0050000  0  6G14G15G22G16G25G29
   4136617.017 7   3223342.044 6  21826018.149    21826023.360          20.500
        17.750
  28546205.093 5  22243787.810 5  24748262.345    24748270.497           7.500
        10.250
    184975.429 6    146431.994 6  23000781.392    23000787.466          15.500
        17.750
   -903602.984 6   -701928.649 6  23719825.728    23719832.294          14.750
        14.250
  25781406.810 5  20089406.517 5  24166372.360    24166378.063          11.750
        11.250
  18176623.409 6  14163602.870 6  22745002.907    22745007.724          17.250
        18.500
 97 10  3 23 16 30.0050000  0  6G14G15G22G16G25G29
   4165621.601 7   3245943.022 6  21831537.540    21831542.731          20.500
        17.750
  28637558.401 4  22314972.163 5  24765646.360    24765654.673           7.250
        10.000
    199996.307 6    158136.596 6  23003639.720    23003645.821          15.250
        17.750
   -902727.284 6   -701246.261 6  23719992.392    23719998.688          15.000
        14.000
  25863933.994 5  20153713.404 5  24182076.829    24182082.122          11.750
        11.250
  18233303.668 6  14207769.300 6  22755788.790    22755793.579          17.250
        18.500
 97 10  3 23 16 45.0050000  0  6G14G15G22G16G25G29
   4194752.572 7   3268642.481 6  21837080.790    21837086.228          20.500
        17.750
  28728941.433 4  22386179.682 5  24783035.657    24783043.903           7.250
        10.000
    215144.189 6    169940.172 6  23006522.235    23006528.349          15.250
        17.750
   -901798.445 6   -700522.476 6  23720169.173    23720175.474          15.000
        14.250
  25946500.314 5  20218050.786 5  24197788.493    24197794.427          11.500
        11.250
  18290036.346 6  14251976.582 6  22766584.634    22766589.497          17.250
        18.500
 97 10  3 23 17  0.0050000  0  6G14G15G22G16G25G29
   4224006.592 7   3291437.821 6  21842647.813    21842653.212          20.500
        17.750
  28820351.444 4  22457408.214 5  24800430.665    24800438.770           7.250
        10.000
    230417.409 6    181841.411 6  23009428.712    23009434.739          15.500
        17.750
   -900814.522 6   -699755.767 6  23720356.407    23720362.884          15.000
        14.250
  26029101.120 5  20282415.035 5  24213507.056    24213513.071          11.750
        11.500
  18346817.386 6  14296221.548 6  22777389.603    22777394.419          17.000
        18.500
 97 10  3 23 17 15.0050000  0  7G18G14G15G22G16G25G29
       216.99213                                  25695434.626           6.000

   4253383.056 7   3314328.582 6  21848237.931    21848243.360          20.500
        17.750
  28911791.297 4  22528660.010 5  24817831.056    24817839.036           7.250
         9.750
    245819.576 6    193843.130 6  23012359.532    23012365.696          15.500
        17.750
   -899768.724 6   -698940.838 6  23720555.259    23720561.743          15.000
        14.250
  26111739.278 5  20346808.390 5  24229232.571    24229238.106          11.750
        11.250
  18403648.818 6  14340505.778 6  22788204.220    22788209.083          17.000
        18.500
 97 10  3 23 17 30.0050000  0  7G18G14G15G22G16G25G29
      1856.731 3       426.37315  25695745.993    25695752.599           5.750
         5.500
   4282878.223 7   3337311.828 6  21853850.587    21853855.966          20.500
        17.750
  29003258.352 4  22599932.998 5  24835236.790    24835244.763           7.250
         9.750
    261346.657 6    205942.178 6  23015314.337    23015320.423          15.500
        17.750
   -898663.633 6   -698079.711 6  23720765.579    23720772.009          15.250
        14.500
  26194411.879 5  20411228.593 5  24244964.751    24244970.294          11.750
        11.000
  18460524.099 6  14384824.172 6  22799027.313    22799032.251          17.000
        18.500
 97 10  3 23 17 45.0050000  0  7G18G14G15G22G16G25G29
      3509.650 3      1714.403 5  25696060.243    25696066.810           5.750
         5.500
   4312491.318 7   3360386.973 6  21859485.876    21859491.231          20.500
        17.500
  29094753.468 4  22671227.857 5  24852647.634    24852655.681           7.250
         9.750
    276998.236 6    218138.245 6  23018292.603    23018298.665          15.750
        17.750
   -897494.384 6   -697168.590 6  23720988.079    23720994.630          15.000
        14.500
  26277120.882 5  20475677.148 5  24260703.626    24260709.282          11.500
        11.000
  18517439.612 6  14429173.924 6  22809857.938    22809862.853          17.000
        18.500
 97 10  3 23 18  0.0050000  0  7G18G14G15G22G16G25G29
      5171.720 3      3009.545 5  25696376.587    25696383.903           6.000
         5.750
   4342223.361 7   3383554.799 6  21865143.634    21865148.970          20.500
        17.500
  29186276.342 4  22742544.340 5  24870064.032    24870071.962           7.000
         9.500
    292776.027 6    230432.651 6  23021295.032    23021300.931          15.750
        17.750
   -896257.188 6   -696204.519 6  23721223.462    23721229.829          15.000
        14.500
  26359862.960 5  20540151.487 5  24276449.337    24276454.446          11.750
        10.750
  18574394.254 6  14473554.161 6  22820696.079    22820700.950          17.000
        18.250
 97 10  3 23 18 15.0050000  0  7G18G14G15G22G16G25G29
      6840.294 3      4309.783 5  25696693.954    25696700.927           6.000
         5.500
   4372075.418 7   3406816.148 6  21870824.267    21870829.696          20.500
        17.500
  29277825.907 4  22813881.630 5  24887485.188    24887493.005           7.000
         9.500
    308679.269 6    242824.824 6  23024321.157    23024327.220          15.750
        17.750
   -894948.217 6   -695184.525 6  23721472.532    23721479.067          15.250
        14.500
  26442638.524 5  20604651.924 5  24292200.954    24292206.196          11.750
        11.000
  18631391.344 6  14517967.476 6  22831542.321    22831547.118          17.000
        18.250
 97 10  3 23 18 30.0050000  0  7G18G14G15G22G16G25G29
      8519.179 3      5618.025 5  25697012.860    25697019.954           6.000
         5.500
   4402051.796 7   3430174.372 6  21876528.673    21876533.895          20.500
        17.500
  29369405.130 4  22885242.023 5  24904912.243    24904920.142           7.000
         9.500
    324708.104 6    255314.854 6  23027371.313    23027377.294          15.750
        17.750
   -893562.451 6   -694104.688 6  23721736.290    23721742.903          15.250
        14.750
  26525451.848 5  20669181.771 5  24307959.485    24307965.353          11.500
        11.000
  18688435.042 6  14562417.110 6  22842397.532    22842402.130          17.000
        18.250
 97 10  3 23 18 45.0050000  0  7G18G14G15G22G16G25G29
     10202.545 3      6929.779 5  25697333.251    25697339.911           5.750
         5.500
   4432148.153 7   3453626.077 6  21882255.923    21882261.060          20.500
        17.500
  29461008.903 4  22956621.555 5  24922343.931    24922351.735           6.750
         9.500
    340858.597 6    267899.680 6  23030444.806    23030450.657          15.750
        17.750
   -892105.371 6   -692969.285 6  23722013.501    23722020.005          15.250
        14.750
  26608296.597 5  20733736.100 5  24323724.821    24323730.329          11.750
        11.000
  18745517.053 6  14606896.596 6  22853259.767    22853264.423          17.250
        18.250
 97 10  3 23 19  0.0050000  0  7G18G14G15G22G16G25G29
     11891.049 3      8245.533 5  25697654.845    25697661.216           6.000
         5.250
   4462365.767 7   3477172.275 6  21888006.001    21888011.118          20.500
        17.500
  29552638.350 4  23028021.082 5  24939780.009    24939788.243           6.750
         9.250
    357135.881 6    280583.306 6  23033542.282    23033548.099          16.000
        17.750
   -890573.506 6   -691775.599 6  23722305.149    23722311.520          15.250
        14.750
  26691176.457 5  20798317.801 5  24339496.267    24339501.560          11.750
        11.000
  18802637.015 6  14651405.655 6  22864129.274    22864134.118          17.000
        18.250
 97 10  3 23 19 15.0050000  0  7G18G14G15G22G16G25G29
     13584.766 3      9565.335 5  25697977.220    25697982.634           6.000
         5.000
   4492710.046 7   3500817.171 6  21893780.290    21893785.571          20.500
        17.500
  29644295.891 4  23099442.494 5  24957222.384    24957230.243           6.500
         9.250
    373543.119 6    293368.194 6  23036664.509    23036670.407          16.000
        17.750
   -888964.642 6   -690521.925 6  23722611.267    23722617.716          15.250
        14.750
  26774096.890 5  20862931.106 5  24355275.431    24355280.755          11.750
        10.750
  18859798.272 6  14695946.887 6  22875006.681    22875011.595          17.000
        18.250
 97 10  3 23 19 30.0050000  0  7G18G14G15G22G16G25G29
     15276.971 4     10883.977 5  25698299.243    25698305.145           6.250
         5.250
   4523178.739 7   3524559.012 6  21899578.360    21899583.587          20.500
        17.500
  29735974.425 4  23170880.273 5  24974668.298    24974676.251           6.500
         9.250
    390074.733 6    306249.996 6  23039810.376    23039816.228          16.000
        17.750
   -887289.126 6   -689216.310 6  23722930.321    23722936.497          15.250
        14.750
  26857050.902 5  20927570.589 5  24371060.962    24371066.392          11.750
        10.750
  18916993.657 6  14740514.718 6  22885890.563    22885895.438          17.000
        18.250
 97 10  3 23 19 45.0050000  0  7G18G14G15G22G16G25G29
     16973.755 3     12206.170 5  25698621.962    25698628.325           6.000
         5.250
   4553781.966 7   3548405.689 6  21905401.845    21905407.138          20.500
        17.250
  29827678.819 4  23242338.196 5  24992118.673    24992127.099           6.500
         9.250
    406737.744 6    319234.188 6  23042981.001    23042987.087          16.000
        17.750
   -885541.327 6   -687854.379 6  23723262.665    23723269.130          15.250
        14.750
  26940043.629 5  20992240.252 5  24386854.290    24386859.759          11.750
        11.000
  18974227.635 6  14785112.619 6  22896782.087    22896786.876          17.250
        18.500
 97 10  3 23 20  0.0050000  0  7G18G14G15G22G16G25G29
     18672.521 4     13529.936 5  25698945.423    25698951.931           6.250
         5.500
   4584518.729 7   3572356.418 6  21911250.821    21911256.200          20.500
        17.500
  29919407.246 4  23313814.856 5  25009574.157    25009582.638           6.250
         9.250
    423532.602 6    332321.121 6  23046176.962    23046182.966          16.000
        17.750
   -883720.891 6   -686435.835 6  23723609.001    23723615.556          15.250
        15.000
  27023072.069 5  21056937.713 5  24402654.290    24402659.532          11.750
        11.000
  19031502.459 6  14829742.348 6  22907680.962    22907685.829          17.250
        18.500
 97 10  3 23 20 15.0050000  0  7G18G14G15G22G16G25G29
     20370.672 3     14853.193 5  25699268.360    25699275.321           6.000
         5.500
   4615385.042 7   3596408.088 6  21917124.485    21917129.856          20.500
        17.500
  30011156.238 4  23385307.525 5  25027033.454    25027041.946           6.250
         9.250
    440454.017 6    345506.661 6  23049397.017    23049402.911          16.000
        17.750
   -881834.361 6   -684965.793 6  23723968.009    23723974.431          15.250
        14.750
  27106132.452 5  21121660.073 5  24418460.095    24418465.302          11.750
        11.000
  19088817.798 6  14874403.643 6  22918587.821    22918592.509          17.500
        18.500
 97 10  3 23 20 30.0050000  0  7G18G14G15G22G16G25G29
     22078.182 4     16183.753 5  25699593.462    25699600.313           6.250
         5.750
   4646385.815 7   3620564.540 6  21923023.774    21923029.181          20.750
        17.500
  30102933.283 4  23456822.068 5  25044498.142    25044506.505           6.250
         9.500
    457508.365 6    358795.789 6  23052642.438    23052648.224          16.250
        17.750
   -879876.315 6   -683440.022 6  23724340.751    23724346.935          15.250
        15.000
  27189234.241 5  21186414.704 5  24434273.478    24434278.782          11.500
        10.750
  19146181.076 6  14919102.298 6  22929503.688    22929508.438          17.500
        18.500
 97 10  3 23 20 45.0050000  0  7G18G14G15G22G16G25G29
     23789.627 3     17517.373 5  25699919.103    25699925.942           6.000
         5.500
   4677513.008 7   3644819.492 6  21928947.181    21928952.563          20.750
        17.500
  30194731.790 4  23528353.323 5  25061966.946    25061975.493           6.500
         9.500
    474691.871 6    372185.558 6  23055912.298    23055918.130          16.000
        17.750
   -877853.118 6   -681863.491 6  23724725.579    23724731.966          15.250
        15.000
  27272368.700 5  21251194.785 5  24450093.634    24450098.978          11.750
        10.750
  19203583.443 6  14963831.416 6  22940426.915    22940431.751          17.500
        18.500
 97 10  3 23 21  0.0050000  0  7G18G14G15G22G16G25G29
     25500.668 4     18850.715 5  25700245.165    25700251.677           6.250
         5.500
   4708761.771 7   3669169.186 6  21934893.501    21934898.966          20.750
        17.500
  30286546.703 4  23599897.377 5  25079438.813    25079447.255           6.500
         9.500
    492001.733 6    385673.785 6  23059206.259    23059212.122          16.250
        17.750
   -875767.256 6   -680238.128 6  23725122.501    23725128.825          15.250
        15.000
  27355529.919 5  21315995.726 5  24465918.806    24465924.122          11.500
        10.750
  19261021.629 6  15008588.441 6  22951357.228    22951361.970          17.500
        18.500
 97 10  3 23 21 15.0050000  0  7G18G14G15G22G16G25G29
     27220.260 4     20190.683 5  25700572.071    25700578.005           6.250
         5.500
   4740142.210 7   3693621.474 6  21940865.095    21940870.481          21.000
        17.500
  30378385.520 4  23671460.046 5  25096915.142    25096923.673           6.500
         9.750
    509443.502 6    399264.800 6  23062525.188    23062531.036          16.000
        17.750
   -873608.468 6   -678555.936 6  23725533.313    23725539.630          15.250
        15.000
  27438724.623 5  21380822.758 5  24481750.251    24481755.220          11.500
        10.500
  19318505.635 6  15053381.162 6  22962295.704    22962300.524          17.500
        18.250
 97 10  3 23 21 30.0050000  0  7G18G14G15G22G16G25G29
     28944.944 4     21534.622 5  25700900.087    25700906.720           6.250
         5.500
   4771650.260 7   3718173.207 6  21946860.837    21946866.208          21.000
        17.500
  30470244.475 4  23743038.402 5  25114395.493    25114403.954           6.500
         9.500
    527013.998 6    412956.119 6  23065868.892    23065874.716          16.000
        18.000
   -871380.988 6   -676820.225 6  23725957.079    23725963.360          15.250
        14.750
  27521945.449 5  21445670.139 5  24497585.962    24497591.739          11.250
        10.750
  19376030.800 6  15098205.962 6  22973242.634    22973247.423          17.500
        18.250
 97 10  3 23 21 45.0050000  0  7G18G14G15G22G16G25G29
     30676.110 4     22883.636 5  25701229.681    25701236.157           6.250
         5.500
   4803287.382 7   3742825.509 6  21952881.087    21952886.442          21.000
        17.500
  30562124.987 4  23814633.568 5  25131879.853    25131888.282           6.500
         9.500
    544715.670 6    426749.653 6  23069237.079    23069242.978          16.000
        18.000
   -869081.345 6   -675028.277 6  23726394.532    23726400.942          15.250
        15.000
  27605193.886 5  21510539.040 5  24513428.024    24513433.923          11.250
        10.750
  19433599.012 6  15143064.303 6  22984197.509    22984202.259          17.750
        18.250
 97 10  3 23 22  0.0050000  0  7G18G14G15G22G16G25G29
     32408.926 4     24233.905 5  25701559.134    25701565.079           6.250
         5.500
   4835048.653 7   3767574.555 6  21958925.134    21958930.470          21.000
        17.250
  30654025.629 4  23886244.410 5  25149367.743    25149376.313           6.500
         9.500
    562547.255 6    440644.413 6  23072630.329    23072636.333          16.000
        18.000
   -866707.945 6   -673178.856 6  23726846.048    23726852.614          15.250
        15.000
  27688469.856 5  21575429.392 5  24529275.063    24529280.200          11.250
        10.500
  19491211.564 6  15187957.202 6  22995160.845    22995165.540          17.750
        18.250
 97 10  3 23 22 15.0050000  0  7G18G14G15G22G16G25G29
     34143.152 4     25585.289 5  25701889.915    25701895.126           6.500
         5.500
   4866932.395 7   3792419.034 6  21964992.579    21964997.782          21.000
        17.250
  30745946.710 4  23957871.186 5  25166859.970    25166868.153           6.500
         9.500
    580510.146 6    454641.496 6  23076048.563    23076054.446          16.000
        18.000
   -864259.027 6   -671270.582 6  23727312.110    23727318.532          15.250
        15.000
  27771774.566 5  21640342.135 5  24545127.243    24545132.626          11.000
        10.500
  19548872.090 6  15232887.483 6  23006133.415    23006138.067          18.000
        18.250
 97 10  3 23 22 30.0050000  0  7G18G14G15G22G16G25G29
     35880.703 4     26939.265 5  25702219.946    25702226.099           6.250
         5.500
   4898939.406 7   3817359.566 6  21971083.290    21971088.485          21.000
        17.000
  30837887.254 4  24029513.130 5  25184355.446    25184363.974           6.250
         9.250
    598604.489 6    468741.011 6  23079491.790    23079497.669          16.000
        18.000
   -861738.977 6   -669306.903 6  23727791.657    23727798.075          15.250
        15.000
  27855108.946 5  21705278.011 5  24560985.267    24560990.645          11.000
        10.500
  19606580.212 6  15277854.846 6  23017114.946    23017119.587          18.000
        18.250
 97 10  3 23 22 45.0050000  0  7G18G14G15G22G16G25G29
     37624.321 4     28297.949 5  25702551.540    25702556.966           6.250
         5.500
   4931074.391 7   3842399.816 6  21977198.321    21977203.470          21.250
        17.250
  30929849.211 4  24101171.746 5  25201855.110    25201863.423           6.250
         9.000
    616835.731 6    482947.190 6  23082961.079    23082967.024          16.000
        18.000
   -859143.563 6   -667284.479 6  23728285.446    23728291.942          15.250
        15.000
  27938475.554 5  21770238.995 5  24576849.220    24576855.161          11.000
        10.500
  19664338.266 6  15322861.124 6  23028105.892    23028110.579          18.000
        18.250
 97 10  3 23 23  0.0050000  0  7G18G14G15G22G16G25G29
     39366.468 3     29655.520 5  25702882.321    25702889.423           6.000
         5.500
   4963332.067 7   3867535.669 6  21983336.618    21983341.954          21.000
        17.000
  31021824.350 4  24172840.645 5  25219357.485    25219365.884           6.250
         9.000
    635197.013 6    497254.701 6  23086455.142    23086461.009          16.000
        18.000
   -856481.983 6   -665210.506 6  23728792.087    23728798.536          15.250
        15.250
  28021866.162 5  21835218.658 5  24592717.915    24592723.880          10.750
        10.500
  19722138.752 6  15367900.455 6  23039104.931    23039109.540          18.000
        18.250
 97 10  3 23 23 15.0050000  0  7G18G14G15G22G16G25G29
     41109.311 3     31013.613 5  25703214.321    25703221.251           6.000
         5.750
   4995714.904 7   3892769.054 6  21989498.782    21989503.958          21.000
        17.000
  31113815.332 3  24244521.888 5  25236862.892    25236870.892           6.000
         8.750
    653690.358 6    511665.124 6  23089974.243    23089980.114          16.000
        18.000
   -853755.057 6   -663085.611 6  23729310.923    23729317.310          15.250
        15.250
  28105285.133 5  21900220.445 5  24608592.407    24608597.728          11.250
        10.250
  19779984.879 6  15412975.357 6  23050112.634    23050117.278          18.000
        18.250
 97 10  3 23 23 30.0050000  0  7G18G14G15G22G16G25G29
     42851.240 4     32370.990 5  25703545.931    25703551.974           6.250
         5.500
   5028222.573 7   3918099.710 6  21995684.720    21995689.872          21.000
        17.000
  31205822.160 3  24316215.471 5  25254371.040    25254379.505           6.000
         8.750
    672317.411 6    526179.735 6  23093518.743    23093524.794          16.000
        18.250
   -850964.816 6   -660911.380 6  23729841.907    23729848.278          15.250
        15.250
  28188732.945 5  21965244.698 5  24624471.899    24624477.298          11.000
        10.250
  19837875.127 6  15458084.640 6  23061128.743    23061133.489          18.000
        18.250
 97 10  3 23 23 45.0050000  0  7G18G14G15G22G16G25G29
     44595.327 4     33730.049 5  25703878.079    25703884.669           6.250
         5.750
   5060858.406 7   3943530.236 6  22001895.142    22001900.548          21.000
        17.000
  31297848.218 3  24387924.052 5  25271882.946    25271891.317           6.000
         8.750
    691081.968 6    540801.490 6  23097089.517    23097095.513          16.000
        18.250
   -848107.799 6   -658685.111 6  23730385.751    23730392.028          15.500
        15.250
  28272214.912 5  22030295.578 5  24640357.978    24640363.282          11.000
        10.250
  19895812.790 6  15503230.861 6  23072153.751    23072158.505          18.000
        18.500
 97 10  3 23 24  0.0050000  0  7G18G14G15G22G16G25G29
     46342.627 4     35091.627 5  25704210.767    25704216.868           6.250
         5.750
   5093620.427 7   3969059.082 6  22008129.618    22008134.899          21.000
        17.000
  31389892.122 3  24459646.519 5  25289398.399    25289406.810           6.000
         8.750
    709981.857 6    555528.696 6  23100686.056    23100692.005          16.000
        18.250
   -845184.204 6   -656406.975 6  23730942.095    23730948.407          15.500
        15.250
  28355730.408 5  22095372.563 5  24656250.204    24656256.204          10.500
        10.250
  19953798.264 6  15548414.345 6  23083188.212    23083192.962          18.000
        18.500
 97 10  3 23 24 15.0050000  0  7G18G14G15G22G16G25G29
     48099.865 4     36460.946 5  25704543.954    25704550.466           6.250
         5.750
   5126512.531 7   3994689.296 6  22014388.759    22014394.110          21.000
        17.000
  31481957.366 3  24531385.629 5  25306918.095    25306926.220           6.000
         8.750
    729019.343 6    570363.117 6  23104308.798    23104314.696          16.000
        18.250
   -842189.283 6   -654073.255 6  23731511.978    23731518.395          15.750
        15.500
  28439281.630 5  22160477.399 5  24672149.759    24672155.368          10.750
        10.250
  20011834.855 6  15593637.662 6  23094232.290    23094236.942          18.000
        18.250
 97 10  3 23 24 30.0050000  0  7G18G14G15G22G16G25G29
     49858.608 4     37831.426 5  25704879.353    25704885.856           6.500
         5.750
   5159525.717 7   4020413.855 6  22020671.056    22020676.395          21.000
        17.000
  31574032.268 3  24603132.263 5  25324439.462    25324447.638           6.000
         8.750
    748180.422 6    585293.854 6  23107954.907    23107960.966          16.000
        18.250
   -839136.737 6   -651694.631 6  23732092.907    23732099.286          15.750
        15.500
  28522856.017 5  22225600.279 5  24688053.767    24688058.630          11.000
        10.000
  20069907.747 6  15638889.263 6  23105283.267    23105287.895          18.000
        18.500
 97 10  3 23 24 45.0050000  0  7G18G14G15G22G16G25G29
     51625.744 4     39208.457 5  25705215.368    25705221.810           6.250
         5.750
   5192668.051 7   4046239.054 6  22026977.782    22026983.114          21.000
        17.000
  31666124.310 3  24674892.248 5  25341964.048    25341972.259           6.000
         8.750
    767471.890 6    600326.183 6  23111626.118    23111631.978          16.250
        18.250
   -836017.065 6   -649263.700 6  23732686.556    23732692.845          15.750
        15.500
  28606459.999 5  22290746.234 5  24703962.571    24703968.368          10.750
        10.000
  20128020.837 6  15684172.184 6  23116341.571    23116346.270          18.000
        18.250
 97 10  3 23 25  0.0060000  0  7G18G14G15G22G16G25G29
     53397.627 4     40589.170 5  25705552.732    25705559.045           6.250
         5.750
   5225938.655 7   4072164.196 6  22033309.107    22033314.432          21.000
        17.000
  31758237.068 3  24746668.382 5  25359492.795    25359501.193           6.000
         8.750
    786894.509 6    615460.715 6  23115322.154    23115327.853          16.250
        18.250
   -832829.140 6   -646779.588 6  23733293.100    23733299.619          15.750
        15.750
  28690096.772 5  22355917.723 5  24719877.951    24719884.080          10.750
        10.250
  20186174.199 6  15729486.491 6  23127407.936    23127412.658          18.000
        18.250
 97 10  3 23 25 15.0060000  0  7G18G14G15G22G16G25G29
     55173.837 4     41973.258 5  25705890.131    25705897.822           6.250
         6.000
   5259333.048 7   4098185.806 6  22039663.787    22039669.119          21.000
        17.000
  31850358.974 3  24818451.636 5  25377023.170    25377031.471           6.000
         9.000
    806446.549 6    630696.091 6  23119042.654    23119048.494          16.250
        18.250
   -829570.051 6   -644240.020 6  23733913.295    23733919.814          15.750
        15.750
  28773755.773 5  22421106.529 5  24735798.045    24735803.693          10.750
        10.000
  20244362.168 6  15774827.756 6  23138480.740    23138485.400          18.000
        18.250
 97 10  3 23 25 30.0060000  0  7G18G14G15G22G16G25G29
     56955.824 4     43361.869 5  25706229.287    25706236.674           6.250
         6.000
   5292859.579 7   4124310.383 6  22046043.654    22046049.021          21.000
        17.000
  31942499.470 3  24890249.384 5  25394556.857    25394565.373           6.000
         9.000
    826134.345 6    646037.252 6  23122789.326    23122795.146          16.500
        18.500
   -826232.796 6   -641639.547 6  23734548.459    23734554.728          16.000
        15.750
  28857444.972 5  22486318.893 5  24751723.678    24751728.889          10.750
         9.750
  20302592.658 6  15820202.164 6  23149561.670    23149566.353          18.000
        18.250
 97 10  3 23 25 45.0060000  0  7G18G14G15G22G16G25G29
     58741.006 4     44752.958 5  25706568.693    25706576.478           6.250
         6.000
   5326515.737 7   4150535.964 6  22052448.279    22052453.686          21.000
        17.000
  32034653.262 3  24962057.482 5  25412093.053    25412101.760           6.000
         9.250
    845955.306 6    661482.176 6  23126560.928    23126566.771          16.500
        18.250
   -822818.374 6   -638978.950 6  23735198.037    23735204.576          16.000
        15.750
  28941156.252 5  22551548.438 5  24767653.607    24767658.666          11.000
         9.750
  20360861.248 6  15865606.257 6  23160649.826    23160654.525          17.750
        18.250
 97 10  3 23 26  0.0060000  0  7G18G14G15G22G16G25G29
     60527.221 4     46144.848 5  25706909.420    25706915.959           6.500
         6.000
   5360298.780 7   4176860.414 6  22058876.795    22058882.123          21.000
        17.000
  32126817.024 3  25033873.356 5  25429631.670    25429639.986           6.000
         9.250
    865907.033 6    677028.998 6  23130357.693    23130363.432          16.500
        18.250
   -819327.901 6   -636259.080 6  23735862.279    23735868.803          16.000
        15.750
  29024885.338 5  22616791.865 5  24783586.514    24783592.166          11.000
        10.000
  20419166.167 6  15911038.654 6  23171744.818    23171749.557          17.750
        18.500
 97 10  3 23 26 15.0060000  0  7G18G14G15G22G16G25G29
     62320.767 4     47542.452 5  25707250.248    25707257.357           6.500
         6.000
   5394217.530 7   4203290.613 6  22065331.396    22065336.736          21.000
        17.000
  32218998.119 3  25105702.730 5  25447172.740    25447181.619           6.000
         9.250
    885997.946 6    692684.276 6  23134180.756    23134186.451          16.750
        18.250
   -815753.108 6   -633473.510 6  23736542.350    23736548.943          16.000
        15.750
  29108638.202 5  22682053.825 5  24799523.764    24799529.518          10.750
         9.750
  20477515.509 6  15956505.670 6  23182848.256    23182853.100          17.750
        18.250
 97 10  3 23 26 30.0060000  0  7G18G14G15G22G16G25G29
     64114.411 4     48940.136 5  25707592.029    25707598.994           6.500
         6.000
   5428270.261 7   4229825.211 6  22071811.498    22071816.811          21.250
        17.000
  32311192.077 3  25177542.140 5  25464716.904    25464725.584           6.000
         9.250
    906225.976 6    708446.397 6  23138030.162    23138035.830          16.750
        18.500
   -812099.232 6   -630626.318 6  23737237.615    23737244.103          16.000
        15.750
  29192413.124 5  22747332.967 5  24815466.396    24815471.490          11.000
        10.000
  20535904.249 6  16002003.386 6  23193959.209    23193964.080          17.750
        18.250
 97 10  3 23 26 45.0060000  0  7G18G14G15G22G16G25G29
     65910.259 4     50339.518 5  25707933.420    25707940.209           6.250
         6.000
   5462459.633 7   4256466.285 6  22078317.342    22078322.592          21.000
        17.000
  32403402.032 3  25249394.007 5  25482263.787    25482272.537           6.000
         9.250
    926600.508 6    724322.676 6  23141907.186    23141912.889          16.750
        18.500
   -808361.923 6   -627714.115 6  23737948.857    23737955.174          16.250
        15.750
  29276213.306 5  22812631.798 5  24831412.865    24831418.533          11.250
        10.000
  20594337.427 6  16047535.729 6  23205078.873    23205083.588          17.750
        18.250
 97 10  3 23 27  0.0060000  0  7G18G14G15G22G16G25G29
     67707.568 4     51740.054 5  25708275.740    25708282.275           6.250
         6.000
   5496787.464 7   4283215.241 6  22084849.771    22084855.096          21.000
        17.000
  32495628.299 3  25321258.565 5  25499813.498    25499822.748           6.000
         9.000
    947126.818 6    740317.220 6  23145813.303    23145818.967          16.750
        18.500
   -804538.311 6   -624734.668 6  23738676.287    23738682.838          16.250
        15.750
  29360039.439 5  22877950.840 5  24847364.561    24847369.936          11.250
         9.750
  20652819.178 6  16093105.914 6  23216207.420    23216212.182          17.750
        18.250
 97 10  3 23 27 15.0060000  0  7G18G14G15G22G16G25G29
     69506.841 4     53142.132 5  25708617.826    25708624.752           6.500
         6.000
   5531256.462 7   4310074.206 6  22091409.029    22091414.287          21.000
        17.000
  32587870.422 3  25393135.498 5  25517366.771    25517375.537           6.000
         9.000
    967804.472 6    756429.704 6  23149747.990    23149753.670          16.750
        18.500
   -800629.129 6   -621688.530 6  23739420.357    23739426.646          16.500
        15.750
  29443893.041 5  22943291.310 5  24863321.467    24863326.225          11.000
         9.500
  20711352.822 6  16138716.553 6  23227346.037    23227350.771          17.750
        18.250
 97 10  3 23 27 30.0060000  0  7G18G14G15G22G16G25G29
     71305.106 4     54543.406 5  25708960.271    25708966.654           6.500
         6.000
   5565864.942 7   4337041.859 6  22097994.748    22098000.045          21.000
        16.750
  32680125.814 3  25465022.770 5  25534922.326    25534931.334           6.000
         8.750
    988629.973 6    772657.386 6  23153710.881    23153716.545          16.750
        18.500
   -796637.598 6   -618578.231 6  23740179.943    23740186.135          16.250
        15.750
  29527770.653 5  23008650.473 5  24879282.764    24879287.795          11.000
         9.500
  20769934.422 6  16184364.537 6  23238493.795    23238498.490          17.750
        18.250
 97 10  3 23 27 45.0060000  0  7G18G14G15G22G16G25G29
     73103.850 4     55945.048 5  25709302.561    25709309.049           6.500
         6.000
   5600611.497 7   4364117.094 6  22104606.811    22104612.029          21.000
        16.750
  32772393.624 3  25536919.726 5  25552480.482    25552489.057           6.000
         8.500
   1009603.113 6    789000.112 6  23157702.061    23157707.725          16.750
        18.500
   -792565.458 6   -615405.125 6  23740954.811    23740961.014          16.500
        15.750
  29611673.067 5  23074028.959 5  24895248.701    24895254.600          10.750
        10.000
  20828562.363 6  16230048.643 6  23249650.287    23249655.068          17.500
        18.250
 97 10  3 23 28  0.0060000  0  7G18G14G15G22G16G25G29
     74906.336 4     57349.625 5  25709645.623    25709651.728           6.500
         6.000
   5635497.289 7   4391300.831 6  22111245.420    22111250.600          21.250
        16.750
  32864677.184 3  25608828.937 5  25570041.326    25570050.240           6.000
         8.500
   1030723.836 6    805457.840 6  23161721.209    23161726.881          16.750
        18.500
   -788410.258 6   -612167.294 6  23741745.537    23741751.635          16.500
        15.750
  29695606.694 5  23139431.769 5  24911221.029    24911226.428          11.000
        10.000
  20887240.121 6  16275771.563 6  23260816.240    23260821.127          17.500
        18.250
 97 10  3 23 28 15.0060000  0  7G18G14G15G22G16G25G29
     76710.661 4     58755.615 5  25709988.498    25709995.115           6.500
         6.000
   5670519.082 7   4418590.546 6  22117909.842    22117915.084          21.250
        17.000
  32956974.685 3  25680749.028 5  25587605.123    25587613.564           6.000
         8.250
   1051987.962 6    822027.306 6  23165767.498    23165773.252          16.750
        18.500
   -784175.259 6   -608867.282 6  23742551.506    23742557.385          16.750
        16.000
  29779574.258 5  23204861.020 5  24927199.311    24927205.061          10.750
        10.000
  20945966.950 6  16321532.724 6  23271991.600    23271996.373          17.500
        18.250
 97 10  3 23 28 30.0060000  0  7G18G14G15G22G16G25G29
     78513.494 4     60160.454 5  25710332.271    25710338.400           6.500
         6.000
   5705672.050 7   4445982.470 6  22124599.232    22124604.436          21.250
        17.000
  33049279.959 3  25752675.172 5  25605170.350    25605178.885           6.000
         8.250
   1073390.331 6    838704.502 6  23169840.287    23169845.881          16.750
        18.750
   -779867.980 6   -605510.938 6  23743371.029    23743377.127          16.750
        16.000
  29863571.902 5  23270313.711 5  24943183.514    24943188.947          10.500
         9.500
  21004737.376 6  16367327.857 6  23283175.217    23283179.904          17.500
        18.250
 97 10  3 23 28 45.0060000  0  7G18G14G15G22G16G25G29
     80327.272 4     61573.818 5  25710676.256    25710682.623           6.250
         6.000
   5740964.723 7   4473483.255 6  22131315.115    22131320.428          21.250
        17.000
  33141602.660 3  25824614.893 5  25622738.928    25622747.291           5.750
         8.250
   1094941.630 6    855497.743 6  23173941.311    23173947.084          16.750
        18.500
   -775478.031 6   -602090.189 6  23744206.498    23744212.416          16.750
        16.000
  29947609.868 5  23335797.832 5  24959175.186    24959180.674          10.000
         9.500
  21063560.368 6  16413163.951 6  23294368.998    23294373.799          17.500
        18.500
 97 10  3 23 29  0.0060000  0  7G18G14G15G22G16G25G29
     82148.982 4     62993.360 5  25711023.639    25711029.998           6.500
         6.000
   5776392.985 7   4501089.698 6  22138057.029    22138062.346          21.250
        17.000
  33233937.456 3  25896564.027 5  25640309.873    25640318.084           5.750
         8.000
   1116634.839 6    872401.563 6  23178069.357    23178075.135          16.750
        18.750
   -771009.699 6   -598608.362 6  23745056.896    23745062.693          17.000
        16.000
  30031683.006 5  23401309.347 5  24975173.475    24975179.420          10.000
         9.500
  21122431.399 6  16459037.475 6  23305571.834    23305576.619          17.500
        18.500
 97 10  3 23 29 15.0060000  0  7G18G14G15G22G16G25G29
     83979.590 4     64419.831 5  25711371.607    25711378.217           6.250
         6.250
   5811957.403 7   4528802.233 6  22144824.732    22144830.037          21.250
        17.000
  33326283.791 3  25968522.156 5  25657882.654    25657891.080           5.750
         8.000
   1138464.513 6    889411.722 6  23182223.396    23182229.080          16.750
        18.750
   -766464.964 6   -595066.998 6  23745921.701    23745927.541          17.000
        16.000
  30115793.288 5  23466849.809 5  24991179.396    24991185.303          10.250
         9.750
  21181348.177 6  16504946.650 6  23316783.279    23316788.018          17.500
        18.250
 97 10  3 23 29 30.0060000  0  7G18G14G15G22G16G25G29
     85822.447 4     65855.864 5  25711722.576    25711728.744           6.250
         6.000
   5847656.344 7   4556619.588 6  22151617.943    22151623.244          21.250
        17.000
  33418641.752 3  26040489.357 5  25675457.795    25675466.311           5.750
         8.000
   1160429.832 6    906527.583 6  23186403.217    23186408.955          16.750
        19.000
   -761843.500 6   -591465.838 6  23746801.123    23746807.154          16.750
        16.000
  30199941.140 5  23532419.543 5  25007192.365    25007198.623          10.250
         9.750
  21240308.469 6  16550889.725 6  23328002.990    23328007.807          17.500
        18.500
 97 10  3 23 29 45.0060000  0  7G18G14G15G22G16G25G29
     87675.697 4     67299.983 5  25712075.014    25712081.010           6.500
         6.000
   5883483.682 7   4584536.997 6  22158435.701    22158441.037          21.250
        17.000
  33511008.409 3  26112463.326 5  25693034.709    25693043.111           5.750
         8.000
   1182529.005 6    923747.731 6  23190608.514    23190614.232          16.750
        19.000
   -757146.445 6   -587805.788 6  23747694.928    23747701.037          17.000
        16.250
  30284121.643 5  23598014.706 5  25023211.092    25023216.959           9.750
         9.500
  21299309.164 6  16596864.293 6  23339230.482    23339235.299          17.500
        18.250
 97 10  3 23 30  0.0060000  0  7G18G14G15G22G16G25G29
     89541.065 4     68753.542 5  25712429.998    25712436.279           6.500
         6.250
   5919442.698 7   4612557.005 6  22165278.428    22165283.846          21.000
        17.000
  33603384.548 3  26184444.685 5  25710613.584    25710621.752           5.750
         8.000
   1204763.467 6    941073.316 6  23194839.498    23194845.303          16.750
        19.000
   -752372.991 6   -584086.199 6  23748603.225    23748609.361          17.000
        16.250
  30368334.990 5  23663635.486 5  25039236.475    25039242.252           9.750
         9.250
  21358353.192 6  16642872.627 6  23350466.217    23350471.064          17.500
        18.250
 97 10  4  0 47 45.0060000  4  2
END OF STATIC OBSERVATION                                   COMMENT
1.305                                                       COMMENT
 97 10  4  0 47 45.0060000  0  6G18G14G19G22G16G29
   1361219.124 6   1059677.516 6  23556078.271    23556083.342          16.750
        15.250
  23805487.101 6  18549733.052 6  23170540.873    23170546.482          18.250
        20.000
    784459.39815    611835.49415  24687273.170    24687279.408           9.750
        11.000
  15462454.797 6  12050965.367 6  23509646.186    23509651.478          16.000
        16.000
   6058407.974 6   4723017.888 6  22646310.607    22646316.217          19.500
        20.250
  42126144.794 5  32825564.817 5  24904107.701    24904113.033           9.000
        10.500
 97 10  4  0 48  0.0060000  0  6G18G14G19G22G16G29
   1369295.990 6   1065971.184 6  23557614.936    23557620.100          16.500
        15.250
  23883366.003 6  18610417.901 6  23185360.654    23185366.295          18.250
        20.000
    793183.851 5    618633.779 5  24688933.225    24688939.568           9.750
        11.000
  15531353.198 6  12104652.435 6  23522757.342    23522762.436          16.000
        16.250
   6100850.666 6   4756090.115 6  22654387.107    22654392.803          19.500
        20.000
  42201131.018 5  32883995.628 5  24918377.271    24918382.158           8.750
        10.500
 97 10  4  0 48 15.0060000  0  6G18G14G19G22G16G29
   1377418.151 6   1072300.161 6  23559160.779    23559165.943          16.500
        15.250
  23961358.709 6  18671191.432 6  23200202.240    23200207.803          18.000
        20.000
    801955.432 5    625468.803 5  24690602.490    24690608.869           9.750
        11.000
  15600384.487 6  12158443.047 6  23535893.475    23535898.611          16.000
        16.000
   6143439.737 6   4789276.404 6  22662491.553    22662497.252          19.750
        20.000
  42276172.177 5  32942469.248 5  24932657.123    24932662.271           8.750
        10.250
 97 10  4  0 48 30.0060000  0  6G18G14G19G22G16G29
   1385588.913 6   1078667.000 6  23560715.514    23560720.760          16.500
        15.250
  24039468.393 6  18732056.104 6  23215066.014    23215071.643          18.000
        20.000
    810779.553 5    632344.760 5  24692281.678    24692287.748          10.000
        11.000
  15669551.926 6  12212339.754 6  23549055.451    23549060.654          16.000
        16.000
   6186178.107 6   4822579.029 6  22670624.490    22670630.061          19.750
        20.000
  42351273.584 5  33000989.818 5  24946948.303    24946953.529           8.500
        10.250
 97 10  4  0 48 45.0060000  0  6G18G14G19G22G16G29
   1393807.399 6   1085071.031 6  23562279.537    23562284.674          16.500
        15.500
  24117698.643 6  18793014.738 6  23229952.740    23229958.393          18.000
        20.000
    819656.712 5    639262.040 5  24693971.084    24693977.057          10.000
        11.000
  15738856.038 6  12266342.963 6  23562243.639    23562248.842          16.000
        16.000
   6229066.992 6   4855998.938 6  22678785.873    22678791.564          19.750
        20.000
  42426437.584 5  33059559.159 5  24961251.412    24961257.072           8.500
        10.000
 97 10  4  0 49  0.0060000  0  6G18G14G19G22G16G29
   1402066.155 6   1091506.432 6  23563851.139    23563856.228          16.500
        15.500
  24196046.170 6  18854064.743 6  23244861.662    23244867.428          18.000
        20.000
    828582.688 5    646217.368 5  24695669.521    24695675.643          10.000
        11.250
  15808291.676 6  12320448.658 6  23575456.928    23575462.068          16.000
        16.000
   6272099.765 6   4889530.966 6  22686974.795    22686980.494          19.750
        20.000
  42501660.839 5  33118174.676 5  24975565.646    24975571.623           8.250
        10.500
 97 10  4  0 49 15.0060000  0  6G18G14G19G22G16G29
   1410359.901 6   1097969.101 6  23565429.271    23565434.439          16.500
        15.750
  24274502.804 6  18915199.772 6  23259791.514    23259797.228          18.000
        20.000
    837558.518 5    653211.530 5  24697377.553    24697383.682          10.000
        11.000
  15877854.540 6  12374653.488 6  23588694.381    23588699.365          16.000
        16.000
   6315272.813 6   4923172.296 6  22695190.373    22695195.947          19.750
        20.000
  42576938.549 5  33176832.619 5  24989891.076    24989896.541           8.750
        10.500
 97 10  4  0 49 30.0060000  0  6G18G14G19G22G16G29
   1418692.784 6   1104462.273 6  23567014.998    23567020.197          16.500
        15.750
  24353072.770 6  18976423.108 6  23274742.803    23274748.615          17.750
        19.750
    846590.763 5    660249.655 5  24699096.217    24699102.373          10.000
        11.250
  15947551.060 6  12428962.469 6  23601957.053    23601962.154          16.000
        16.000
   6358593.324 6   4956928.541 6  22703433.943    22703439.529          19.750
        20.000
  42652274.686 5  33235536.088 5  25004227.107    25004232.404           8.750
        10.250
 97 10  4  0 49 45.0060000  0  6G18G14G19G22G16G29
   1427062.191 6   1110983.895 6  23568607.490    23568612.721          16.500
        15.750
  24431753.181 6  19037732.515 6  23289715.092    23289720.834          17.750
        19.750
    855676.057 5    667329.128 5  24700825.107    24700831.326          10.000
        11.250
  16017378.216 6  12483373.242 6  23615244.545    23615249.791          16.000
        16.000
   6402057.787 6   4990796.958 6  22711704.990    22711710.408          19.500
        20.000
  42727667.023 5  33294283.369 5  25018573.998    25018579.232           8.750
        10.000
 97 10  4  0 50  0.0070000  0  6G18G14G19G22G16G29
   1435467.436 6   1117533.449 6  23570207.159    23570212.425          16.500
        15.750
  24510544.764 6  19099128.543 6  23304708.854    23304714.519          17.750
        19.750
    864811.336 5    674447.535 5  24702563.597    24702569.839          10.000
        11.250
  16087334.701 6  12537884.790 6  23628556.933    23628562.171          16.000
        16.000
   6445664.380 6   5024776.116 6  22720002.948    22720008.554          19.750
        19.750
  42803118.542 5  33353076.742 5  25032931.862    25032937.351           9.000
        10.000
 97 10  4  0 50 15.0070000  0  6G18G14G19G22G16G29
   1443912.371 6   1124113.935 6  23571814.011    23571819.237          16.500
        16.000
  24589439.604 6  19160605.030 6  23319722.073    23319727.819          17.750
        19.750
    874000.973 5    681608.307 5  24704312.339    24704318.581          10.000
        11.250
  16157414.312 6  12592492.279 6  23641892.831    23641897.956          16.000
        15.750
   6489410.501 6   5058864.002 6  22728327.495    22728333.104          19.500
        19.750
  42878621.026 5  33411909.848 5  25047299.558    25047304.741           9.000
        10.000
 97 10  4  0 50 30.0070000  0  6G18G14G19G22G16G29
   1452399.384 6   1130727.202 6  23573429.120    23573434.362          16.750
        15.750
  24668443.774 6  19222166.711 6  23334756.050    23334761.901          17.750
        19.750
    883247.911 5    688813.727 5  24706071.995    24706078.034          10.000
        11.250
  16227623.889 6  12647201.042 6  23655253.065    23655258.233          16.000
        15.750
   6533303.430 6   5093066.281 6  22736680.058    22736685.729          19.500
        20.000
  42954180.966 5  33470787.716 5  25061677.933    25061683.042           9.000
         9.500
 97 10  4  0 50 45.0070000  0  6G18G14G19G22G16G29
   1460925.992 6   1137371.321 6  23575051.604    23575056.847          16.750
        16.000
  24747554.057 6  19283811.075 6  23349810.308    23349816.015          17.750
        19.750
    892546.943 5    696059.747 5  24707841.315    24707847.425          10.000
        11.250
  16297956.421 6  12702005.619 6  23668636.878    23668641.917          15.750
        15.750
   6577343.498 6   5127383.214 6  22745060.526    22745066.265          19.500
        20.000
  43029791.729 5  33529705.188 5  25076065.776    25076071.311           9.000
         9.500
 97 10  4  0 51  0.0070000  0  6G18G14G19G22G16G29
   1469490.811 6   1144045.214 6  23576681.644    23576686.819          16.750
        16.000
  24826768.847 6  19345536.877 6  23364884.386    23364890.026          17.750
        19.750
    901897.233 5    703345.697 5  24709620.534    24709626.597          10.000
        11.250
  16368408.718 6  12756903.512 6  23682043.597    23682048.597          16.000
        15.750
   6621529.216 6   5161813.643 6  22753468.862    22753474.585          19.500
        20.000
  43105451.481 5  33588660.839 5  25090463.659    25090469.003           9.000
         9.500
 97 10  4  0 51 15.0070000  0  6G18G14G19G22G16G29
   1478093.639 6   1150748.729 6  23578318.550    23578323.554          16.750
        16.000
  24906085.598 6  19407342.129 6  23379977.792    23379983.487          17.750
        19.750
    911298.924 5    710671.712 5  24711409.534    24711415.940          10.250
        11.500
  16438978.638 6  12811893.062 6  23695472.667    23695477.726          16.000
        15.750
   6665861.367 6   5196358.171 6  22761904.972    22761910.726          19.500
        20.000
  43181158.783 5  33647653.522 5  25104870.526    25104875.745           9.250
         9.750
 97 10  4  0 51 30.0070000  0  6G18G14G19G22G16G29
   1486731.849 6   1157479.811 6  23579962.386    23579967.519          16.750
        16.000
  24985501.577 6  19469224.703 6  23395090.284    23395095.999          17.750
        19.500
    920747.459 5    718034.227 5  24713207.675    24713213.823          10.250
        11.500
  16509662.560 6  12866971.441 6  23708923.284    23708928.561          16.000
        15.750
   6710339.150 6   5231016.180 6  22770368.761    22770374.550          19.250
        20.000
  43256911.083 5  33706681.284 5  25119285.729    25119291.054           9.250
         9.750
 97 10  4  0 51 45.0070000  0  6G18G14G19G22G16G29
   1495408.030 6   1164240.482 6  23581613.323    23581618.507          16.750
        16.000
  25065021.959 6  19531188.625 6  23410222.534    23410228.335          18.000
        19.500
    930241.549 5    725432.243 5  24715014.339    24715020.413          10.250
        11.500
  16580460.405 6  12922138.599 6  23722395.604    23722400.772          15.750
        15.750
   6754964.963 6   5265789.542 6  22778860.917    22778866.679          19.500
        20.000
  43332711.365 5  33765746.434 5  25133710.104    25133715.296           9.250
         9.750
 97 10  4  0 52  0.0070000  0  6G18G14G19G22G16G29
   1504122.385 6   1171030.900 6  23583271.620    23583276.792          16.750
        16.250
  25144644.140 6  19593231.876 6  23425374.167    23425379.878          18.000
        19.500
    939779.011 5    732864.041 5  24716829.276    24716835.452          10.500
        11.500
  16651369.882 6  12977392.733 6  23735889.097    23735894.272          15.750
        15.500
   6799737.856 6   5300677.503 6  22787380.933    22787386.776          19.500
        20.000
  43408558.384 5  33824848.003 5  25148143.433    25148148.479           9.500
         9.750
 97 10  4  0 52 15.0070000  0  6G18G14G19G22G16G29
   1512883.460 6   1177857.719 6  23584938.776    23584943.851          16.750
        16.250
  25224373.559 6  19655358.681 6  23440546.120    23440551.800          18.000
        19.500
    949365.397 5    740333.970 5  24718653.550    24718659.507          10.500
        11.500
  16722397.451 6  13032738.897 6  23749405.417    23749410.499          15.750
        15.500
   6844665.757 6   5335686.255 6  22795930.378    22795936.124          19.500
        20.000
  43484454.886 5  33883988.134 5  25162585.917    25162591.038           9.250
         9.500
 97 10  4  0 52 30.0070000  0  6G18G14G19G22G16G29
   1521686.752 6   1184717.443 6  23586614.058    23586619.108          17.000
        16.250
  25304206.859 6  19717566.449 6  23455737.925    23455743.636          18.000
        19.500
    958994.597 5    747837.261 5  24720485.854    24720492.069          10.500
        11.750
  16793540.784 6  13088175.264 6  23762943.534    23762948.655          15.750
        15.500
   6889743.338 6   5370811.640 6  22804508.417    22804514.206          19.500
        20.250
  43560396.039 5  33943163.049 5  25177036.839    25177042.112           9.000
         9.500
 97 10  4  0 52 45.0070000  0  6G18G14G19G22G16G29
   1530537.161 6   1191613.871 6  23588298.120    23588303.397          17.000
        16.250
  25384148.290 6  19779858.459 6  23470950.245    23470955.956          17.750
        19.500
    968670.261 5    755376.752 5  24722327.042    24722333.155          10.500
        11.500
  16864805.327 6  13143706.076 6  23776504.745    23776509.964          15.750
        15.750
   6934972.867 6   5406055.427 6  22813115.378    22813121.042          19.500
        20.250
  43636387.213 5  34002376.937 5  25191497.292    25191502.573           9.000
         9.250
 97 10  4  0 53  0.0070000  0  6G18G14G19G22G16G29
   1539431.894 6   1198544.840 6  23589990.597    23589995.870          17.000
        16.500
  25464194.934 6  19842232.459 6  23486182.690    23486188.300          18.000
        19.500
    978390.199 5    762950.759 5  24724176.597    24724182.862          10.500
        11.750
  16936191.391 6  13199331.576 6  23790088.987    23790094.296          15.750
        15.750
   6980347.512 6   5441412.287 6  22821749.870    22821755.519          19.500
        20.000
  43712427.146 5  34061628.829 5  25205967.308    25205972.292           9.000
         9.500
 97 10  4  0 53 15.0070000  0  6G18G14G19G22G16G29
   1548374.810 6   1205513.358 6  23591692.409    23591697.640          17.000
        16.250
  25544351.829 6  19904692.367 6  23501435.917    23501441.597          18.000
        19.250
    988161.222 5    770564.565 5  24726036.065    24726042.253          10.500
        11.750
  17007704.945 6  13255056.424 6  23803697.659    23803702.745          15.750
        15.500
   7025869.917 6   5476884.288 6  22830412.604    22830418.175          19.500
        20.250
  43788522.361 5  34120923.807 5  25220448.339    25220452.925           9.000
         9.500
 97 10  4  0 53 30.0070000  0  6G18G14G19G22G16G29
   1557367.761 6   1212520.861 6  23593403.745    23593408.901          17.250
        16.500
  25624618.356 6  19967237.703 6  23516710.300    23516715.866          18.000
        19.250
    997982.547 5    778217.557 5  24727905.050    24727911.081          10.500
        11.750
  17079349.212 6  13310883.126 6  23817331.151    23817336.112          15.750
        15.250
   7071540.800 6   5512471.990 6  22839103.550    22839109.093          19.750
        20.250
  43864671.904 5  34180261.099 5  25234939.019    25234943.886           9.000
         9.500
 97 10  4  0 53 45.0070000  0  6G18G14G19G22G16G29
   1566411.646 6   1219568.048 6  23595124.862    23595129.870          17.500
        16.250
  25704993.455 6  20029867.640 6  23532005.214    23532010.769          18.000
        19.250
   1007852.875 5    785908.741 5  24729783.097    24729789.339          10.500
        11.750
  17151125.399 6  13366812.623 6  23830989.690    23830994.679          15.750
        15.250
   7117358.407 6   5548174.017 6  22847822.354    22847827.776          19.750
        20.000
  43940875.388 5  34239640.433 5  25249440.112    25249444.979           9.000
         9.750
 97 10  4  0 54  0.0070000  0  6G18G14G19G22G16G29
   1575504.936 6   1226653.738 6  23596855.417    23596860.409          17.500
        16.500
  25785475.494 6  20092580.903 6  23547320.386    23547325.964          18.000
        19.000
   1017772.194 5    793638.099 6  24731670.769    24731676.847          10.750
        12.000
  17223033.582 6  13422844.965 6  23844673.245    23844678.444          15.500
        15.500
   7163318.127 6   5583986.781 6  22856568.167    22856573.675          19.750
        20.000
  44017131.285 5  34299060.600 5  25263951.112    25263956.390           9.000
         9.750
 97 10  4  0 54 15.0070000  0  6G18G14G19G22G16G29
   1584651.768 6   1233781.150 6  23598595.979    23598601.058          17.500
        16.500
  25866067.079 6  20155379.535 6  23562656.526    23562662.046          18.000
        19.000
   1027744.721 5    801408.915 5  24733568.472    24733574.542          10.750
        11.750
  17295079.439 6  13478984.591 6  23858383.128    23858388.308          15.500
        15.500
   7209423.195 6   5619912.809 6  22865341.714    22865347.163          19.750
        20.000
  44093443.691 5  34358524.798 5  25278473.065    25278477.991           8.750
         9.750
 97 10  4  0 54 30.0070000  0  6G18G14G19G22G16G29
   1593850.227 6   1240948.791 6  23600346.503    23600351.554          17.750
        16.500
  25946768.341 6  20218263.627 6  23578013.464    23578019.007          18.000
        19.000
   1037769.168 5    809220.191 6  24735476.019    24735482.222          10.750
        12.000
  17367261.704 6  13535230.520 6  23872119.089    23872124.257          15.750
        15.500
   7255671.532 6   5655950.475 6  22874142.394    22874148.007          19.750
        20.000
  44169814.375 5  34418034.405 5  25293005.448    25293010.948           8.750
         9.750
 97 10  4  0 54 45.0070000  0  6G18G14G19G22G16G29
   1603096.085 6   1248153.356 6  23602105.917    23602110.909          17.750
        16.500
  26027576.170 6  20281230.758 6  23593390.659    23593396.147          17.750
        18.750
   1047842.728 5    817069.739 6  24737392.878    24737399.093          10.750
        12.000
  17439575.064 6  13591578.592 6  23885879.862    23885884.960          15.750
        15.500
   7302059.777 6   5692097.153 6  22882969.839    22882975.288          19.750
        20.000
  44246244.370 5  34477590.239 5  25307549.386    25307555.233           8.500
         9.750
 97 10  4  0 55  0.0070000  0  6G18G14G19G22G16G29
   1612394.865 6   1255399.169 6  23603875.511    23603880.370          17.750
        16.250
  26108495.159 6  20344284.504 6  23608789.003    23608794.565          17.750
        18.750
   1057974.832 5    824964.902 6  24739320.925    24739327.128          10.750
        12.250
  17512021.566 6  13648030.409 6  23899665.831    23899670.999          15.250
        15.250
   7348594.567 6   5728358.028 6  22891825.050    22891830.636          19.750
        20.000
  44322739.219 5  34537196.598 5  25322105.784    25322111.429           8.250
         9.500
 97 10  4  0 55 15.0070000  0  6G18G14G19G22G16G29
   1621748.402 6   1262687.651 6  23605655.245    23605660.151          17.750
        16.500
  26189525.305 6  20407424.875 6  23624208.581    23624214.011          17.750
        18.750
   1068167.267 5    832907.084 6  24741260.519    24741266.667          10.750
        12.250
  17584599.113 6  13704584.340 6  23913476.815    23913481.991          15.250
        15.250
   7395277.265 6   5764734.150 6  22900708.448    22900713.968          19.750
        20.000
  44399299.606 5  34596854.041 5  25336674.839    25336680.085           8.250
         9.500
 97 10  4  0 55 30.0070000  0  6G18G14G19G22G16G29
   1631150.569 6   1270014.022 6  23607444.308    23607449.413          17.750
        16.500
  26270659.104 6  20470646.000 6  23639647.761    23639653.265          17.750
        18.750
   1078411.239 5    840889.411 6  24743210.011    24743215.968          10.750
        12.250
  17657299.610 6  13761234.077 6  23927311.331    23927316.561          15.250
        15.250
   7442103.754 6   5801222.318 6  22909619.190    22909624.772          19.500
        20.000
  44475920.637 5  34656558.725 5  25351255.948    25351260.761           8.500
         9.500
 97 10  4  0 55 45.0070000  0  6G18G14G19G22G16G29
   1640601.160 6   1277378.128 6  23609242.690    23609247.854          18.000
        16.500
  26351895.389 6  20533946.995 6  23655106.503    23655112.007          17.500
        18.750
   1088703.838 5    848909.638 6  24745168.550    24745174.753          10.750
        12.250
  17730123.035 6  13817979.600 6  23941169.284    23941174.444          15.500
        15.250
   7489074.409 6   5837822.830 6  22918557.347    22918562.968          19.500
        20.000
  44552603.386 5  34716311.511 5  25365848.065    25365853.046           8.750
         9.500
 97 10  4  0 56  0.0070000  0  6G18G14G19G22G16G29
   1650093.506 6   1284774.771 6  23611049.104    23611054.151          18.000
        16.500
  26433229.194 6  20597323.978 6  23670583.737    23670589.296          17.250
        18.500
   1099041.512 5    856964.994 6  24747135.769    24747141.956          10.750
        12.250
  17803062.894 6  13874815.858 6  23955049.284    23955054.405          15.250
        15.250
   7536185.141 6   5874532.486 6  22927522.331    22927527.909          19.500
        20.000
  44629343.114 5  34776108.700 5  25380451.183    25380456.050           8.500
         9.750
 97 10  4  0 56 15.0070000  0  6G18G14G19G22G16G29
   1659632.503 6   1292207.762 6  23612864.323    23612869.202          18.000
        16.500
  26514663.871 6  20660779.555 6  23686080.308    23686085.905          17.250
        18.500
   1109429.517 5    865059.570 6  24749112.589    24749118.612          11.000
        12.250
  17876121.964 6  13931745.002 6  23968951.823    23968957.054          15.250
        15.250
   7583440.043 6   5911354.485 6  22936514.628    22936520.218          19.500
        20.000
  44706143.384 5  34835953.049 5  25395065.433    25395070.890           8.500
         9.750
 97 10  4  0 56 30.0070000  0  6G18G14G19G22G16G29
   1669220.752 6   1299679.136 6  23614688.839    23614693.651          18.000
        16.250
  26596200.274 6  20724314.405 6  23701596.065    23701601.647          17.000
        18.500
   1119870.134 5    873195.146 6  24751099.401    24751105.390          11.000
        12.250
  17949298.902 6  13988765.993 6  23982877.097    23982882.292          15.250
        15.250
   7630842.777 6   5948291.677 6  22945535.011    22945540.640          19.500
        20.000
  44783004.353 5  34895844.704 5  25409691.565    25409696.854           8.250
         9.750
 97 10  4  0 56 45.0070000  0  6G18G14G19G22G16G29
   1678857.049 6   1307187.953 6  23616522.597    23616527.319          18.250
        16.250
  26677837.684 6  20787927.966 6  23717131.073    23717136.819          17.000
        18.500
   1130363.618 5    881371.898 6  24753096.026    24753102.151          10.750
        12.250
  18022591.552 6  14045877.152 6  23996824.081    23996829.382          15.000
        15.250
   7678392.255 6   5985343.216 6  22954583.378    22954589.011          19.750
        20.000
  44859922.132 5  34955780.624 5  25424328.511    25424334.331           8.250
         9.750
 97 10  4  0 57  0.0070000  0  6G18G14G19G22G16G29
   1688547.769 6   1314739.165 6  23618366.698    23618371.456          18.250
        16.250
  26759581.749 6  20851624.630 6  23732686.542    23732692.378          17.000
        18.750
   1140917.947 5    889596.069 6  24755104.448    24755110.515          11.000
        12.250
  18096009.328 6  14103085.804 6  24010794.940    24010800.304          15.000
        15.250
   7726094.676 6   6022513.927 6  22963660.847    22963666.585          19.750
        20.000
  44936899.616 5  35015763.069 5  25438977.019    25438982.440           8.250
         9.750
 97 10  4  0 57 15.0070000  0  6G18G14G19G22G16G29
   1698289.310 6   1322329.991 6  23620220.495    23620225.186          18.250
        16.250
  26841425.276 6  20915398.798 6  23748260.878    23748266.636          16.750
        18.500
   1151524.489 5    897860.932 6  24757122.854    24757128.948          11.000
        12.500
  18169549.576 6  14160389.896 6  24024789.237    24024794.640          15.000
        15.250
   7773942.908 6   6059798.264 6  22972766.167    22972771.792          19.500
        20.000
  45013926.289 5  35075783.838 5  25453634.370    25453640.128           8.250
         9.750
 97 10  4  0 57 30.0070000  0  6G18G14G19G22G16G29
   1708081.323 6   1329960.149 6  23622083.901    23622088.546          18.250
        16.250
  26923370.485 6  20979252.195 6  23763854.472    23763860.276          16.750
        18.500
   1162177.582 5    906162.066 6  24759150.104    24759156.116          11.000
        12.500
  18243214.347 6  14217791.015 6  24038807.237    24038812.452          15.000
        15.250
   7821936.211 6   6097195.645 6  22981898.909    22981904.561          19.750
        20.250
  45091001.998 5  35135842.815 5  25468301.808    25468307.222           8.250
         9.750
 97 10  4  0 57 45.0070000  0  6G18G14G19G22G16G29
   1717919.903 6   1337626.581 6  23623956.073    23623960.761          18.250
        16.250
  27005416.481 6  21043184.128 6  23779467.354    23779473.108          16.750
        18.500
   1172873.701 5    914496.722 6  24761185.433    24761191.440          11.000
        12.500
  18317000.912 6  14275287.042 6  24052848.323    24052853.542          15.000
        15.000
   7870072.266 6   6134704.251 6  22991058.886    22991064.565          19.500
        20.000
  45168122.950 5  35195937.056 5  25482977.433    25482982.761           8.500
         9.750
 97 10  4  0 58  0.0070000  0  6G18G14G19G22G16G29
   1727808.470 6   1345331.974 6  23625837.745    23625842.479          18.250
        16.250
  27087568.165 6  21107198.417 6  23795100.300    23795106.101          16.750
        18.500
   1183617.397 5    922868.465 6  24763230.128    24763236.069          11.000
        12.500
  18390912.441 6  14332880.439 6  24066913.144    24066918.366          14.750
        15.000
   7918353.033 6   6172325.630 6  23000246.487    23000252.112          19.500
        20.000
  45245288.961 5  35256066.403 5  25497661.519    25497666.694           8.250
         9.500
 97 10  4  0 58 15.0070000  0  6G18G14G19G22G16G29
   1737751.036 6   1353079.433 6  23627729.612    23627734.421          18.250
        16.250
  27169829.423 6  21171298.087 6  23810754.019    23810759.909          16.500
        18.500
   1194413.812 5    931281.266 6  24765284.269    24765290.386          11.000
        12.500
  18464951.117 6  14390572.917 6  24081002.269    24081007.628          14.750
        15.250
   7966780.965 6   6210061.678 6  23009462.050    23009467.640          19.500
        20.250
  45322503.943 5  35316233.913 5  25512355.229    25512360.253           8.250
         9.500
 97 10  4  0 58 30.0070000  0  6G18G14G19G22G16G29
   1747744.032 6   1360866.194 6  23629631.276    23629635.933          18.250
        16.250
  27252195.528 6  21235479.455 6  23826427.776    23826433.698          16.500
        18.500
   1205255.768 5    939729.562 6  24767347.542    24767353.519          11.250
        12.500
  18539109.985 6  14448359.045 6  24095114.190    24095119.612          14.750
        15.000
   8015348.717 6   6247906.676 6  23018704.112    23018709.749          19.500
        20.250
  45399763.508 5  35376436.155 5  25527057.214    25527062.413           8.250
         9.500
 97 10  4  0 58 45.0070000  0  6G18G14G19G22G16G29
   1757789.852 6   1368694.115 6  23631542.815    23631547.714          18.250
        16.250
  27334670.723 6  21299745.833 6  23842122.331    23842128.214          16.500
        18.500
   1216144.698 5    948214.465 6  24769419.589    24769425.628          11.000
        12.500
  18613393.796 6  14506242.525 6  24109249.878    24109255.319          14.750
        15.000
   8064059.228 6   6285862.920 6  23027973.440    23027979.104          19.500
        20.000
  45477071.187 5  35436675.906 5  25541768.167    25541773.561           8.000
         9.500
 97 10  4  0 59  0.0070000  0  6G18G14G19G22G16G29
   1767886.413 6   1376561.574 6  23633463.948    23633468.940          18.250
        16.500
  27417249.750 6  21364093.107 6  23857836.565    23857842.440          16.500
        18.500
   1227075.373 5    956731.885 6  24771499.511    24771505.624          11.250
        12.500
  18687800.702 6  14564221.941 6  24123409.089    24123414.237          14.750
        15.000
   8112909.525 6   6323928.077 6  23037269.261    23037274.901          19.500
        20.000
  45554424.714 5  35496951.368 5  25556488.308    25556493.597           8.250
         9.500
 97 10  4  0 59 15.0070000  0  6G18G14G19G22G16G29
   1778032.350 6   1384467.515 6  23635394.745    23635399.761          18.250
        16.250
  27499930.333 6  21428519.524 6  23873570.136    23873576.038          16.250
        18.500
   1238044.710 5    965279.437 6  24773586.964    24773593.101          11.000
        12.500
  18762326.996 6  14622294.374 6  24137591.050    24137596.198          14.750
        14.750
   8161898.516 6   6362101.314 6  23046591.448    23046597.132          19.500
        20.000
  45631824.835 5  35557263.147 5  25571217.151    25571222.397           8.000
         9.750
 97 10  4  0 59 30.0080000  0  6G18G14G19G22G16G29
   1788229.368 6   1392413.249 6  23637335.172    23637340.090          18.250
        16.500
  27582720.365 6  21493031.226 6  23889324.687    23889330.586          16.500
        18.500
   1249056.182 5    973859.819 6  24775682.305    24775688.320          11.250
        12.500
  18836977.354 6  14680463.484 6  24151796.687    24151801.727          14.750
        14.750
   8211034.123 6   6400388.801 6  23055941.719    23055947.402          19.500
        20.000
  45709283.284 5  35617620.360 5  25585956.828    25585962.406           8.000
         9.500
 97 10  4  0 59 45.0080000  0  6G18G14G19G22G16G29
   1798477.865 6   1400399.104 6  23639285.242    23639290.168          18.250
        16.500
  27665610.140 6  21557620.647 6  23905098.156    23905103.988          16.250
        18.500
   1260116.193 5    982478.026 6  24777787.133    24777793.105          11.250
        12.500
  18911741.910 6  14738721.582 6  24166023.711    24166029.129          14.750
        15.000
   8260314.208 6   6438788.865 6  23065319.453    23065325.027          19.500
        20.000
  45786796.014 5  35678019.878 5  25600706.625    25600712.394           7.750
         9.500
 97 10  4  1  0  0.0080000  0  6G18G14G19G22G16G29
   1808779.322 6   1408426.225 6  23641245.789    23641250.648          18.250
        16.500
  27748600.929 6  21622288.787 6  23920890.758    23920896.715          16.250
        18.500
   1271227.503 5    991136.210 6  24779901.477    24779907.539          11.250
        12.500
  18986625.820 6  14797072.686 6  24180273.562    24180279.133          14.750
        15.000
   8309742.876 6   6477304.707 6  23074725.469    23074731.223          19.500
        20.000
  45864365.982 5  35738463.992 5  25615467.836    25615473.492           7.750
         9.500
 97 10  4  1  0 15.0080000  0  6G18G14G19G22G16G29
   1819135.641 6   1416496.093 6  23643216.469    23643221.352          18.250
        16.500
  27831688.264 6  21687032.149 6  23936701.836    23936707.613          16.250
        18.250
   1282391.128 5    999835.153 6  24782025.820    24782031.680          11.250
        12.500
  19061630.909 6  14855518.205 6  24194546.602    24194552.086          14.750
        14.750
   8359319.037 6   6515935.483 6  23084159.492    23084165.019          19.500
        20.000
  45941994.483 5  35798953.716 5  25630239.977    25630245.906           7.750
         9.500
 97 10  4  1  0 30.0080000  0  6G18G14G19G22G16G29
   1829544.782 6   1424607.116 6  23645197.281    23645202.254          18.250
        16.750
  27914867.020 6  21751846.757 6  23952530.195    23952536.102          16.250
        18.250
   1293604.667 5   1008572.999 6  24784159.477    24784165.512          11.250
        12.500
  19136753.606 6  14914055.368 6  24208842.125    24208847.144          15.000
        14.750
   8409037.945 6   6554677.486 6  23093620.617    23093626.312          19.500
        20.000
  46019680.113 5  35859487.968 5  25645023.406    25645029.070           7.750
         9.500
 97 10  4  1  0 45.0080000  0  6G18G14G19G22G16G29
   1840002.796 6   1432756.238 6  23647187.391    23647192.223          18.250
        16.750
  27998133.230 6  21816729.502 6  23968375.133    23968381.066          16.250
        18.250
   1304865.758 5   1017347.893 6  24786302.484    24786308.473          11.250
        12.500
  19211990.919 6  14972681.850 6  24223159.312    24223164.191          15.000
        14.500
   8458898.276 6   6593529.685 6  23103108.945    23103114.559          19.500
        20.000
  46097417.907 5  35920062.860 5  25659816.273    25659821.937           7.500
         9.500
 97 10  4  1  1  0.0080000  0  6G18G14G19G22G16G29
   1850509.241 6   1440943.089 6  23649186.703    23649191.473          18.250
        16.750
  28081485.778 6  21881679.526 6  23984236.797    23984242.633          16.250
        18.250
   1316175.781 5   1026160.922 6  24788454.852    24788460.668          11.250
        12.500
  19287342.972 6  15031397.736 6  24237498.227    24237503.484          14.750
        14.500
   8508902.806 6   6632494.257 6  23112624.437    23112629.996          19.500
        20.000
  46175208.501 5  35980678.890 5  25674619.422    25674625.117           7.500
         9.250
 97 10  4  1  1 15.0080000  0  6G18G14G19G22G16G29
   1861070.567 6   1449172.700 6  23651196.398    23651201.242          18.250
        16.750
  28164933.113 6  21946703.414 6  24000116.289    24000122.090          16.250
        18.250
   1327544.182 5   1035019.438 6  24790618.187    24790624.000          11.500
        12.500
  19362815.807 6  15090207.739 6  24251860.273    24251865.566          14.750
        14.750
   8559060.601 6   6671578.248 6  23122169.125    23122174.703          19.500
        20.000
  46253060.350 5  36041342.656 5  25689433.977    25689439.699           7.500
         9.250
 97 10  4  1  1 30.0080000  0  6G18G14G19G22G16G29
   1871674.597 6   1457435.597 6  23653214.180    23653219.078          18.250
        16.750
  28248463.367 6  22011791.910 6  24016011.727    24016017.426          16.250
        18.250
   1338959.923 5   1043914.839 6  24792790.508    24792796.273          11.500
        12.500
  19438397.484 6  15149102.549 6  24266243.016    24266248.305          14.750
        14.750
   8609358.699 6   6710771.571 6  23131740.500    23131746.109          19.500
        20.000
  46330960.907 5  36102044.393 5  25704258.234    25704263.633           7.500
         9.250
 97 10  4  1  1 45.0080000  0  6G18G14G19G22G16G29
   1882324.661 6   1465734.356 6  23655240.727    23655245.644          18.000
        16.750
  28332078.476 6  22076946.522 6  24031922.930    24031928.730          16.250
        18.250
   1350423.667 5   1052847.646 6  24794971.945    24794977.812          11.500
        12.500
  19514089.292 6  15208083.176 6  24280646.805    24280651.988          15.000
        14.500
   8659796.086 6   6750073.427 6  23141338.461    23141343.961          19.500
        20.000
  46408910.847 5  36162784.590 5  25719091.625    25719097.043           7.500
         9.250
 97 10  4  1  2  0.0080000  0  6G18G14G19G22G16G29
   1893024.971 6   1474072.271 6  23657277.125    23657281.988          18.250
        17.000
  28415784.482 6  22142171.971 6  24047851.750    24047857.594          16.250
        18.250
   1361936.658 5   1061818.821 6  24797162.742    24797168.586          11.500
        12.500
  19589894.939 6  15267152.512 6  24295072.016    24295077.090          14.750
        14.500
   8710374.945 6   6789485.521 6  23150963.297    23150968.894          19.500
        20.000
  46486909.951 4  36223563.107 5  25733934.227    25733939.680           7.250
         9.000
 97 10  4  1  2 15.0080000  0  6G18G14G19G22G16G29
   1903769.883 6   1482444.939 6  23659321.797    23659326.769          18.250
        17.000
  28499579.522 6  22207466.789 6  24063797.547    24063803.355          16.250
        18.500
   1373494.130 5   1070824.668 6  24799361.945    24799367.848          11.500
        12.500
  19665811.096 6  15326307.962 6  24309518.398    24309523.488          14.750
        14.500
   8761089.768 6   6829003.562 6  23160614.008    23160619.570          19.500
        20.000
  46564955.703 4  36284377.969 5  25748785.727    25748791.336           7.250
         9.000
 97 10  4  1  2 30.0080000  0  6G18G14G19G22G16G29
   1914559.180 6   1490852.196 6  23661374.898    23661379.812          18.250
        17.250
  28583464.391 6  22272831.609 6  24079760.211    24079766.113          16.250
        18.250
   1385097.425 5   1079866.216 6  24801570.008    24801575.809          11.500
        12.500
  19741834.083 6  15385546.654 6  24323985.117    24323990.187          15.000
        14.500
   8811939.722 6   6868626.903 6  23170290.602    23170296.078          19.500
        20.000
  46643049.312 4  36345230.126 5  25763646.516    25763651.996           7.250
         9.000
 97 10  4  1  2 45.0080000  0  6G18G14G19G22G16G29
   1925394.984 6   1499295.687 6  23663436.891    23663441.894          18.000
        17.000
  28667445.038 6  22338271.058 6  24095741.242    24095747.062          16.500
        18.250
   1396748.471 5   1088944.969 6  24803787.109    24803792.977          11.500
        12.500
  19817966.237 6  15444870.411 6  24338472.719    24338477.629          15.000
        14.500
   8862931.147 6   6908360.477 6  23179993.742    23179999.293          19.500
        20.000
  46721193.051 4  36406121.346 5  25778516.633    25778522.281           7.000
         9.000
 97 10  4  1  3  0.0080000  0  6G18G14G19G22G16G29
   1936272.802 6   1507771.918 6  23665506.875    23665511.852          18.250
        17.500
  28751516.271 6  22403781.099 6  24111739.297    24111745.258          16.250
        18.250
   1408441.291 5   1098056.279 6  24806012.164    24806018.082          11.500
        12.500
  19894202.195 6  15504275.058 6  24352979.695    24352985.012          14.750
        14.500
   8914061.469 6   6948202.289 6  23189723.570    23189729.164          19.500
        20.000
  46799381.961 4  36467047.763 5  25793395.461    25793401.164           6.750
         9.000
 97 10  4  1  3 15.0080000  0  6G18G14G19G22G16G29
   1947197.708 6   1516284.840 6  23667585.609    23667590.664          18.250
        17.500
  28835682.643 6  22469365.272 6  24127755.828    24127761.551          16.500
        18.250
   1420178.766 5   1107202.381 6  24808245.656    24808251.699          11.500
        12.500
  19970547.466 6  15563764.884 6  24367507.695    24367513.008          14.750
        14.250
   8965335.558 6   6988156.117 6  23199480.625    23199486.164          19.500
        20.000
  46877620.868 4  36528013.145 5  25808283.836    25808289.336           6.750
         9.000
 97 10  4  1  3 30.0080000  0  6G18G14G19G22G16G29
   1958170.446 6   1524835.037 6  23669673.687    23669678.691          18.250
        17.500
  28919943.097 6  22535022.757 6  24143790.031    24143795.766          16.500
        18.000
   1431961.044 5   1116383.396 6  24810487.672    24810493.668          11.500
        12.750
  20047002.091 6  15623339.915 6  24382056.578    24382061.668          14.750
        14.250
   9016752.467 6   7028221.234 6  23209264.930    23209270.523          19.500
        20.000
  46955909.557 4  36589017.318 5  25823181.555    25823187.449           6.750
         9.000
 97 10  4  1  3 45.0080000  0  6G18G14G19G22G16G29
   1969185.875 6   1533418.499 6  23671769.742    23671774.820          18.250
        17.500
  29004291.709 6  22600748.936 6  24159841.094    24159846.914          16.250
        18.000
   1443783.144 5   1125595.435 6  24812737.344    24812743.234          11.500
        12.500
  20123560.992 6  15682996.208 6  24396625.461    24396630.437          15.000
        14.000
   9068305.763 6   7068392.636 6  23219075.289    23219080.766          19.250
        19.750
  47034242.765 4  36650056.161 5  25838088.016    25838093.633           6.750
         8.750
 97 10  4  1  4  0.0080000  0  6G18G14G19G22G16G29
   1980253.100 6   1542042.320 6  23673875.961    23673880.863          18.250
        17.500
  29088739.600 6  22666552.475 6  24175910.953    24175916.605          16.500
        18.000
   1455656.536 5   1134847.451 6  24814996.633    24815002.758          11.500
        12.500
  20200233.247 6  15742740.827 6  24411215.547    24411220.508          14.750
        14.000
   9120006.791 6   7108679.148 6  23228913.570    23228919.141          19.500
        19.750
  47112631.933 4  36711138.622 5  25853005.164    25853010.676           6.750
         9.000
 97 10  4  1  4 15.0080000  0  6G18G14G19G22G16G29
   1991380.283 6   1550712.863 6  23675993.461    23675998.352          18.250
        17.750
  29173292.791 6  22732438.067 6  24192000.898    24192006.594          16.250
        18.000
   1467590.311 5   1144146.528 6  24817267.656    24817273.508          11.750
        12.500
  20277028.965 6  15802581.649 6  24425829.320    24425834.402          14.750
        14.250
   9171866.078 6   7149088.981 6  23238781.969    23238787.512          19.250
        20.000
  47191086.579 4  36772272.117 5  25867934.875    25867940.238           7.000
         9.000
 97 10  4  1  4 30.0080000  0  6G18G14G19G22G16G29
   2002550.742 6   1559417.122 6  23678119.227    23678124.051          18.500
        17.500
  29257926.084 6  22798386.076 6  24208106.117    24208111.957          16.250
        18.000
   1479565.230 5   1153477.642 6  24819546.281    24819552.266          11.500
        12.750
  20353925.684 6  15862501.173 6  24440462.016    24440467.391          14.750
        14.250
   9223863.874 6   7189606.739 6  23248676.844    23248682.586          19.250
        20.000
  47269586.370 4  36833440.769 5  25882872.547    25882878.187           6.750
         9.000
 97 10  4  1  4 45.0080000  0  6G18G14G19G22G16G29
   2013766.395 6   1568156.600 6  23680253.359    23680258.355          18.500
        17.750
  29342639.677 6  22864396.660 6  24224226.414    24224232.305          16.000
        17.750
   1491579.507 5   1162839.440 6  24821832.484    24821838.461          11.500
        12.750
  20430924.331 6  15922500.118 6  24455114.422    24455119.629          14.750
        14.000
   9276003.457 6   7230234.983 6  23258598.523    23258604.223          19.250
        19.750
  47348130.795 4  36894644.197 5  25897818.977    25897824.789           6.750
         9.000
 97 10  4  1  5  0.0080000  0  6G18G14G19G22G16G29
   2025032.462 6   1576935.370 6  23682397.344    23682402.137          18.500
        17.750
  29427437.856 6  22930473.153 6  24240363.070    24240368.969          16.000
        17.750
   1503635.907 5   1172234.055 6  24824126.531    24824132.766          11.500
        12.750
  20508029.229 6  15982581.859 6  24469787.133    24469792.102          14.750
        14.000
   9328289.972 6   7270977.724 6  23268548.445    23268554.133          19.250
        19.750
  47426724.262 4  36955885.868 5  25912774.875    25912780.379           6.750
         9.000
 97 10  4  1  5 15.0080000  0  6G18G14G19G22G16G29
   2036355.515 6   1585758.537 6  23684552.141    23684556.793          18.500
        17.750
  29512325.617 6  22996619.445 6  24256516.680    24256522.566          16.000
        17.750
   1515739.442 5   1181665.408 6  24826429.914    24826435.922          11.500
        12.750
  20585243.062 6  16042748.491 6  24484480.500    24484485.266          14.500
        14.000
   9380726.575 6   7311837.411 6  23278526.852    23278532.512          19.250
        19.750
  47505371.774 4  37017169.642 5  25927740.906    25927746.570           6.750
         8.750
 97 10  4  1  5 30.0080000  0  6G18G14G19G22G16G29
   2047734.617 6   1594625.377 6  23686717.352    23686722.211          18.500
        17.750
  29597302.165 6  23062834.930 6  24272687.102    24272692.984          16.000
        17.500
   1527889.938 5   1191133.336 6  24828741.953    24828748.090          11.750
        12.750
  20662564.375 6  16102998.870 6  24499193.969    24499199.184          14.500
        14.000
   9433311.133 6   7352812.385 6  23288533.328    23288539.074          19.250
        20.000
  47584071.262 4  37078493.906 5  25942716.891    25942722.387           6.750
         8.750
 97 10  4  1  5 45.0080000  0  6G18G14G19G22G16G29
   2059171.641 6   1603537.355 6  23688893.828    23688898.746          18.500
        18.000
  29682367.041 6  23129119.234 6  24288874.437    24288880.238          16.000
        17.500
   1540086.145 5   1200636.897 6  24831062.937    24831068.957          11.750
        12.750
  20739990.302 6  16163330.762 6  24513927.711    24513932.996          14.250
        14.000
   9486038.996 6   7393899.029 6  23298567.187    23298572.848          19.250
        20.000
  47662821.748 4  37139857.910 5  25957702.828    25957708.215           7.000
         8.750
 97 10  4  1  6  0.0080000  0  6G18G14G19G22G16G29
   2070663.658 6   1612492.180 6  23691080.430    23691085.394          18.500
        17.750
  29767517.111 6  23195469.928 6  24305077.852    24305083.687          16.000
        17.500
   1552322.758 5   1210171.932 6  24833391.570    24833397.461          11.750
        12.750
  20817516.528 6  16223740.807 6  24528680.648    24528685.812          14.500
        14.250
   9538905.517 6   7435093.717 6  23308627.555    23308633.184          19.250
        20.000
  47741619.203 4  37201258.524 5  25972697.664    25972703.090           7.250
         8.750
 97 10  4  1  6 15.0080000  0  6G18G14G19G22G16G29
   2082215.357 6   1621493.520 6  23693278.609    23693283.672          18.500
        18.000
  29852753.560 6  23261887.926 6  24321298.023    24321303.906          15.750
        17.500
   1564602.521 5   1219740.594 6  24835728.086    24835734.082          11.750
        12.750
  20895144.891 6  16284230.446 6  24543452.859    24543458.051          14.500
        14.000
   9591912.676 6   7476397.997 6  23318714.187    23318719.859          19.250
        19.750
  47820463.866 4  37262695.919 5  25987701.594    25987706.652           7.250
         8.750
 97 10  4  1  6 30.0080000  0  6G18G14G19G22G16G29
   2093824.793 6   1630539.837 6  23695487.820    23695492.855          18.500
        18.000
  29938071.588 6  23328369.497 6  24337533.383    24337539.312          15.750
        17.500
   1576922.479 5   1229340.577 6  24838072.477    24838078.570          11.750
        12.750
  20972873.148 6  16344797.916 6  24558244.008    24558249.152          14.250
        14.000
   9645058.884 6   7517810.621 6  23328827.664    23328833.199          19.500
        19.750
  47899352.556 4  37324167.621 5  26002713.320    26002718.531           7.250
         8.750
 97 10  4  1  6 45.0080000  0  6G18G14G19G22G16G29
   2105494.738 6   1639633.311 6  23697708.406    23697713.473          18.500
        18.000
  30023476.623 6  23394918.852 6  24353785.539    24353791.316          16.000
        17.250
   1589287.250 5   1238975.480 6  24840425.547    24840431.570          11.750
        12.750
  21050706.900 6  16405447.599 6  24573055.055    24573060.168          14.250
        13.500
   9698346.770 6   7559333.649 6  23338968.062    23338973.519          19.250
        19.750
  47978288.326 4  37385676.017 5  26017733.953    26017739.598           7.250
         8.750
 97 10  4  1  7  0.0080000  0  6G18G14G19G22G16G29
   2117225.488 6   1648774.166 6  23699940.648    23699945.801          18.500
        18.000
  30108972.390 6  23461538.919 6  24370054.641    24370060.551          15.750
        17.250
   1601696.026 5   1248644.670 6  24842786.852    24842792.852          11.750
        12.750
  21128647.418 6  16466180.475 6  24587886.953    24587892.055          14.250
        13.500
   9751774.374 6   7600965.546 6  23349135.086    23349140.734          19.500
        19.750
  48057271.904 4  37447221.654 5  26032764.383    26032770.008           7.250
         8.750
 97 10  4  1  7 15.0080000  0  6G18G14G19G22G16G29
   2129012.644 6   1657958.973 6  23702183.773    23702188.746          18.500
        18.000
  30194553.572 6  23528225.548 6  24386340.430    24386346.207          15.750
        17.250
   1614146.247 5   1258346.160 6  24845156.031    24845161.922          11.750
        13.000
  21206688.447 6  16526991.669 6  24602737.523    24602742.875          14.250
        13.750
   9805332.023 6   7642698.776 6  23359326.750    23359332.316          19.500
        19.750
  48136298.223 4  37508800.596 5  26047802.391    26047808.137           7.250
         8.750
 97 10  4  1  7 30.0080000  0  6G18G14G19G22G16G29
   2140857.794 6   1667188.968 6  23704437.766    23704442.687          18.750
        18.000
  30280223.090 6  23594980.999 6  24402642.812    24402648.586          15.750
        17.250
   1626644.391 6   1268084.988 6  24847534.328    24847540.328          12.000
        13.000
  21284835.677 6  16587885.617 6  24617608.477    24617613.766          14.250
        14.000
   9859020.445 6   7684533.910 6  23369543.328    23369548.977          19.250
        20.000
  48215373.359 4  37570417.573 5  26062849.766    26062855.531           7.000
         8.750
 97 10  4  1  7 45.0080000  0  6G18G14G19G22G16G29
   2152761.614 6   1676464.686 6  23706703.203    23706708.039          18.750
        18.000
  30365982.393 6  23661806.421 6  24418962.281    24418968.086          15.750
        17.250
   1639191.854 5   1277862.244 6  24849922.273    24849928.246          11.750
        13.000
  21363090.757 6  16648863.598 6  24632499.859    24632505.512          14.000
        14.000
   9912838.984 6   7726470.428 6  23379784.617    23379790.187          19.250
        19.750
  48294499.836 4  37632074.565 5  26077907.156    26077912.848           7.000
         9.000
 97 10  4  1  8  0.0080000  0  6G18G14G19G22G16G29
   2164723.288 6   1685785.477 6  23708979.523    23708984.242          19.000
        18.000
  30451834.981 6  23728704.530 6  24435299.602    24435305.211          15.750
        17.000
   1651793.312 6   1287681.581 6  24852320.148    24852326.043          12.000
        13.000
  21441455.395 6  16709926.950 6  24647411.969    24647417.422          14.000
        14.000
   9966792.094 6   7768511.809 6  23390051.453    23390057.074          19.250
        20.000
  48373681.998 4  37693774.940 5  26092974.805    26092980.578           7.000
         8.750
 97 10  4  1  8 15.0080000  0  6G18G14G19G22G16G29
   2176739.153 6   1695148.505 6  23711266.148    23711270.844          19.000
        18.000
  30537779.649 6  23795674.387 6  24451654.367    24451660.117          15.750
        17.250
   1664448.968 6   1297543.146 6  24854728.461    24854734.289          12.000
        13.000
  21519929.860 6  16771075.888 6  24662345.312    24662350.379          14.000
        13.500
  10020884.154 6   7810661.466 6  23400344.781    23400350.535          19.250
        20.000
  48452920.260 4  37755519.037 5  26108053.805    26108059.328           7.000
         8.750
 97 10  4  1  8 30.0080000  0  6G18G14G19G22G16G29
   2188806.928 6   1704551.972 6  23713562.617    23713567.215          19.000
        18.000
  30623813.592 6  23862713.811 6  24468026.109    24468031.984          15.750
        17.250
   1677154.429 6   1307443.525 6  24857146.266    24857151.945          12.250
        13.000
  21598510.899 6  16832307.872 6  24677298.891    24677303.969          14.000
        13.500
  10075111.886 6   7852916.841 6  23410664.078    23410669.766          19.250
        19.750
  48532210.935 4  37817303.971 5  26123142.164    26123147.848           7.000
         8.750
 97 10  4  1  8 45.0080000  0  7G18G14G19G22G16G 3G29
   2200929.101 6   1713997.830 6  23715869.383    23715874.113          18.750
        18.000
  30709940.520 6  23929825.692 6  24484415.406    24484421.230          15.250
        17.000
   1689911.878 5   1317384.408 6  24859573.945    24859579.687          11.750
        13.000
  21677200.911 6  16893624.771 6  24692273.164    24692278.383          14.000
        13.500
  10129477.409 6   7895279.580 6  23421009.414    23421015.059          19.000
        19.750
      5014.46213       977.38015  26917025.195    26917031.418           5.500
         5.500
  48611559.206 4  37879133.792 5  26138241.789    26138247.176           6.750
         8.500
 97 10  4  1  9  0.0090000  0  7G18G14G19G22G16G 3G29
   2213106.401 6   1723486.647 6  23718186.310    23718191.278          18.750
        18.000
  30796167.532 6  23997015.557 6  24500823.849    24500829.688          15.250
        17.000
   1702720.362 6   1327365.056 6  24862011.224    24862016.997          12.250
        13.000
  21756000.753 6  16955027.240 6  24707268.013    24707273.524          13.750
        14.000
  10183981.662 6   7937750.421 6  23431381.177    23431386.864          19.000
        19.750
     14453.153 3      8332.231 5  26918821.317    26918828.091           5.500
         5.500
  48690969.830 4  37941012.187 5  26153352.981    26153358.204           6.750
         8.500
 97 10  4  1  9 15.0090000  0  7G18G14G19G22G16G 3G29
   2225338.753 6   1733018.358 6  23720514.036    23720518.970          18.750
        18.000
  30882482.233 6  24064273.758 6  24517248.989    24517254.884          15.250
        17.000
   1715580.889 6   1337386.260 6  24864458.356    24864463.962          12.250
        13.000
  21834897.814 6  17016505.476 6  24722281.474    24722287.278          13.500
        14.000
  10238621.095 6   7980326.599 6  23441778.958    23441784.532          19.000
        19.750
     23936.786 3     15722.114 5  26920626.208    26920632.220           5.750
         5.500
  48770434.495 4  38002932.705 5  26168474.567    26168480.087           6.750
         8.500
 97 10  4  1  9 30.0090000  0  7G18G14G19G22G16G 3G29
   2237622.471 6   1742590.096 6  23722851.435    23722856.423          18.750
        18.000
  30968885.771 6  24131601.174 6  24533690.895    24533696.841          15.250
        17.000
   1728492.463 6   1347447.244 6  24866915.364    24866920.970          12.000
        13.000
  21913896.892 6  17078063.196 6  24737314.661    24737320.165          13.500
        13.750
  10293402.153 6   8023013.139 6  23452203.411    23452209.032          19.000
        19.500
     33465.370 3     23147.045 5  26922439.302    26922445.466           5.750
         5.500
  48849955.871 4  38064897.398 5  26183606.997    26183612.509           6.750
         8.500
 97 10  4  1  9 45.0090000  0  7G18G14G19G22G16G 3G29
   2249956.676 6   1752201.177 6  23725198.544    23725203.513          18.750
        18.000
  31055375.026 6  24198995.395 6  24550149.388    24550155.313          15.250
        17.000
   1741451.405 6   1357545.143 6  24869381.505    24869387.227          12.250
        13.000
  21992998.672 6  17139700.950 6  24752367.317    24752372.466          13.500
        13.250
  10348329.262 6   8065813.476 6  23462655.731    23462661.099          19.000
        19.500
     43037.167 3     30605.628 5  26924260.442    26924266.724           5.750
         5.500
  48929529.580 4  38126902.881 5  26198749.747    26198754.782           6.750
         8.250
 97 10  4  1 10  0.0090000  0  7G18G14G19G22G16G 3G29
   2262343.508 6   1761853.263 6  23727555.802    23727560.669          18.750
        18.250
  31141949.249 6  24266455.810 6  24566623.958    24566629.880          15.000
        16.750
   1754456.158 6   1367678.730 6  24871856.067    24871861.755          12.250
        13.000
  22072201.841 6  17201417.712 6  24767439.192    24767444.274          13.500
        13.250
  10403405.152 6   8108729.756 6  23473136.317    23473141.810          19.000
        19.500
     52650.679 3     38096.721 5  26926089.950    26926096.118           5.750
         5.250
  49009152.248 4  38188946.517 5  26213901.349    26213906.505           6.750
         8.250
 97 10  4  1 10 15.0090000  0  7G18G14G19G22G16G 3G29
   2274785.967 6   1771548.692 6  23729923.638    23729928.505          18.750
        18.250
  31228605.491 6  24333980.144 6  24583113.950    24583119.915          14.750
        16.750
   1767505.183 6   1377846.820 6  24874339.356    24874344.985          12.250
        13.000
  22151508.990 6  17263215.497 6  24782530.825    24782536.087          13.500
        13.500
  10458634.395 6   8151765.528 6  23483646.114    23483651.458          19.000
        19.500
     62305.925 3     45620.325 5  26927927.403    26927933.462           6.000
         5.500
  49088824.192 4  38251028.549 5  26229062.060    26229067.552           6.500
         8.250
 97 10  4  1 10 30.0090000  0  7G18G14G19G22G16G 3G29
   2287294.547 6   1781295.644 6  23732303.950    23732308.852          19.000
        18.250
  31315341.915 6  24401566.956 6  24599619.380    24599625.376          14.750
        16.750
   1780599.161 6   1388049.938 6  24876831.177    24876836.622          12.250
        13.000
  22230923.787 6  17325097.153 6  24797642.739    24797648.337          13.250
        13.500
  10514015.333 6   8194919.504 6  23494184.731    23494190.165          19.250
        19.500
     72006.102 3     53178.950 5  26929773.075    26929779.528           6.000
         5.500
  49168544.061 4  38313147.912 5  26244232.247    26244238.005           6.500
         8.250
 97 10  4  1 10 45.0090000  0  7G18G14G19G22G16G 3G29
   2299865.696 6   1791091.359 6  23734696.270    23734701.028          19.000
        18.250
  31402151.502 6  24469210.783 6  24616138.638    24616144.583          14.750
        16.750
   1793733.972 6   1398284.874 6  24879330.474    24879336.118          12.250
        13.000
  22310441.458 6  17387058.975 6  24812774.497    24812780.126          13.250
        13.750
  10569539.971 6   8238185.450 6  23504750.778    23504756.157          19.000
        19.500
     81749.704 3     60771.427 5  26931627.427    26931633.329           6.000
         5.500
  49248307.471 4  38375301.210 5  26259411.145    26259416.435           6.500
         8.250
 97 10  4  1 11  0.0090000  0  7G18G14G19G22G16G 3G29
   2312499.440 6   1800935.843 6  23737100.310    23737104.884          19.000
        18.250
  31489034.978 6  24536912.184 6  24632672.161    24632678.126          14.750
        16.750
   1806914.546 6   1408555.465 6  24881838.833    24881844.388          12.250
        13.000
  22390062.201 6  17449101.122 6  24827926.153    24827931.317          13.500
        13.500
  10625209.834 6   8281564.557 6  23515344.286    23515349.829          19.000
        19.250
     91545.091 3     68404.230 5  26933491.528    26933497.290           6.000
         5.500
  49328116.708 4  38437490.223 5  26274597.778    26274603.704           6.500
         8.250
 97 10  4  1 11 15.0090000  0  7G18G14G19G22G16G 3G29
   2325189.482 6   1810824.196 6  23739514.981    23739519.727          19.000
        18.250
  31575983.718 6  24604664.432 6  24649218.036    24649223.970          14.500
        16.500
   1820134.958 6   1418857.101 6  24884354.427    24884359.938          12.250
        13.250
  22469781.030 6  17511219.697 6  24843095.997    24843101.099          13.500
        13.250
  10681020.050 6   8325053.038 6  23525964.622    23525970.032          18.750
        19.250
    101389.052 4     76074.886 5  26935364.606    26935370.399           6.250
         5.500
  49407963.018 4  38499708.114 5  26289792.364    26289797.942           6.500
         8.000
 97 10  4  1 11 30.0090000  0  7G18G14G19G22G16G 3G29
   2337939.985 6   1820759.663 6  23741941.544    23741946.212          19.000
        18.250
  31663000.113 6  24672469.403 6  24665776.442    24665782.384          14.750
        16.500
   1833400.179 6   1429193.655 6  24886878.583    24886884.204          12.500
        13.250
  22549603.589 6  17573419.095 6  24858285.567    24858290.841          13.250
        13.250
  10736973.431 6   8368653.067 6  23536612.177    23536617.685          19.000
        19.250
    111287.019 3     83787.637 5  26937247.888    26937254.274           6.000
         5.750
  49487850.087 4  38561957.793 5  26304994.450    26304999.895           6.500
         8.000
 97 10  4  1 11 45.0090000  0  7G18G14G19G22G16G 3G29
   2350757.921 6   1830747.674 6  23744380.497    23744385.446          19.000
        18.250
  31750091.431 6  24740332.762 6  24682349.638    24682355.438          14.750
        16.500
   1846714.369 6   1439568.371 6  24889412.208    24889417.845          12.500
        13.250
  22629534.515 6  17635702.945 6  24873495.763    24873501.177          13.000
        13.250
  10793072.519 6   8412366.641 6  23547287.567    23547292.993          19.000
        19.250
    121241.543 3     91544.462 5  26939142.372    26939148.341           6.000
         5.750
  49567783.973 4  38624243.936 5  26320205.427    26320210.841           6.500
         8.000
 97 10  4  1 12  0.0090000  0  7G18G14G19G22G16G 3G29
   2363637.695 6   1840783.869 6  23746831.317    23746836.169          18.750
        18.250
  31837252.236 6  24808250.259 6  24698935.747    24698941.622          14.750
        16.500
   1860071.194 6   1449976.306 6  24891953.927    24891959.571          12.500
        13.250
  22709564.166 6  17698063.706 6  24888725.177    24888730.743          13.000
        13.500
  10849305.664 6   8456184.671 6  23557988.247    23557993.700          18.750
        19.250
    131244.621 4     99339.101 5  26941045.825    26941052.067           6.250
         5.750
  49647761.199 4  38686563.846 5  26335424.544    26335430.185           6.500
         8.000
 97 10  4  1 12 15.0090000  0  7G18G14G19G22G16G 3G29
   2376580.918 6   1850869.504 6  23749294.419    23749299.395          18.750
        18.250
  31924483.433 6  24876222.613 6  24715535.442    24715541.235          14.500
        16.500
   1873470.897 6   1460417.656 6  24894503.770    24894509.352          12.500
        13.250
  22789691.017 6  17760500.218 6  24903972.958    24903978.435          13.500
        13.500
  10905670.111 6   8500105.018 6  23568713.864    23568719.368          18.750
        19.250
    141297.676 4    107172.693 5  26942958.716    26942964.950           6.250
         5.750
  49727784.984 4  38748920.040 5  26350652.442    26350658.220           6.500
         8.000
 97 10  4  1 12 30.0090000  0  7G18G14G19G22G16G 3G29
   2389589.567 6   1861006.122 6  23751769.864    23751774.919          18.750
        18.250
  32011788.569 6  24944252.578 6  24732149.044    24732154.931          14.500
        16.250
   1886915.751 6   1470894.177 6  24897062.333    24897068.063          12.500
        13.250
  22869916.273 6  17823013.400 6  24919239.341    24919244.583          13.250
        13.500
  10962163.051 6   8544125.487 6  23579464.294    23579469.911          18.750
        19.250
    151403.913 4    115047.724 5  26944881.856    26944887.958           6.250
         5.750
  49807857.876 4  38811314.503 5  26365889.505    26365895.372           6.250
         7.750
 97 10  4  1 12 45.0090000  0  7G18G14G19G22G16G 3G29
   2402662.655 6   1871192.956 6  23754257.552    23754262.411          18.750
        18.250
  32099178.789 6  25012348.843 6  24748778.661    24748784.579          14.500
        16.250
   1900414.090 6   1481412.382 6  24899631.020    24899636.462          12.750
        13.500
  22950242.899 6  17885605.585 6  24934524.575    24934529.856          12.750
        13.000
  11018788.579 6   8588249.277 6  23590239.794    23590245.376          18.750
        19.250
    161571.107 4    122970.265 5  26946816.661    26946822.700           6.250
         5.750
  49887987.630 4  38873753.273 5  26381138.114    26381143.235           6.250
         7.750
 97 10  4  1 13  0.0090000  0  7G18G14G19G22G16G 3G29
   2415785.708 6   1881418.718 6  23756754.708    23756759.563          18.750
        18.250
  32186649.389 6  25080507.741 6  24765423.763    24765429.712          14.250
        16.250
   1913958.730 6   1491966.663 6  24902208.333    24902213.977          12.750
        13.500
  23030661.671 6  17948269.561 6  24949827.677    24949833.001          12.750
        13.000
  11075543.100 6   8632473.566 6  23601039.903    23601045.513          18.750
        19.500
    171791.758 4    130934.453 5  26948761.950    26948767.345           6.500
         5.750
  49968168.485 4  38936231.856 5  26396396.122    26396401.149           6.250
         7.500
 97 10  4  1 13 15.0090000  0  7G18G14G19G22G16G 3G29
   2428964.451 6   1891687.875 6  23759262.778    23759267.653          18.750
        18.250
  32274208.209 6  25148735.378 6  24782085.630    24782091.618          14.250
        16.250
   1927552.743 6   1502559.407 6  24904795.325    24904800.962          12.750
        13.500
  23111178.186 6  18011009.701 6  24965149.606    24965154.950          13.000
        13.000
  11132436.254 6   8676805.887 6  23611866.122    23611871.755          18.750
        19.500
    182071.205 4    138944.438 5  26950717.645    26950723.583           6.500
         5.750
  50048404.903 4  38998753.735 5  26411664.528    26411669.606           6.250
         7.500
 97 10  4  1 13 30.0090000  0  7G18G14G19G22G16G 3G29
   2442197.714 6   1901999.519 6  23761780.919    23761785.708          18.750
        18.250
  32361855.776 6  25217032.170 6  24798764.513    24798770.423          14.000
        16.250
   1941191.909 6   1513187.346 6  24907390.677    24907396.247          12.500
        13.250
  23191791.299 6  18073825.129 6  24980490.091    24980495.239          13.250
        13.250
  11189466.554 6   8721245.079 6  23622718.817    23622724.415          18.750
        19.500
    192403.330 4    146995.486 5  26952683.880    26952689.536           6.250
         5.750
  50128694.717 3  39061317.217 5  26426942.739    26426948.454           6.000
         7.750
 97 10  4  1 13 45.0090000  0  7G18G14G19G22G16G 3G29
   2455484.269 6   1912352.686 6  23764309.294    23764314.102          18.750
        18.250
  32449591.845 6  25285397.923 6  24815460.052    24815466.075          14.000
        16.250
   1954872.868 6   1523847.856 6  24909994.270    24909999.700          12.750
        13.500
  23272497.801 6  18136713.311 6  24995848.153    24995853.622          13.250
        13.500
  11246630.988 6   8765788.793 6  23633596.700    23633602.380          18.750
        19.500
    202782.832 3    155083.445 5  26954659.020    26954664.954           6.000
         5.750
  50209036.657 3  39123921.328 5  26442231.388    26442237.149           6.000
         7.500
 97 10  4  1 14  0.0090000  0  7G18G14G19G22G16G 3G29
   2468825.108 6   1922748.159 6  23766847.974    23766852.810          18.750
        18.250
  32537416.023 6  25353832.337 6  24832172.505    24832178.556          14.000
        16.250
   1968594.811 6   1534540.298 6  24912605.364    24912611.001          12.750
        13.500
  23353298.775 6  18199675.108 6  25011223.661    25011229.282          12.750
        13.500
  11303932.074 6   8810438.985 6  23644500.786    23644506.446          18.750
        19.750
    213212.288 3    163210.346 5  26956643.567    26956649.544           6.000
         6.000
  50289430.050 3  39186565.528 5  26457529.544    26457535.708           6.000
         7.500
 97 10  4  1 14 15.0090000  0  7G18G14G19G22G16G 3G29
   2482216.081 6   1933182.691 6  23769396.052    23769401.013          18.750
        18.250
  32625325.136 6  25422332.930 6  24848901.091    24848907.005          14.000
        16.250
   1982355.332 6   1545262.784 6  24915223.903    24915229.532          12.750
        13.500
  23434190.705 6  18262707.779 6  25026616.645    25026622.239          12.500
        13.250
  11361366.241 6   8855192.875 6  23655430.099    23655435.813          18.750
        19.750
    223693.078 4    171377.239 5  26958637.935    26958643.794           6.250
         6.000
  50369868.295 3  39249244.667 5  26472836.794    26472842.087           6.000
         7.500
 97 10  4  1 14 30.0090000  0  7G18G14G19G22G16G 3G29
   2495659.975 6   1943658.457 6  23771954.270    23771959.231          18.500
        18.250
  32713323.426 6  25490903.014 6  24865646.325    24865652.540          14.000
        16.000
   1996158.917 6   1556018.842 6  24917850.638    24917856.321          13.000
        13.500
  23515177.082 6  18325814.046 6  25042028.020    25042033.235          12.750
        13.000
  11418936.997 6   8900053.199 6  23666385.505    23666391.259          18.750
        19.750
    234228.816 3    179586.943 5  26960642.536    26960648.563           6.000
         6.000
  50450351.473 4  39311958.847 5  26488151.989    26488157.731           6.250
         7.500
 97 10  4  1 14 45.0090000  0  7G18G14G19G22G16G 3G29
   2509156.261 6   1954175.048 6  23774522.552    23774527.450          18.500
        18.000
  32801414.418 6  25559545.328 6  24882409.575    24882415.712          13.750
        16.000
   2010010.781 6   1566812.521 6  24920486.505    24920492.048          12.750
        13.500
  23596262.211 6  18388997.267 6  25057458.263    25057463.251          13.000
        12.750
  11476648.909 6   8945023.509 6  23677367.708    23677373.282          18.750
        19.750
    244823.697 4    187842.743 5  26962659.224    26962664.903           6.250
         6.000
  50530883.580 4  39374711.113 5  26503476.638    26503482.579           6.250
         7.500
 97 10  4  1 15  0.0090000  0  7G18G14G19G22G16G 3G29
   2522694.739 6   1964724.530 6  23777098.724    23777103.638          18.500
        18.000
  32889582.028 6  25628247.352 6  24899187.427    24899193.462          13.750
        16.000
   2023898.965 6   1577634.491 6  24923129.224    24923134.712          13.000
        13.500
  23677434.220 6  18452248.192 6  25072904.849    25072910.188          13.000
        13.000
  11534491.711 6   8990095.823 6  23688374.841    23688380.474          18.750
        19.750
    255465.913 4    196135.402 5  26964684.239    26964689.903           6.250
         6.000
  50611450.864 4  39437490.830 5  26518808.599    26518813.974           6.250
         7.250
 97 10  4  1 15 15.0090000  0  7G18G14G19G22G16G 3G29
   2536290.515 6   1975318.649 6  23779685.849    23779690.708          18.500
        18.000
  32977831.990 6  25697013.540 6  24915980.895    24915986.888          14.000
        16.000
   2037832.670 6   1588491.936 6  24925780.778    24925786.278          13.000
        13.500
  23758701.720 6  18515573.516 6  25088369.317    25088375.138          12.500
        13.250
  11592472.419 6   9035275.589 6  23699408.247    23699413.759          18.750
        19.750
    266163.241 3    204471.044 5  26966719.356    26966725.712           6.000
         6.000
  50692059.957 4  39500303.105 5  26534148.044    26534153.427           6.250
         7.250
 97 10  4  1 15 30.0090000  0  7G18G14G19G22G16G 3G29
   2549943.758 6   1985957.549 6  23782284.106    23782288.954          18.500
        18.000
  33066156.990 6  25765838.204 6  24932788.481    24932794.700          14.000
        15.750
   2051808.347 6   1599382.092 6  24928440.114    24928445.774          13.000
        13.500
  23840058.749 6  18578968.596 6  25103851.067    25103856.700          12.500
        13.250
  11650581.458 6   9080555.356 6  23710466.028    23710471.688          18.750
        19.750
    276909.429 3    212844.725 5  26968764.341    26968770.372           6.000
         6.000
  50772705.482 4  39563143.768 5  26549494.458    26549499.567           6.250
         7.250
 97 10  4  1 15 45.0090000  0  7G18G14G19G22G16G 3G29
   2563659.348 6   1996645.030 6  23784894.067    23784898.864          18.500
        18.000
  33154558.247 6  25834722.294 6  24949610.810    24949616.888          14.000
        15.750
   2065833.817 6   1610311.041 6  24931108.958    24931114.364          13.000
        13.500
  23921509.728 6  18642436.896 6  25119350.427    25119356.153          12.750
        13.000
  11708819.099 6   9125935.333 6  23721548.286    23721553.892          18.750
        19.500
    287707.968 3    221259.212 5  26970819.060    26970824.892           5.750
         6.000
  50853393.304 4  39626017.385 5  26564849.005    26564854.063           6.250
         7.500
 97 10  4  1 16  0.0090000  0  7G18G14G19G22G16G 3G29
   2577438.038 6   2007381.690 6  23787516.177    23787520.872          18.500
        18.000
  33243032.391 6  25903663.171 6  24966446.974    24966452.868          14.250
        15.750
   2079908.699 6   1621278.490 6  24933787.505    24933792.942          13.000
        13.750
  24003053.222 6  18705977.280 6  25134868.208    25134873.243          12.750
        12.750
  11767186.275 6   9171416.244 6  23732655.177    23732660.642          18.750
        19.750
    298562.762 3    229717.542 5  26972884.614    26972890.450           5.750
         6.000
  50934124.476 4  39688924.797 5  26580211.520    26580216.645           6.250
         7.500
 97 10  4  1 16 15.0090000  0  7G18G14G19G22G16G 3G29
   2591279.806 6   2018167.490 6  23790150.106    23790154.977          18.500
        18.250
  33331580.704 6  25972661.841 6  24983297.270    24983303.114          14.250
        15.750
   2094033.540 6   1632284.876 6  24936475.325    24936480.899          13.000
        13.750
  24084689.837 6  18769590.238 6  25150402.974    25150407.852          12.750
        12.750
  11825680.750 6   9216996.348 6  23743786.435    23743791.942          18.750
        19.750
    309474.841 3    238220.501 5  26974961.044    26974967.157           6.000
         6.250
  51014899.785 4  39751866.594 5  26595582.310    26595587.696           6.250
         7.500
 97 10  4  1 16 30.0090000  0  7G18G14G19G22G16G 3G29
   2605188.436 6   2029005.387 6  23792796.685    23792801.626          18.250
        18.250
  33420206.377 6  26041720.796 6  25000162.278    25000168.063          14.250
        15.750
   2108212.248 6   1643333.234 6  24939173.575    24939179.020          13.250
        13.750
  24166421.958 6  18833277.601 6  25165955.763    25165961.048          12.500
        12.750
  11884307.061 6   9262679.181 6  23754942.614    23754948.110          18.750
        19.750
    320444.157 3    246768.070 5  26977048.513    26977054.282           6.000
         6.250
  51095724.762 4  39814847.091 5  26610962.685    26610968.614           6.250
         7.500
 97 10  4  1 16 45.0090000  0  7G18G14G19G22G16G 3G29
   2619168.045 6   2039898.607 6  23795456.974    23795461.868          18.500
        18.250
  33508905.747 6  26110837.184 6  25017041.263    25017046.927          14.250
        15.500
   2122443.021 6   1654422.168 6  24941881.552    24941887.067          13.000
        13.750
  24248251.037 6  18897040.527 6  25181527.356    25181532.915          12.500
        13.000
  11943067.522 6   9308466.549 6  23766124.317    23766129.852          18.500
        19.750
    331468.005 3    255358.124 5  26979145.919    26979152.169           6.000
         6.250
  51176603.539 4  39877869.516 5  26626353.974    26626359.095           6.250
         7.500
 97 10  4  1 17  0.0090000  0  7G18G14G19G22G16G 3G29
   2633218.323 6   2050846.885 6  23798130.622    23798135.677          18.250
        18.250
  33597672.286 6  26180005.907 6  25033932.958    25033938.630          14.500
        15.250
   2136721.068 6   1665547.924 6  24944598.528    24944604.005          13.250
        14.000
  24330172.777 6  18960875.650 6  25197116.583    25197122.177          12.500
        13.000
  12001961.191 6   9354357.715 6  23777331.427    23777337.009          18.750
        19.750
    342542.424 3    263987.585 5  26981253.575    26981259.591           6.000
         6.250
  51257531.650 4  39940930.369 5  26641753.958    26641759.134           6.500
         7.500
 97 10  4  1 17 15.0090000  0  7G18G14G19G22G16G 3G29
   2647345.680 6   2061855.223 6  23800818.958    23800823.884          18.250
        18.250
  33686507.982 6  26249228.516 6  25050837.755    25050843.595          14.500
        15.250
   2151046.664 6   1676710.729 6  24947324.419    24947329.903          13.250
        14.000
  24412187.177 6  19024782.974 6  25212723.677    25212728.970          12.750
        13.000
  12060990.837 6   9400354.834 6  23788564.364    23788569.935          18.750
        19.750
    353667.362 3    272656.403 5  26983370.083    26983376.618           5.750
         6.250
  51338510.012 4  40004030.395 5  26657163.599    26657168.950           6.500
         7.500
 97 10  4  1 17 30.0090000  0  7G18G14G19G22G16G 3G29
   2661555.248 6   2072927.625 6  23803522.966    23803527.919          18.250
        18.000
  33775417.440 6  26318508.598 6  25067756.841    25067762.517          14.500
        15.250
   2165422.724 6   1687912.883 6  24950060.138    24950065.708          13.250
        14.000
  24494296.964 6  19088764.631 6  25228348.606    25228353.735          12.750
        12.750
  12120161.431 6   9446461.785 6  23799824.192    23799829.884          18.500
        19.750
    364849.009 3    281369.414 5  26985498.286    26985504.454           5.750
         6.250
  51419545.218 4  40067174.725 5  26672584.052    26672589.290           6.500
         7.500
 97 10  4  1 17 45.0090000  0  7G18G14G19G22G16G 3G29
   2675839.623 6   2084058.320 6  23806241.239    23806246.036          18.250
        18.250
  33864393.468 6  26387840.560 6  25084688.388    25084694.165          14.500
        15.250
   2179840.279 6   1699147.353 6  24952803.786    24952809.216          13.250
        14.000
  24576499.440 6  19152818.518 6  25243991.138    25243996.114          12.500
        12.500
  12179470.301 6   9492676.486 6  23811110.247    23811115.845          18.500
        19.750
    376084.267 3    290124.208 5  26987636.145    26987642.247           5.750
         6.250
  51500633.088 4  40130360.072 5  26688014.481    26688019.770           6.500
         7.500
 97 10  4  1 18  0.0090000  0  7G18G14G19G22G16G 3G29
   2690195.537 6   2095244.759 6  23808973.114    23808977.919          18.500
        18.250
  33953435.622 6  26457224.049 6  25101632.450    25101638.212          14.500
        15.000
   2194295.324 6   1710411.039 6  24955554.349    24955559.884          13.250
        14.000
  24658791.559 6  19216942.251 6  25259650.575    25259655.876          12.500
        12.750
  12238918.117 6   9538999.454 6  23822422.786    23822428.493          18.500
        19.750
    387373.027 3    298920.692 5  26989784.044    26989790.267           5.750
         6.000
  51581773.342 4  40193586.240 5  26703455.122    26703460.227           6.500
         7.250
 97 10  4  1 18 15.0090000  0  7G18G14G19G22G16G 3G29
   2704627.131 6   2106490.170 6  23811719.419    23811724.083          18.500
        18.000
  34042552.068 6  26526665.422 6  25118590.849    25118596.552          14.500
        15.000
   2208793.777 6   1721708.553 6  24958313.403    24958318.888          13.250
        14.000
  24741179.126 6  19281140.355 6  25275328.544    25275334.020          12.500
        12.750
  12298512.104 6   9585436.322 6  23833763.091    23833768.802          18.500
        19.750
    398723.106 3    307764.948 5  26991943.786    26991950.044           5.750
         6.250
  51662969.942 4  40256856.310 5  26718906.200    26718911.267           6.500
         7.250
 97 10  4  1 18 30.0100000  0  7G18G14G19G22G16G 3G29
   2719133.439 6   2117793.794 6  23814479.721    23814484.404          18.500
        18.250
  34131745.198 6  26596166.552 6  25135563.635    25135569.389          14.500
        15.000
   2223337.668 6   1733041.469 6  24961080.971    24961086.310          13.250
        14.000
  24823666.415 6  19345416.166 6  25291025.494    25291030.725          12.500
        12.500
  12358255.493 6   9631989.599 6  23845131.908    23845137.533          18.500
        19.750
    410131.674 3    316654.776 5  26994115.213    26994121.244           6.000
         6.250
  51744224.527 4  40320171.577 5  26734368.580    26734373.744           6.500
         7.250
 97 10  4  1 18 45.0100000  0  7G18G14G19G22G16G 3G29
   2733711.576 6   2129153.397 6  23817253.971    23817258.518          18.500
        18.250
  34221000.405 6  26665716.056 6  25152548.228    25152554.014          14.250
        14.750
   2237924.726 6   1744408.022 6  24963856.775    24963862.303          13.250
        14.250
  24906240.760 6  19409759.824 6  25306738.830    25306744.260          12.500
        12.750
  12418140.540 6   9678653.271 6  23856527.588    23856533.271          18.500
        19.750
    421601.020 3    325591.956 5  26996297.533    26996303.521           6.000
         6.500
  51825526.657 4  40383523.890 5  26749839.674    26749844.748           6.500
         7.250
 97 10  4  1 19  0.0100000  0  7G18G14G19G22G16G 3G29
   2748349.250 6   2140559.392 6  23820039.463    23820044.185          18.750
        18.250
  34310312.841 6  26735310.150 6  25169543.908    25169549.685          14.250
        14.750
   2252544.694 6   1755800.220 6  24966638.697    24966644.221          13.250
        14.250
  24988895.877 6  19474166.413 6  25322467.760    25322472.885          12.750
        12.750
  12478157.173 6   9725419.475 6  23867948.549    23867954.127          18.500
        19.750
    433125.789 3    334572.338 5  26998490.572    26998496.920           6.000
         6.500
  51906869.418 4  40446907.867 5  26765318.564    26765323.756           6.500
         7.250
 97 10  4  1 19 15.0100000  0  7G18G14G19G22G16G 3G29
   2763047.985 6   2152012.963 6  23822836.408    23822841.033          18.750
        18.250
  34399689.443 6  26804954.245 6  25186551.635    25186557.373          14.000
        14.750
   2267202.880 6   1767222.190 6  24969428.072    24969433.560          13.250
        14.250
  25071635.864 6  19538639.120 6  25338212.283    25338217.717          12.500
        12.500
  12538309.053 6   9772291.064 6  23879395.049    23879400.596          18.500
        19.750
    444713.828 3    343602.015 5  27000695.369    27000701.873           6.000
         6.500
  51988258.012 4  40510327.551 5  26780806.424    26780811.975           6.500
         7.500
 97 10  4  1 19 30.0100000  0  7G18G14G19G22G16G 3G29
   2777808.491 6   2163514.665 6  23825645.135    23825649.982          18.750
        18.250
  34489130.755 6  26874648.767 6  25203571.674    25203577.611          14.000
        14.750
   2281905.280 6   1778678.622 6  24972225.869    24972231.482          13.250
        14.250
  25154463.532 6  19603180.178 6  25353973.908    25353979.162          12.500
        12.500
  12598598.173 6   9819269.595 6  23890867.721    23890873.283          18.750
        19.750
    456373.269 3    352687.344 5  27002914.299    27002920.756           6.000
         6.500
  52069697.992 4  40573787.268 5  26796303.643    26796309.607           6.500
         7.500
 97 10  4  1 19 45.0100000  0  7G18G14G19G22G16G 3G29
   2792625.962 6   2175060.757 6  23828464.838    23828469.744          18.500
        18.500
  34578632.803 6  26944390.605 6  25220603.291    25220609.178          13.750
        14.750
   2296649.766 6   1790167.845 6  24975031.627    24975037.135          13.250
        14.250
  25237378.957 6  19667789.600 6  25369752.361    25369757.475          12.500
        12.500
  12659021.060 6   9866352.358 6  23902365.775    23902371.287          18.500
        19.750
    468100.880 4    361825.779 5  27005146.244    27005152.189           6.250
         6.500
  52151187.859 4  40637285.875 5  26811810.783    26811815.814           6.500
         7.250
 97 10  4  1 20  0.0100000  0  7G18G14G19G22G16G 3G29
   2807501.276 6   2186651.922 6  23831295.580    23831300.467          18.750
        18.500
  34668200.470 6  27014183.586 6  25237647.596    25237653.537          13.500
        14.750
   2311440.770 6   1801693.321 6  24977846.221    24977851.869          13.500
        14.250
  25320383.848 6  19732468.745 6  25385547.807    25385552.838          12.750
        12.500
  12719579.449 6   9913540.712 6  23913889.627    23913895.287          18.750
        19.750
    479897.122 4    371017.691 5  27007390.955    27007396.654           6.250
         6.250
  52232728.113 4  40700823.735 5  26827327.244    26827332.482           6.250
         7.250
 97 10  4  1 20 15.0100000  0  7G18G14G19G22G16G 3G29
   2822433.207 6   2198287.205 6  23834137.033    23834141.951          18.750
        18.500
  34757830.799 6  27084025.388 6  25254703.533    25254709.533          13.500
        14.750
   2326278.409 6   1813255.135 6  24980669.736    24980675.174          13.500
        14.250
  25403473.973 6  19797214.300 6  25401359.158    25401364.650          12.500
        12.500
  12780267.798 6   9960830.326 6  23925438.353    23925443.959          18.750
        19.750
    491759.147 3    380260.864 5  27009648.150    27009653.975           6.000
         6.250
  52314313.691 4  40764396.923 5  26842852.455    26842858.092           6.250
         7.250
 97 10  4  1 20 30.0100000  0  7G18G14G19G22G16G 3G29
   2837423.010 6   2209967.582 6  23836989.588    23836994.326          18.750
        18.500
  34847521.712 6  27153914.399 6  25271771.228    25271777.264          13.500
        14.750
   2341161.196 6   1824852.120 6  24983501.877    24983507.412          13.500
        14.250
  25486650.660 6  19862027.305 6  25417187.041    25417192.611          12.250
        12.500
  12841084.023 6  10008219.585 6  23937011.307    23937016.998          18.750
        19.750
    503685.900 4    389554.456 5  27011917.885    27011923.455           6.250
         6.250
  52395943.437 4  40828004.522 5  26858386.033    26858391.834           6.250
         7.250
 97 10  4  1 20 45.0100000  0  7G18G14G19G22G16G 3G29
   2852477.014 6   2221697.988 6  23839854.283    23839858.943          19.250
        18.500
  34937274.778 6  27223851.839 6  25288850.705    25288856.682          13.250
        14.750
   2356090.908 6   1836485.684 6  24986342.963    24986348.338          13.500
        14.250
  25569918.131 6  19926911.048 6  25433032.424    25433037.631          12.250
        12.500
  12902033.723 6  10055712.854 6  23948609.697    23948615.225          18.750
        19.750
    515681.577 4    398901.785 5  27014200.721    27014206.111           6.250
         6.250
  52477623.704 4  40891651.496 5  26873929.424    26873935.045           6.250
         7.250
 97 10  4  1 21  0.0100000  0  7G18G14G19G22G16G 3G29
   2867592.533 6   2233476.325 6  23842730.658    23842735.271          19.250
        18.500
  35027089.187 6  27293837.077 6  25305941.814    25305947.818          13.250
        14.750
   2371065.665 6   1848154.332 6  24989192.596    24989197.920          13.500
        14.500
  25653271.951 6  19991862.079 6  25448894.119    25448899.279          12.500
        12.250
  12963113.099 6  10103307.169 6  23960232.603    23960238.334          18.500
        20.000
    527743.167 4    408300.459 5  27016496.291    27016501.295           6.250
         6.250
  52559353.248 4  40955336.851 5  26889481.986    26889486.998           6.250
         7.000
 97 10  4  1 21 15.0100000  0  7G18G14G19G22G16G 3G29
   2882772.857 6   2245305.161 6  23845619.393    23845623.904          19.250
        18.500
  35116965.366 6  27363870.453 6  25323044.721    25323050.740          13.250
        14.750
   2386090.866 6   1859862.304 6  24992051.611    24992057.131          13.500
        14.500
  25736715.297 6  20056882.875 6  25464772.963    25464778.209          12.500
        12.250
  13024326.094 6  10151005.604 6  23971881.119    23971886.717          18.500
        20.000
    539867.939 4    417748.371 5  27018803.166    27018808.381           6.250
         6.250
  52641132.561 3  41019061.003 5  26905044.283    26905049.424           6.000
         7.000
 97 10  4  1 21 30.0100000  0  7G18G14G19G22G16G 3G29
   2898015.877 6   2257182.855 6  23848519.971    23848524.557          19.250
        18.500
  35206900.310 6  27433949.621 6  25340158.650    25340164.685          13.000
        14.750
   2401164.598 6   1871608.088 6  24994920.064    24994925.428          13.750
        14.500
  25820245.292 6  20121971.179 6  25480668.268    25480673.275          12.500
        12.000
  13085672.559 6  10198808.043 6  23983554.807    23983560.588          18.500
        20.000
    552050.760 3    427241.513 5  27021121.377    27021126.822           6.000
         6.500
  52722957.300 3  41082820.545 5  26920615.291    26920620.529           6.000
         7.000
 97 10  4  1 21 45.0100000  0  7G18G14G19G22G16G 3G29
   2913323.847 6   2269111.154 6  23851433.072    23851437.553          19.250
        18.500
  35296899.152 6  27504078.572 6  25357284.986    25357291.025          13.000
        14.750
   2416287.186 6   1883391.939 6  24997797.877    24997803.240          13.500
        14.500
  25903866.358 6  20187130.459 6  25496580.596    25496585.822          12.250
        12.250
  13147153.301 6  10246715.114 6  23995254.205    23995260.021          18.500
        20.000
    564292.020 3    436780.211 5  27023450.713    27023456.287           6.000
         6.500
  52804827.168 3  41146615.237 5  26936194.369    26936199.334           6.000
         6.750
 97 10  4  1 22  0.0100000  0  7G18G14G19G22G16G 3G29
   2928700.414 6   2281092.906 6  23854358.822    23854363.439          19.500
        18.500
  35386971.294 6  27574264.640 6  25374425.182    25374431.385          13.000
        14.750
   2431458.818 6   1895214.006 6  25000685.010    25000690.521          14.000
        14.500
  25987580.262 6  20252362.059 6  25512510.783    25512516.502          12.250
        12.250
  13208769.380 6  10294727.635 6  24006979.400    24006985.252          18.500
        20.000
    576594.250 4    446366.400 5  27025792.002    27025797.107           6.250
         6.500
  52886742.647 3  41210445.499 5  26951782.096    26951787.439           5.750
         6.750
 97 10  4  1 22 15.0100000  0  7G18G14G19G22G16G 3G29
   2944141.657 6   2293125.057 6  23857297.205    23857301.838          19.500
        18.500
  35477113.317 6  27644505.170 6  25391578.627    25391584.674          12.750
        14.750
   2446675.072 6   1907070.841 6  25003580.549    25003585.978          13.750
        14.750
  26071380.408 6  20317660.876 6  25528457.432    25528462.959          12.250
        12.250
  13270516.365 6  10342842.166 6  24018729.494    24018735.236          18.500
        20.000
    588957.848 4    456000.400 5  27028144.814    27028150.049           6.250
         6.250
  52968698.822 3  41274307.437 5  26967378.049    26967383.533           5.750
         6.750
 97 10  4  1 22 30.0100000  0  7G18G14G19G22G16G 3G29
   2959645.836 6   2305206.242 6  23860247.752    23860252.373          19.500
        18.500
  35567326.223 6  27714800.923 6  25408745.783    25408751.674          13.000
        14.500
   2461934.377 6   1918961.226 6  25006484.346    25006489.787          14.000
        14.500
  26155265.933 6  20383026.215 6  25544420.525    25544425.795          12.250
        12.000
  13332394.116 6  10391058.592 6  24030504.424    24030510.189          18.500
        20.000
    601382.956 3    465682.355 5  27030508.768    27030514.463           6.000
         6.500
  53050697.584 3  41338202.603 5  26982981.541    26982987.295           5.500
         6.750
 97 10  4  1 22 45.0100000  0  7G18G14G19G22G16G 3G29
   2975218.242 6   2317340.598 6  23863210.986    23863215.627          19.500
        18.500
  35657616.970 6  27785157.341 6  25425927.471    25425933.400          13.000
        14.500
   2477243.764 6   1930890.641 6  25009397.635    25009403.033          13.500
        14.500
  26239241.426 6  20448461.667 6  25560400.408    25560405.818          12.250
        12.000
  13394411.286 6  10439383.661 6  24042305.900    24042311.717          18.500
        20.000
    613874.851 3    475416.339 5  27032885.752    27032891.549           6.000
         6.500
  53132744.673 3  41402135.385 5  26998594.307    26998599.650           5.250
         6.500
 97 10  4  1 23  0.0100000  0  7G18G14G19G22G16G 3G29
   2990851.077 6   2329522.042 6  23866185.885    23866190.490          19.750
        18.750
  35747981.031 6  27855570.894 6  25443123.252    25443129.201          13.000
        14.500
   2492599.009 6   1942855.773 6  25012319.541    25012325.033          13.750
        14.500
  26323297.003 6  20513959.521 5  25576395.580    25576400.865          12.250
        11.750
  13456560.074 6  10487811.287 6  24054132.424    24054138.252          18.500
        20.000
    626428.836 3    485198.708 5  27035274.455    27035280.369           6.000
         6.500
  53214832.218 3  41466099.713 5  27014215.541    27014220.553           5.500
         6.750
 97 10  4  1 23 15.0100000  0  7G18G14G19G22G16G 3G29
   3006548.676 6   2341753.951 6  23869173.080    23869177.693          19.750
        18.750
  35838422.443 6  27926044.703 6  25460333.463    25460339.350          13.000
        14.500
   2508003.927 6   1954859.619 6  25015250.986    25015256.432          13.750
        14.750
  26407434.822 6  20579521.468 5  25592406.603    25592411.564          12.000
        11.750
  13518840.730 6  10536341.663 6  24065984.049    24065989.752          18.500
        20.000
    639048.905 3    495032.569 5  27037676.361    27037681.799           6.000
         6.500
  53296960.979 3  41530096.163 5  27029844.228    27029850.025           5.500
         6.750
 97 10  4  1 23 30.0100000  0  7G18G14G19G22G16G 3G29
   3022314.230 6   2354038.804 6  23872173.119    23872177.810          19.750
        18.750
  35928942.578 6  27996579.865 6  25477558.861    25477564.791          13.000
        14.500
   2523454.339 6   1966898.918 6  25018190.955    25018196.463          14.000
        14.750
  26491656.871 6  20645149.026 5  25608433.377    25608438.635          12.250
        11.750
  13581254.075 6  10584975.433 6  24077860.947    24077866.674          18.500
        20.000
    651739.248 3    504921.195 5  27040091.338    27040096.764           6.000
         6.750
  53379130.009 3  41594123.975 5  27045480.744    27045485.443           5.500
         6.500
 97 10  4  1 23 45.0100000  0  7G18G14G19G22G16G 3G29
   3038148.047 6   2366376.851 6  23875186.111    23875190.728          19.750
        18.750
  36019540.334 6  28067175.496 6  25494799.455    25494805.252          13.000
        14.500
   2538944.648 6   1978969.307 6  25021138.603    25021144.264          14.000
        14.750
  26575960.227 6  20710839.955 6  25624476.283    25624481.498          12.250
        12.000
  13643794.114 6  10633707.928 6  24089761.861    24089767.564          18.500
        20.000
    664503.298 3    514867.229 5  27042519.721    27042525.584           6.000
         6.500
  53461337.487 3  41658181.741 5  27061124.189    27061129.021           5.000
         6.250
 97 10  4  1 24  0.0100000  0  7G18G14G19G22G16G 3G29
   3054053.306 7   2378770.569 6  23878212.908    23878217.486          20.000
        18.750
  36110214.583 6  28137830.748 6  25512053.978    25512059.846          12.750
        14.250
   2554477.799 6   1991073.068 6  25024094.502    25024100.037          14.000
        14.750
  26660341.088 6  20776591.272 6  25640533.025    25640538.674          12.250
        12.000
  13706460.147 6  10682538.603 6  24101686.783    24101692.560          18.500
        20.000
    677341.904 3    524871.389 5  27044962.971    27044968.896           6.000
         6.500
  53543586.890 3  41722272.212 5  27076775.650    27076781.006           5.000
         6.250
 97 10  4  1 24 15.0100000  0  7G18G14G19G22G16G 3G29
   3070032.359 7   2391221.800 6  23881253.658    23881258.178          20.000
        18.750
  36200956.833 6  28208538.986 6  25529321.744    25529327.744          12.750
        14.250
   2570055.639 6   2003211.666 6  25027058.775    25027064.455          13.750
        14.750
  26744795.164 6  20842399.637 5  25656604.228    25656609.439          12.000
        11.750
  13769253.690 6  10731468.632 6  24113636.002    24113641.678          18.500
        20.000
    690253.372 3    534932.302 5  27047419.775    27047425.545           6.000
         6.500
  53625878.261 2  41786395.345 5  27092434.939    27092440.189           4.750
         6.250
 97 10  4  1 24 30.0100000  0  7G18G14G19G22G16G 3G29
   3086094.227 6   2403737.546 6  23884309.830    23884314.322          19.750
        18.750
  36291767.963 6  28279300.886 6  25546602.549    25546608.369          13.000
        14.250
   2585686.157 6   2015391.303 6  25030033.197    25030038.736          14.000
        14.750
  26829331.120 6  20908271.811 5  25672690.822    25672695.920          12.000
        11.750
  13832183.274 6  10780504.672 6  24125611.143    24125616.842          18.500
        20.000
    703241.818 3    545053.222 5  27049891.549    27049897.295           6.000
         6.750
  53708220.397 2  41850558.058 5  27108103.846    27108109.510           4.750
         6.250
 97 10  4  1 24 45.0100000  0  7G18G14G19G22G16G 3G29
   3102235.473 7   2416315.147 6  23887381.408    23887386.123          20.000
        18.750
  36382640.552 6  28350110.682 6  25563894.978    25563900.764          12.750
        14.250
   2601365.862 6   2027609.270 6  25033016.869    25033022.584          14.000
        15.000
  26913943.056 5  20974203.182 5  25688791.721    25688796.967          11.750
        11.500
  13895244.171 6  10829643.024 6  24137611.236    24137616.951          18.500
        20.000
    716301.547 4    555229.659 5  27052376.924    27052382.416           6.250
         6.500
  53790609.050 2  41914756.998 5  27123781.408    27123787.088           4.750
         6.000
 97 10  4  1 25  0.0100000  0  7G18G14G19G22G16G 3G29
   3118455.822 7   2428954.392 6  23890468.072    23890472.654          20.000
        18.750
  36473569.225 6  28420964.180 6  25581198.260    25581204.131          12.750
        14.000
   2617091.862 6   2039863.312 6  25036009.643    25036015.182          14.000
        14.750
  26998628.837 6  21040192.116 5  25704907.182    25704912.283          12.000
        11.500
  13958433.891 6  10878881.767 6  24149635.807    24149641.557          18.500
        20.000
    729432.993 4    565461.993 5  27054875.674    27054881.178           6.250
         6.500
  53873041.516 2  41978990.106 5  27139467.580    27139473.775           4.750
         6.250
 97 10  4  1 25 15.0100000  0  7G18G14G19G22G16G 3G29
   3134756.233 7   2441656.026 6  23893569.846    23893574.459          20.000
        18.750
  36564556.082 6  28491863.019 6  25598512.408    25598518.197          12.750
        14.000
   2632863.312 6   2052152.774 6  25039010.752    25039016.334          13.750
        15.000
  27083391.723 6  21106241.121 5  25721037.143    25721042.166          12.000
        11.500
  14021752.401 6  10928220.859 6  24161685.096    24161690.670          18.500
        20.000
    742639.635 4    575752.919 5  27057388.478    27057394.084           6.250
         6.500
  53955522.479 2  42043260.994 5  27155163.213    27155169.498           4.750
         6.250
 97 10  4  1 25 30.0100000  0  7G18G14G19G22G16G 3G29
   3151139.984 6   2454422.592 6  23896687.822    23896692.432          19.750
        18.750
  36655600.918 6  28562807.032 6  25615837.603    25615843.428          12.750
        13.750
   2648680.172 6   2064477.618 6  25042020.619    25042026.139          14.000
        14.750
  27168235.249 5  21172352.959 5  25737182.033    25737187.338          11.750
        11.750
  14085204.501 6  10977664.059 6  24173759.572    24173765.185          18.500
        20.000
    755923.436 4    586103.956 5  27059916.228    27059921.998           6.250
         6.500
  54038055.756 3  42107572.644 5  27170869.932    27170875.615           5.000
         6.250
 97 10  4  1 25 45.0100000  0  7G18G14G19G22G16G 3G29
   3167603.708 7   2467251.471 6  23899820.736    23899825.314          20.000
        19.000
  36746704.154 6  28633796.559 6  25633174.018    25633179.818          12.750
        13.500
   2664541.133 6   2076836.827 6  25045038.791    25045044.478          14.000
        15.000
  27253159.038 5  21238527.337 5  25753342.549    25753347.975          11.500
        11.750
  14148789.978 6  11027211.176 6  24185859.432    24185865.049          18.500
        20.000
    769283.051 4    596514.076 5  27062458.603    27062464.162           6.500
         6.750
  54120644.399 3  42171927.431 5  27186586.893    27186590.853           5.000
         6.250
 97 10  4  1 26  0.0100000  0  7G18G14G19G22G16G 3G29
   3184144.556 7   2480140.457 6  23902968.393    23902972.900          20.000
        19.000
  36837865.729 6  28704831.533 6  25650521.432    25650527.424          12.500
        13.500
   2680449.537 6   2089233.005 6  25048066.135    25048071.803          14.000
        15.000
  27338162.220 5  21304763.589 5  25769517.924    25769523.557          11.500
        11.500
  14212508.375 6  11076861.872 6  24197984.596    24197990.307          18.250
        20.000
    782715.967 4    606981.319 5  27065014.932    27065020.463           6.500
         6.750
  54203290.923 3  42236327.304 5  27202313.213    27202318.307           5.500
         6.250
 97 10  4  1 26 15.0100000  0  7G18G14G19G22G16G 3G29
   3200756.370 7   2493084.734 6  23906129.510    23906133.986          20.000
        19.000
  36929082.527 6  28775909.558 6  25667879.408    25667885.303          12.500
        13.500
   2696401.943 6   2101663.468 6  25051101.682    25051107.420          14.000
        15.000
  27423242.556 5  21371059.937 5  25785708.346    25785713.432          11.750
        11.500
  14276358.016 6  11126614.839 6  24210134.838    24210140.576          18.250
        20.000
    796214.713 4    617499.857 5  27067583.721    27067589.252           6.500
         6.750
  54285992.569 3  42300770.165 5  27218050.103    27218055.971           5.000
         6.250
 97 10  4  1 26 30.0100000  0  7G18G14G19G22G16G 3G29
   3217437.213 7   2506082.804 6  23909303.721    23909308.268          20.000
        19.000
  37020355.248 6  28847031.141 6  25685248.080    25685253.994          12.500
        13.500
   2712394.033 6   2114124.852 6  25054144.846    25054150.459          14.000
        15.000
  27508402.596 5  21437418.428 5  25801914.103    25801919.088          11.750
        11.500
  14340337.581 6  11176469.047 6  24222309.697    24222315.381          18.250
        20.000
    809781.165 4    628071.146 5  27070165.283    27070170.740           6.750
         6.750
  54368745.623 3  42365253.055 5  27233797.502    27233802.963           5.250
         6.250
 97 10  4  1 26 45.0100000  0  7G18G14G19G22G16G 3G29
   3234186.614 7   2519134.292 6  23912491.080    23912495.592          20.000
        19.250
  37111691.440 6  28918202.189 6  25702628.744    25702634.615          12.500
        13.500
   2728425.779 6   2126617.141 6  25057195.619    25057201.213          14.000
        15.000
  27593643.789 5  21503840.147 5  25818134.564    25818140.033          11.500
        11.500
  14404444.529 6  11226422.506 6  24234508.978    24234514.576          18.250
        20.000
    823418.031 4    638697.310 5  27072760.010    27072765.924           6.750
         6.750
  54451550.335 3  42429776.229 5  27249554.447    27249560.451           5.000
         6.000
 97 10  4  1 27  0.0100000  0  6G18G14G19G22G16G 3
   3251005.633 7   2532240.033 6  23915691.549    23915696.041          20.000
        19.250
  37203093.293 6  28989424.407 6  25720022.002    25720027.889          12.500
        13.250
   2744498.203 6   2139141.121 6  25060254.197    25060259.756          14.250
        15.000
  27678969.574 5  21570327.771 5  25834371.713    25834376.893          11.500
        11.250
  14468679.227 6  11276475.512 6  24246732.299    24246737.971          18.250
        20.000
    837127.323 4    649379.896 5  27075368.846    27075374.443           6.750
         7.000
 97 10  4  1 27 15.0100000  0  6G18G14G19G22G16G 3
   3267890.786 6   2545397.305 6  23918904.525    23918909.041          19.750
        19.250
  37294557.419 6  29060695.145 6  25737427.057    25737432.963          12.250
        13.250
   2760607.123 6   2151693.547 6  25063319.439    25063325.096          14.250
        15.250
  27764380.704 5  21636881.894 5  25850624.994    25850630.279          11.500
        11.250
  14533037.249 6  11326624.623 6  24258979.275    24258984.896          18.000
        20.000
    850904.781 4    660115.621 5  27077990.728    27077996.443           6.750
         7.250
 97 10  4  1 27 30.0100000  0  6G18G14G19G22G16G 3
   3284843.321 6   2558607.088 6  23922130.346    23922135.127          19.750
        19.250
  37386081.376 6  29132012.509 6  25754843.463    25754849.432          12.250
        13.250
   2776756.027 6   2164277.125 6  25066392.588    25066397.982          14.250
        15.000
  27849875.789 5  21703501.440 5  25866893.924    25866899.279          11.500
        11.500
  14597516.911 6  11376868.511 6  24271249.299    24271254.932          18.250
        19.750
    864749.217 4    670903.514 5  27080625.439    27080631.115           7.000
         7.250
 97 10  4  1 27 45.0100000  0  6G18G14G19G22G16G 3
   3301868.349 6   2571873.344 6  23925370.275    23925374.885          19.750
        19.250
  37477666.748 6  29203377.715 6  25772271.596    25772277.518          12.000
        13.250
   2792951.331 6   2176896.855 6  25069474.205    25069479.775          14.250
        15.250
  27935457.082 5  21770188.164 5  25883179.643    25883184.951          11.500
        11.500
  14662121.274 6  11427209.567 6  24283543.103    24283548.744          18.000
        19.750
    878663.523 4    681745.867 5  27083272.924    27083278.810           7.250
         7.250
 97 10  4  1 28  0.0110000  0  6G18G14G19G22G16G 3
   3318968.451 6   2585198.106 6  23928624.296    23928629.015          19.750
        19.250
  37569319.145 6  29274795.155 6  25789712.538    25789718.511          12.250
        13.250
   2809200.165 6   2189558.302 6  25072566.530    25072572.120          14.250
        15.250
  28021131.266 5  21836947.268 5  25899483.061    25899488.030          11.500
        11.250
  14726854.593 6  11477651.114 6  24295861.413    24295867.081          18.000
        19.750
    892648.548 4    692643.328 5  27085934.366    27085939.952           7.250
         7.000
 97 10  4  1 28 15.0110000  0  6G18G14G19G22G16G 3
   3336135.948 6   2598575.391 6  23931891.272    23931895.870          19.750
        19.250
  37661016.640 5  29346247.734 6  25807161.897    25807167.858          11.750
        13.250
   2825495.152 6   2202255.711 6  25075667.147    25075672.604          14.250
        15.250
  28106877.522 5  21903762.534 5  25915799.827    25915804.956          11.500
        11.250
  14791702.674 6  11528182.080 6  24308201.507    24308207.222          17.750
        19.750
    906695.919 4    703589.352 5  27088607.515    27088613.222           7.250
         7.000
 97 10  4  1 28 30.0110000  0  6G18G14G19G22G16G 3
   3353380.227 6   2612012.492 6  23935172.718    23935177.241          19.750
        19.250
  37752769.515 5  29417743.464 6  25824621.780    25824627.956          11.750
        13.250
   2841842.087 6   2214993.603 6  25078777.897    25078783.436          14.250
        15.250
  28192705.669 5  21970641.610 5  25932132.077    25932137.655          11.250
        11.250
  14856676.385 6  11578810.946 6  24320565.686    24320571.444          17.750
        19.750
    920816.447 4    714592.410 5  27091294.569    27091300.249           7.250
         7.250
 97 10  4  1 28 45.0110000  0  6G18G14G19G22G16G 3
   3370702.569 6   2625510.429 6  23938469.085    23938473.632          19.750
        19.250
  37844577.985 5  29489282.521 6  25842092.429    25842098.413          11.750
        13.250
   2858244.078 6   2227774.388 6  25081899.015    25081904.561          14.250
        15.250
  28278617.159 5  22037585.626 5  25948480.952    25948486.101          11.500
        11.250
  14921775.988 6  11629537.899 6  24332953.624    24332959.405          17.500
        19.750
    935013.044 4    725654.726 5  27093995.851    27094001.550           7.250
         7.250
 97 10  4  1 29  0.0110000  0  6G18G14G19G22G16G 3
   3388104.133 6   2639070.103 6  23941780.413    23941785.038          19.750
        19.250
  37936440.489 5  29560863.686 6  25859573.218    25859579.585          11.500
        13.500
   2874704.407 6   2240600.640 6  25085031.382    25085036.913          14.250
        15.500
  28364612.346 5  22104594.872 5  25964845.038    25964850.179          11.250
        11.250
  14987003.653 6  11680364.653 6  24345365.929    24345371.827          17.750
        19.750
    949284.680 4    736775.511 5  27096711.202    27096717.140           7.000
         7.000
 97 10  4  1 29 15.0110000  0  6G18G14G19G22G16G 3
   3405581.278 6   2652688.665 6  23945106.343    23945110.886          19.750
        19.250
  38028351.922 5  29632482.973 6  25877063.616    25877069.601          11.500
        13.500
   2891219.728 6   2253469.732 6  25088174.171    25088179.690          14.250
        15.500
  28450685.989 5  22171665.235 5  25981224.327    25981229.819          11.000
        11.250
  15052357.667 6  11731289.859 6  24357802.483    24357808.366          17.750
        20.000
    963630.125 4    747953.816 5  27099440.944    27099446.886           6.750
         7.000
 97 10  4  1 29 30.0110000  0  6G18G14G19G22G16G 3
   3423135.075 6   2666366.955 6  23948446.671    23948451.280          19.500
        19.250
  38120314.663 5  29704142.229 6  25894563.421    25894569.643          11.500
        13.250
   2907791.748 6   2266383.010 6  25091327.671    25091333.315          14.250
        15.500
  28536835.153 5  22238794.456 5  25997618.304    25997623.241          11.500
        11.000
  15117841.031 6  11782315.855 6  24370263.593    24370269.460          17.750
        19.750
    978052.117 4    759191.760 5  27102185.554    27102191.323           6.750
         7.250
 97 10  4  1 29 45.0110000  0  6G18G14G19G22G16G 3
   3440767.471 6   2680106.495 6  23951801.960    23951806.604          19.500
        19.500
  38212333.440 5  29775845.161 6  25912073.936    25912080.202          11.500
        13.500
   2924419.752 6   2279339.915 6  25094491.827    25094497.354          14.250
        15.750
  28623058.357 5  22305981.368 5  26014025.811    26014030.753          11.000
        11.000
  15183455.667 6  11833444.139 6  24382749.624    24382755.468          17.750
        19.750
    992552.285 4    770490.623 5  27104944.733    27104950.733           6.750
         7.000
 97 10  4  1 30  0.0110000  0  6G18G14G19G22G16G 3
   3458485.084 6   2693912.436 6  23955173.397    23955178.097          19.250
        19.500
  38304415.795 5  29847597.625 6  25929596.694    25929602.940          11.500
        13.500
   2941104.201 6   2292340.800 6  25097666.804    25097672.331          14.500
        15.500
  28709363.172 5  22373231.878 5  26030448.874    26030454.132          11.000
        11.000
  15249206.591 6  11884678.622 6  24395261.718    24395267.585          17.750
        19.750
   1007136.976 4    781855.345 5  27107720.226    27107725.804           6.750
         7.250
 97 10  4  1 30 15.0110000  0  6G18G14G19G22G16G 3
   3476286.955 6   2707784.034 6  23958560.976    23958565.604          19.250
        19.500
  38396562.802 5  29919400.478 6  25947131.624    25947137.811          11.250
        13.500
   2957840.450 6   2305382.046 6  25100851.608    25100856.936          14.500
        15.500
  28795747.581 5  22440544.405 5  26046887.452    26046892.768          11.250
        11.250
  15315093.012 6  11936018.688 6  24407799.515    24407805.214          17.750
        19.750
   1021806.676 4    793286.315 5  27110511.585    27110517.241           6.750
         7.250
 97 10  4  1 30 30.0110000  0  6G18G14G19G22G16G 3
   3494166.350 6   2721716.038 6  23961963.093    23961967.936          19.250
        19.500
  38488767.661 5  29991248.409 6  25964677.647    25964684.011          11.500
        13.500
   2974616.651 6   2318454.425 6  25104043.960    25104049.499          14.500
        15.750
  28882203.830 5  22507912.903 5  26063339.366    26063345.018          11.000
        11.250
  15381105.966 6  11987457.346 6  24420361.272    24420367.124          17.500
        19.750
   1036557.971 4    804780.883 5  27113318.671    27113324.643           6.750
         7.250
 97 10  4  1 30 45.0110000  0  6G18G14G19G22G16G 3
   3512129.081 6   2735712.978 6  23965381.452    23965386.159          19.250
        19.500
  38581033.834 5  30063144.111 6  25982235.436    25982241.651          11.500
        13.500
   2991435.521 6   2331560.060 6  25107244.554    25107249.968          14.500
        15.500
  28968737.689 5  22575341.891 5  26079806.436    26079811.374          11.250
        11.000
  15447246.918 6  12038995.749 6  24432947.538    24432953.425          17.750
        20.000
   1051394.561 4    816341.880 5  27116142.280    27116148.046           6.750
         7.250
 97 10  4  1 31  0.0110000  0  6G18G14G19G22G16G 3
   3530170.681 6   2749771.376 6  23968814.624    23968819.405          19.250
        19.250
  38673358.163 5  30135085.135 6  25999804.233    25999810.343          11.500
        13.250
   3008291.914 6   2344694.923 6  25110452.179    25110457.534          14.500
        15.500
  29055346.634 5  22642829.384 5  26096287.843    26096292.663          11.500
        10.750
  15513511.070 6  12090630.146 6  24445557.288    24445563.003          17.750
        19.750
   1066312.611 4    827966.355 5  27118980.944    27118986.784           7.000
         7.500
 97 10  4  1 31 15.0110000  0  6G18G14G19G22G16G 3
   3548298.562 6   2763897.008 6  23972264.327    23972268.995          19.250
        19.250
  38765748.064 5  30207077.269 6  26017385.311    26017391.565          11.250
        13.250
   3025190.058 6   2357862.322 6  25113667.858    25113673.300          14.500
        15.750
  29142035.480 5  22710379.132 5  26112784.015    26112789.179          11.250
        11.000
  15579905.444 6  12142366.018 6  24458191.710    24458197.526          17.750
        20.000
   1081319.204 4    839659.828 5  27121836.468    27121842.706           6.750
         7.250
 97 10  4  1 31 30.0110000  0  6G18G14G19G22G16G 3
   3566511.972 6   2778089.285 6  23975730.132    23975734.831          19.250
        19.250
  38858203.137 5  30279120.161 6  26034979.077    26034985.206          11.500
        13.250
   3042126.133 6   2371059.278 6  25116890.671    25116896.038          14.500
        15.750
  29228801.519 5  22777989.026 5  26129294.530    26129300.171          11.000
        11.000
  15646429.267 6  12194202.758 6  24470850.851    24470856.659          17.750
        20.000
   1096414.327 4    851422.305 5  27124709.015    27124714.819           6.750
         7.250
 97 10  4  1 31 45.0110000  0  6G18G14G19G22G16G 3
   3584810.726 6   2792348.068 6  23979212.413    23979216.925          19.250
        19.500
  38950719.695 5  30351210.970 6  26052584.335    26052590.397          11.250
        13.250
   3059097.629 6   2384283.836 6  25120120.155    25120125.694          14.750
        15.750
  29315643.417 5  22845658.037 5  26145820.218    26145825.597          11.000
        10.750
  15713079.379 6  12246137.909 6  24483533.858    24483539.741          17.500
        20.000
   1111593.092 4    863249.940 5  27127597.366    27127603.112           7.000
         7.500
 97 10  4  1 32  0.0110000  0  6G18G14G19G22G16G 3
   3603194.919 6   2806673.416 6  23982710.819    23982715.390          19.250
        19.250
  39043297.577 5  30423349.575 6  26070201.452    26070207.542          11.250
        13.250
   3076104.496 6   2397535.955 6  25123356.585    25123361.933          14.750
        16.000
  29402560.813 5  22913385.886 5  26162360.296    26162365.214          11.250
        10.750
  15779856.338 6  12298171.907 6  24496241.163    24496247.042          17.500
        20.000
   1126856.348 4    875143.428 5  27130501.858    27130507.745           6.750
         7.500
 97 10  4  1 32 15.0110000  0  6G18G14G19G22G16G 3
   3621666.009 6   2821066.487 6  23986225.733    23986230.327          19.250
        19.250
  39135938.027 5  30495536.924 6  26087830.179    26087836.249          11.000
        13.000
   3093155.861 6   2410822.746 6  25126601.108    25126606.538          14.750
        16.000
  29489557.223 5  22981175.297 5  26178915.194    26178920.249          11.250
        11.000
  15846768.083 6  12350310.921 6  24508973.968    24508979.847          17.500
        20.000
   1142209.468 4    887106.922 5  27133423.429    27133429.409           6.750
         7.500
 97 10  4  1 32 30.0110000  0  6G18G14G19G22G16G 3
   3640215.787 6   2835520.862 6  23989755.561    23989760.163          19.250
        19.250
  39228630.752 5  30567765.012 6  26105469.132    26105475.097          11.000
        12.750
   3110248.025 6   2424141.338 6  25129853.882    25129859.229          14.750
        15.750
  29576624.595 5  23049020.004 5  26195483.436    26195488.929          11.250
        11.000
  15913808.697 6  12402550.360 6  24521731.272    24521737.190          17.500
        19.750
   1157644.016 4    899133.885 5  27136360.382    27136365.976           6.750
         7.500
 97 10  4  1 32 45.0110000  0  6G18G14G19G22G16G 3
   3658847.677 6   2850039.229 6  23993300.952    23993305.546          19.250
        19.250
  39321378.560 5  30640036.026 6  26123118.522    26123124.413          11.250
        12.750
   3127386.312 6   2437495.864 6  25133114.952    25133120.339          14.750
        15.750
  29663766.849 5  23116923.053 5  26212066.085    26212071.151          11.000
        10.750
  15980981.160 6  12454892.536 6  24534513.772    24534519.608          17.250
        19.500
   1173159.543 4    911223.940 5  27139313.265    27139318.616           7.000
         7.250
 97 10  4  1 33  0.0110000  0  6G18G14G19G22G16G 3
   3677562.889 6   2864622.526 6  23996862.374    23996867.018          19.250
        19.250
  39414185.081 5  30712352.789 6  26140779.007    26140784.917          11.250
        12.500
   3144574.525 6   2450889.296 6  25136385.679    25136391.011          14.750
        15.750
  29750987.086 5  23184886.882 5  26228663.226    26228668.382          10.750
        10.500
  16048290.257 6  12507341.188 6  24547322.155    24547328.124          17.250
        19.750
   1188754.244 4    923375.684 5  27142280.374    27142285.776           7.000
         7.500
 97 10  4  1 33 15.0110000  0  6G18G14G19G22G16G 3
   3696356.502 6   2879266.905 6  24000438.765    24000443.472          19.000
        19.500
  39507047.415 5  30784713.039 6  26158450.280    26158456.069          11.250
        12.500
   3161810.786 6   2464320.166 6  25139665.952    25139671.120          14.750
        15.750
  29838280.459 5  23252907.690 5  26245275.116    26245280.390          11.000
        10.750
  16115735.430 6  12559895.862 6  24560156.561    24560162.511          17.250
        19.500
   1204423.713 4    935585.695 5  27145262.710    27145267.925           7.000
         7.500
 97 10  4  1 33 30.0110000  0  6G18G14G19G22G16G 3
   3715230.944 6   2893974.274 6  24004030.311    24004035.022          19.250
        19.250
  39599968.461 5  30857119.043 6  26176132.616    26176138.401          11.000
        12.250
   3179099.220 6   2477791.683 6  25142955.694    25142961.015          14.750
        15.750
  29925647.622 5  23320986.003 5  26261900.515    26261905.741          11.250
        10.750
  16183321.914 6  12612560.646 6  24573017.804    24573023.694          17.000
        19.500
   1220170.911 4    947856.267 5  27148259.257    27148264.315           7.250
         7.250
 97 10  4  1 33 45.0110000  0  6G18G14G19G22G16G 3
   3734173.763 6   2908734.919 6  24007635.054    24007639.659          19.250
        19.250
  39692933.774 5  30929559.542 6  26193823.179    26193828.979          11.250
        12.250
   3196431.999 6   2491297.761 6  25146253.913    25146259.136          14.750
        15.750
  30013076.291 5  23389112.244 5  26278537.108    26278541.858          11.000
        10.250
  16251034.948 6  12665324.054 6  24585903.171    24585909.018          17.000
        19.500
   1235984.531 4    960178.596 5  27151268.476    27151273.589           7.000
         7.500
 97 10  4  1 34  0.0110000  0  6G18G14G19G22G16G 3
   3753185.323 6   2923549.132 6  24011252.905    24011257.421          19.250
        19.250
  39785943.472 5  31002034.627 6  26211522.343    26211527.983          10.750
        12.250
   3213813.694 6   2504841.953 6  25149561.405    25149566.745          14.750
        15.750
  30100567.299 5  23457287.059 5  26295186.655    26295191.714          11.250
        10.500
  16318873.904 6  12718185.575 6  24598812.468    24598818.452          17.000
        19.500
   1251867.175 4    972554.717 5  27154290.811    27154295.851           7.250
         7.500
 97 10  4  1 34 15.0110000  0  7G18G14G19G22G16G 3G31
   3772270.695 6   2938420.862 6  24014884.757    24014889.343          19.250
        19.250
  39878999.787 5  31074546.029 6  26229230.397    26229236.202          11.000
        12.250
   3231250.666 6   2518429.220 6  25152879.686    25152885.058          14.750
        16.000
  30188124.772 5  23525513.673 5  26311848.413    26311853.077          11.000
        10.750
  16386842.252 6  12771147.920 6  24611746.436    24611752.229          17.000
        19.250
   1267827.299 4    984991.201 5  27157328.163    27157332.835           7.250
         7.250
      -419.60413                                  27591939.483           5.500

 97 10  4  1 34 30.0110000  0  7G18G14G19G22G16G 3G31
   3791430.457 6   2953350.549 6  24018530.811    24018535.272          19.500
        19.250
  39972099.110 5  31147090.950 6  26246946.710    26246952.561          10.750
        12.000
   3248737.854 6   2532055.614 6  25156207.265    25156212.796          14.750
        16.000
  30275748.618 5  23593791.984 5  26328522.093    26328527.948          10.750
        10.750
  16454934.719 6  12824206.983 6  24624704.007    24624709.808          17.250
        19.250
   1283863.299 4    997486.807 5  27160379.351    27160384.300           7.250
         7.250
     -3555.559 3      -813.26815  27591341.710    27591347.886           5.000
         5.500
 97 10  4  1 34 45.0110000  0  7G18G14G19G22G16G 3G31
   3810668.406 6   2968341.177 6  24022191.655    24022196.136          19.500
        19.250
  40065246.165 5  31219673.069 5  26264671.999    26264677.694          10.750
        11.750
   3266273.972 6   2545720.139 6  25159544.288    25159549.792          15.000
        16.000
  30363442.453 5  23662124.848 5  26345209.921    26345214.675          11.000
        10.250
  16523148.515 6  12877360.592 6  24637684.749    24637690.362          17.250
        19.250
   1299978.608 4   1010044.226 5  27163445.632    27163451.186           7.000
         7.250
     -6675.999 3     -3244.729 5  27590748.921    27590753.675           5.250
         5.500
 97 10  4  1 35  0.0110000  0  7G18G14G19G22G16G 3G31
   3829985.246 6   2983393.261 6  24025867.515    24025872.061          19.500
        19.500
  40158444.370 5  31292295.038 5  26282406.890    26282412.819          10.500
        11.750
   3283857.941 6   2559421.945 6  25162890.390    25162895.901          15.000
        16.000
  30451205.071 5  23730511.313 5  26361910.569    26361915.397          11.000
        10.250
  16591484.732 6  12930609.587 6  24650688.718    24650694.413          17.250
        19.250
   1316177.484 4   1022666.755 5  27166528.202    27166533.823           7.000
         7.500
     -9781.414 3     -5664.498 5  27590157.436    27590162.683           5.000
         5.500
 97 10  4  1 35 15.0110000  0  7G18G14G19G22G16G 3G31
   3849378.833 6   2998505.161 6  24029558.022    24029562.558          19.500
        19.250
  40251688.584 5  31364952.865 5  26300150.585    26300156.534          10.500
        11.750
   3301487.961 6   2573159.636 6  25166245.311    25166250.722          15.000
        16.000
  30539034.412 5  23798949.775 5  26378623.921    26378629.405          10.750
        10.500
  16659939.202 6  12983950.732 6  24663715.226    24663720.757          17.250
        19.250
   1332462.472 4   1035356.387 5  27169627.561    27169632.694           7.250
         7.500
    -12878.116 3     -8077.473 5  27589568.421    27589574.101           5.000
         5.500
 97 10  4  1 35 30.0110000  0  7G18G14G19G22G16G 3G31
   3868853.594 6   3013680.305 6  24033263.733    24033268.280          19.250
        19.250
  40344979.813 5  31437647.321 5  26317903.343    26317909.386          10.000
        11.750
   3319168.408 6   2586936.626 6  25169609.710    25169615.261          15.000
        16.000
  30626931.972 5  23867441.376 5  26395350.632    26395355.241          10.750
        10.000
  16728511.189 6  13037383.447 6  24676764.140    24676769.620          17.500
        19.250
   1348839.322 4   1048117.582 5  27172743.530    27172748.819           7.000
         7.250
    -15964.289 3    -10482.238 5  27588980.452    27588986.292           5.000
         5.750
 97 10  4  1 35 45.0110000  0  7G18G14G19G22G16G 3G31
   3888408.107 6   3028917.597 6  24036984.749    24036989.319          19.250
        19.250
  40438311.828 5  31510373.554 5  26335663.811    26335669.882          10.000
        11.500
   3336894.725 6   2600749.355 6  25172983.015    25172988.503          15.000
        16.000
  30714894.936 5  23935983.953 5  26412088.952    26412094.190          10.750
        10.000
  16797191.277 6  13090900.399 6  24689833.515    24689838.944          17.500
        19.250
   1365304.817 4   1060947.877 5  27175876.811    27175882.331           7.000
         7.250
    -19047.185 3    -12884.458 5  27588394.593    27588399.706           5.000
         5.750
 97 10  4  1 36  0.0110000  0  7G18G14G19G22G16G 3G31
   3908048.381 6   3044221.712 6  24040722.163    24040726.733          19.500
        19.250
  40531688.848 5  31583134.868 5  26353432.835    26353439.159           9.750
        11.500
   3354668.718 6   2614599.230 6  25176365.272    25176370.788          15.000
        16.000
  30802926.979 5  24004580.365 5  26428840.593    26428845.991          10.500
        10.250
  16865981.261 6  13144502.982 6  24702923.827    24702929.222          17.500
        19.000
   1381860.085 4   1073848.095 5  27179026.991    27179032.436           7.000
         7.250
    -22125.008 3    -15282.721 5  27587808.366    27587814.085           5.000
         5.750
 97 10  4  1 36 15.0110000  0  7G18G14G19G22G16G 3G31
   3927777.873 6   3059595.357 6  24044476.741    24044481.386          19.500
        19.500
  40625113.167 5  31655933.033 5  26371210.733    26371216.804           9.750
        11.500
   3372489.257 6   2628485.385 6  25179756.218    25179761.890          15.000
        16.000
  30891031.011 5  24073232.852 5  26445606.546    26445612.077          10.750
        10.500
  16934885.446 6  13198194.555 6  24716035.905    24716041.339          17.500
        19.000
   1398508.248 4   1086820.729 5  27182194.804    27182200.659           6.750
         7.250
    -25197.041 3    -17676.483 5  27587224.015    27587229.206           5.000
         5.750
 97 10  4  1 36 30.0110000  0  7G18G14G19G22G16G 3G31
   3947599.247 6   3075040.593 6  24048248.522    24048253.058          19.500
        19.500
  40718587.771 5  31728770.378 5  26388998.538    26389004.640           9.750
        11.500
   3390355.730 6   2642407.327 6  25183156.124    25183161.745          15.000
        16.000
  30979211.239 5  24141944.730 5  26462386.811    26462392.069          10.750
        10.500
  17003904.303 6  13251975.484 6  24729169.718    24729175.151          17.750
        19.000
   1415249.593 4   1099865.958 5  27185380.804    27185386.573           6.750
         7.250
    -28259.407 3    -20062.688 5  27586640.874    27586646.749           5.000
         5.750
 97 10  4  1 36 45.0110000  0  7G18G14G19G22G16G 3G31
   3967509.861 6   3090555.367 6  24052037.522    24052042.015          19.750
        19.500
  40812113.357 5  31801647.457 5  26406795.741    26406801.796           9.750
        11.500
   3408266.914 6   2656364.111 6  25186564.515    25186570.054          15.250
        16.250
  31067464.596 5  24210713.583 5  26479181.022    26479185.651          10.500
         9.750
  17073034.539 6  13305843.197 6  24742324.897    24742330.272          17.500
        19.250
   1432078.823 4   1112979.672 5  27188583.319    27188588.421           7.000
         7.250
    -31311.843 3    -22441.183 5  27586060.249    27586065.366           5.000
         6.000
 97 10  4  1 37  0.0110000  0  7G18G14G19G22G16G 3G31
   3987507.143 6   3106137.679 6  24055842.858    24055847.386          19.750
        19.250
  40905688.260 5  31874562.955 5  26424602.413    26424608.612           9.500
        11.250
   3426224.934 6   2670357.379 6  25189981.874    25189987.237          15.000
        16.000
  31155786.964 5  24279536.222 5  26495987.679    26495992.866          10.000
         9.500
  17142276.799 6  13359798.204 6  24755501.304    24755506.749          17.750
        19.250
   1448993.036 4   1126159.613 5  27191801.468    27191807.296           7.000
         7.250
    -34356.010 3    -24813.237 5  27585480.561    27585486.280           5.000
         6.000
 97 10  4  1 37 15.0110000  0  7G18G14G19G22G16G 3G31
   4007592.032 6   3121788.252 6  24059664.929    24059669.362          19.750
        19.500
  40999308.011 5  31947513.404 5  26442417.718    26442423.972           9.750
        11.500
   3444230.016 6   2684387.335 6  25193408.077    25193413.456          15.250
        16.000
  31244175.283 5  24348410.241 5  26512807.296    26512812.518          10.250
         9.500
  17211631.034 6  13413840.468 6  24768698.921    24768704.390          17.750
        19.250
   1465991.822 4   1139405.448 5  27195036.374    27195042.167           6.750
         7.250
    -37391.339 3    -27178.389 5  27584903.335    27584908.624           5.000
         6.000
 97 10  4  1 37 30.0120000  0  7G18G14G19G22G16G 3G31
   4027766.650 6   3137508.741 6  24063504.004    24063508.547          19.750
        19.500
  41092977.281 5  32020502.442 5  26460242.418    26460248.500           9.750
        11.500
   3462284.738 6   2698455.968 6  25196843.894    25196849.187          15.250
        16.000
  31332637.159 5  24417341.575 5  26529641.394    26529647.187          10.500
        10.000
  17281103.939 6  13467975.194 6  24781919.160    24781924.711          17.750
        19.250
   1483077.287 4   1152718.827 5  27198287.676    27198293.469           7.000
         7.500
    -40414.790 3    -29534.283 5  27584327.715    27584333.281           5.000
         6.000
 97 10  4  1 37 45.0120000  0  7G18G14G19G22G16G 3G31
   4048029.474 6   3153297.963 6  24067359.754    24067364.316          19.750
        19.500
  41186686.070 5  32093522.260 5  26478074.777    26478080.871           9.750
        11.250
   3480384.517 6   2712559.701 6  25200288.215    25200293.559          15.250
        16.000
  31421158.480 5  24486319.227 5  26546486.644    26546491.453          10.500
         9.750
  17350689.742 6  13522197.894 6  24795160.894    24795166.570          17.500
        19.250
   1500249.150 4   1166099.524 5  27201555.738    27201561.160           7.000
         7.500
    -43421.610 3    -31877.218 5  27583755.457    27583761.254           5.000
         6.250
 97 10  4  1 38  0.0120000  0  7G18G14G19G22G16G 3G31
   4068382.163 6   3169157.215 6  24071232.723    24071237.266          19.750
        19.500
  41280442.096 5  32166578.893 5  26495915.887    26495921.976           9.750
        11.250
   3498528.067 6   2726697.551 6  25203740.809    25203746.105          15.250
        16.000
  31509743.839 5  24555346.782 5  26563343.582    26563348.789          10.250
         9.750
  17420396.061 6  13576514.505 6  24808425.527    24808431.277          17.500
        19.250
   1517510.717 4   1179550.137 5  27204839.801    27204845.859           6.750
         7.500
    -46411.241 3    -34206.748 5  27583186.238    27583192.012           5.000
         6.250
 97 10  4  1 38 15.0120000  0  7G18G14G19G22G16G 3G31
   4088825.554 7   3185087.131 6  24075123.004    24075127.531          20.000
        19.500
  41374247.583 5  32239674.072 5  26513766.355    26513772.441          10.000
        11.500
   3516718.027 6   2740871.563 6  25207202.168    25207207.437          15.250
        16.000
  31598396.616 5  24624426.882 5  26580213.738    26580219.043          10.000
         9.750
  17490227.231 6  13630928.401 6  24821713.793    24821719.621          17.500
        19.500
   1534867.489 4   1193074.920 5  27208142.934    27208148.805           6.750
         7.500
    -49378.470 3    -36518.862 5  27582622.012    27582627.519           5.500
         6.500
 97 10  4  1 38 30.0120000  0  7G18G14G19G22G16G 3G31
   4109354.818 7   3201083.976 6  24079029.644    24079034.164          20.000
        19.500
  41468097.936 5  32312804.210 5  26531625.543    26531631.703          10.000
        11.500
   3534949.936 6   2755078.257 6  25210671.582    25210676.816          15.500
        16.000
  31687112.862 5  24693556.425 5  26597095.738    26597101.008           9.750
         9.750
  17560179.387 6  13685436.571 6  24835025.285    24835031.180          17.500
        19.500
   1552317.414 4   1206672.297 5  27211463.504    27211469.383           7.000
         7.750
    -52325.810 3    -38815.447 5  27582060.832    27582066.500           5.500
         6.250
 97 10  4  1 38 45.0120000  0  7G18G14G19G22G16G 3G31
   4129971.698 7   3217149.090 6  24082952.973    24082957.484          20.000
        19.500
  41561993.628 5  32385969.678 5  26549493.426    26549499.496          10.000
        11.500
   3553224.452 6   2769318.152 6  25214149.137    25214154.391          15.500
        16.250
  31775890.534 5  24762733.835 5  26613989.715    26613994.801           9.750
         9.500
  17630254.274 6  13740040.376 6  24848359.988    24848365.949          17.250
        19.500
   1569860.238 4   1220342.061 5  27214801.871    27214807.574           7.000
         7.750
    -55251.849 3    -41095.435 5  27581504.207    27581509.703           5.500
         6.250
 97 10  4  1 39  0.0120000  0  7G18G14G19G22G16G 3G31
   4150674.736 7   3233281.344 6  24086892.590    24086897.109          20.000
        19.750
  41655933.692 5  32459169.730 5  26567369.754    26567375.781          10.000
        11.250
   3571541.188 6   2783590.950 6  25217634.660    25217639.961          15.750
        16.250
  31864727.448 5  24831957.418 5  26630894.863    26630899.062          10.250
         9.000
  17700455.158 6  13794742.359 6  24861718.582    24861724.809          17.000
        19.500
   1587497.650 4   1234085.534 5  27218158.277    27218163.902           7.250
         7.750
    -58158.199 3    -43360.077 5  27580950.840    27580956.621           5.500
         6.250
 97 10  4  1 39 15.0120000  0  7G18G14G19G22G16G 3G31
   4171462.993 7   3249479.992 6  24090848.496    24090852.984          20.000
        19.500
  41749913.704 5  32532400.901 5  26585253.387    26585259.516          10.000
        11.250
   3589896.588 6   2797893.877 6  25221127.519    25221132.574          15.500
        16.000
  31953621.943 5  24901225.876 5  26647810.551    26647816.008           9.750
         9.500
  17770781.965 6  13849542.462 6  24875101.480    24875107.539          17.000
        19.500
   1605231.694 4   1247904.295 5  27221533.144    27221538.828           7.250
         7.750
    -61046.731 3    -45610.865 5  27580401.238    27580406.656           5.500
         6.250
 97 10  4  1 39 30.0120000  0  7G18G14G19G22G16G 3G31
   4192338.600 7   3265746.708 6  24094820.902    24094825.484          20.250
        19.750
  41843937.248 5  32605665.993 5  26603145.527    26603151.519          10.000
        11.250
   3608293.597 6   2812229.223 6  25224628.387    25224633.644          15.750
        16.250
  32042578.211 5  24970542.447 5  26664738.644    26664744.457           9.500
        10.000
  17841238.124 6  13904443.367 6  24888508.676    24888514.859          17.250
        19.500
   1623067.050 5   1261802.013 5  27224927.246    27224932.539           7.500
         7.750
    -63914.413 3    -47845.371 5  27579855.285    27579861.008           5.500
         6.250
 97 10  4  1 39 45.0120000  0  7G18G14G19G22G16G 3G31
   4213304.608 7   3282083.872 6  24098810.629    24098815.152          20.250
        19.500
  41938011.105 5  32678970.288 5  26621047.246    26621053.281          10.000
        11.250
   3626737.383 6   2826601.024 6  25228137.934    25228143.156          15.750
        16.250
  32131598.387 5  25039908.797 5  26681678.348    26681683.957           9.750
        10.000
  17911826.080 6  13959446.962 6  24901941.215    24901947.277          17.250
        19.500
   1641004.797 5   1275779.518 5  27228340.621    27228345.773           7.500
         7.750
    -66758.650 3    -50061.646 5  27579314.512    27579319.914           6.000
         6.250
 97 10  4  1 40  0.0120000  0  7G18G14G19G22G16G 3G31
   4234358.590 7   3298489.578 6  24102816.965    24102821.410          20.250
        19.500
  42032132.004 5  32752311.248 5  26638957.785    26638963.883          10.000
        11.250
   3645224.719 6   2841006.753 6  25231656.129    25231661.215          15.500
        16.250
  32220678.451 5  25109321.844 5  26698629.316    26698635.359           9.500
         9.250
  17982537.502 6  14014546.771 6  24915397.223    24915403.207          17.000
        19.500
   1659037.870 5   1289831.289 5  27231772.363    27231777.226           7.500
         7.750
    -69585.013 3    -52263.953 5  27578776.832    27578782.207           5.750
         6.500
 97 10  4  1 40 15.0120000  0  7G18G14G19G22G16G 3G31
   4255497.786 7   3314961.693 6  24106839.676    24106844.125          20.250
        19.750
  42126297.205 5  32825686.717 5  26656876.715    26656882.797          10.000
        11.250
   3663757.141 6   2855447.615 6  25235182.676    25235187.891          15.750
        16.250
  32309819.776 5  25178782.630 5  26715593.387    26715597.469           9.750
         9.000
  18053369.802 6  14069740.762 6  24928876.184    24928882.078          17.250
        19.250
   1677162.740 4   1303954.588 5  27235221.246    27235226.355           7.250
         7.750
    -72396.301 3    -54454.553 5  27578241.613    27578247.137           6.000
         6.500
 97 10  4  1 40 30.0120000  0  7G18G14G19G22G16G 3G31
   4276723.792 7   3331501.452 6  24110878.809    24110883.297          20.250
        19.750
  42220508.385 5  32899098.032 5  26674804.559    26674810.746          10.000
        11.500
   3682337.772 6   2869926.043 6  25238718.394    25238723.531          15.750
        16.250
  32399023.908 5  25248292.349 5  26732568.262    26732573.191           9.750
         9.500
  18124326.189 6  14125031.448 6  24942378.832    24942384.719          17.500
        19.250
   1695379.320 5   1318149.355 5  27238687.816    27238693.133           7.500
         7.750
    -75190.131 3    -56631.517 5  27577710.059    27577715.234           6.000
         6.250
 97 10  4  1 40 45.0120000  0  7G18G14G19G22G16G 3G31
   4298035.896 7   3348108.295 6  24114934.285    24114938.625          20.250
        19.750
  42314764.498 5  32972544.349 5  26692740.996    26692747.137           9.750
        11.500
   3700966.588 6   2884442.018 6  25242263.441    25242268.555          15.750
        16.250
  32488287.004 5  25317848.005 5  26749553.473    26749559.141           9.250
         9.250
  18195406.879 6  14180418.995 6  24955905.152    24955910.777          17.500
        19.250
   1713683.840 5   1332412.650 5  27242170.879    27242175.898           7.500
         7.750
    -77967.998 3    -58796.066 5  27577181.277    27577186.871           5.750
         6.250
 97 10  4  1 41  0.0120000  0  7G18G14G19G22G16G 3G31
   4319436.941 7   3364784.447 6  24119006.910    24119011.406          20.250
        19.750
  42409067.386 5  33046027.108 5  26710686.269    26710692.266           9.750
        11.500
   3719649.489 6   2899000.137 6  25245818.629    25245823.699          15.750
        16.250
  32577614.354 5  25387453.738 5  26766552.637    26766557.351           9.250
         9.000
  18266615.709 6  14235906.398 6  24969455.769    24969461.348          17.500
        19.250
   1732080.862 4   1346748.018 5  27245671.769    27245676.785           7.250
         7.750
    -80726.208 4    -60945.284 5  27576656.894    27576661.734           6.250
         6.000
 97 10  4  1 41 15.0120000  0  7G18G14G19G22G16G 3G31
   4340928.298 7   3381530.971 6  24123096.644    24123101.156          20.250
        19.750
  42503420.188 5  33119548.765 5  26728640.918    26728647.023           9.750
        11.500
   3738390.602 6   2913603.619 6  25249384.910    25249390.023          15.750
        16.250
  32667008.648 5  25457111.638 5  26783563.699    26783568.898           9.500
         9.250
  18337953.444 6  14291494.235 6  24983030.957    24983036.476          17.500
        19.250
   1750573.570 4   1361157.955 5  27249190.730    27249195.730           7.250
         7.750
    -83459.473 3    -63075.085 5  27576136.348    27576141.957           6.000
         6.250
 97 10  4  1 41 30.0120000  0  7G18G14G19G22G16G 3G31
   4362508.670 7   3398346.857 6  24127203.137    24127207.641          20.250
        19.750
  42597820.286 5  33193107.280 5  26746604.762    26746610.953           9.500
        11.500
   3757188.202 6   2928251.113 6  25252961.840    25252967.066          16.000
        16.250
  32756467.833 5  25526820.081 5  26800587.332    26800592.707           9.500
         9.500
  18409414.611 6  14347178.259 6  24996629.637    24996635.019          17.500
        19.250
   1769158.189 4   1375639.503 5  27252727.035    27252732.445           7.250
         7.750
    -86169.601 3    -65186.837 5  27575620.293    27575626.031           6.000
         6.250
 97 10  4  1 41 45.0120000  0  7G18G14G19G22G16G 3G31
   4384174.998 7   3415229.724 6  24131326.184    24131330.676          20.250
        19.750
  42692266.519 5  33266701.742 5  26764577.144    26764583.273           9.500
        11.500
   3776041.490 6   2942942.000 6  25256549.676    25256554.711          16.000
        16.250
  32845990.852 5  25596578.280 5  26817623.027    26817629.129           9.500
         9.750
  18480995.664 6  14402955.702 6  25010251.066    25010256.418          17.750
        19.250
   1787831.753 4   1390190.360 5  27256280.598    27256285.652           7.250
         7.750
    -88856.219 4    -67280.271 5  27575109.488    27575114.828           6.250
         6.250
 97 10  4  1 42  0.0120000  0  7G18G14G19G22G16G 3G31
   4405929.726 7   3432181.469 6  24135466.066    24135470.473          20.250
        19.750
  42786757.402 5  33340330.985 5  26782558.387    26782564.508           9.500
        11.500
   3794947.493 6   2957673.966 6  25260147.402    25260152.637          16.000
        16.250
  32935578.485 5  25666386.840 5  26834670.730    26834675.437           9.250
         8.750
  18552694.835 6  14458825.182 6  25023895.051    25023900.445          17.750
        19.250
   1806595.374 4   1404811.393 5  27259850.855    27259856.234           6.750
         7.750
    -91518.843 4    -69355.017 5  27574602.629    27574607.961           6.250
         6.250
 97 10  4  1 42 15.0120000  0  7G18G14G19G22G16G 3G31
   4427772.996 7   3449202.213 6  24139622.621    24139627.078          20.250
        19.750
  42881290.724 5  33413993.306 5  26800547.488    26800553.637           9.250
        11.500
   3813905.478 6   2972446.433 6  25263754.824    25263760.008          16.000
        16.500
  33025232.650 5  25736247.219 5  26851731.762    26851736.629           9.500
         8.750
  18624513.416 6  14514787.712 6  25037561.730    25037567.039          17.750
        19.250
   1825452.894 4   1419505.600 5  27263439.332    27263444.723           7.000
         7.750
    -94155.940 4    -71409.856 5  27574101.184    27574106.301           6.250
         6.250
 97 10  4  1 42 30.0120000  0  7G18G14G19G22G16G 3G31
   4449704.277 7   3466291.532 6  24143795.973    24143800.547          20.250
        20.000
  42975866.329 5  33487688.569 5  26818544.566    26818550.777           9.250
        11.250
   3832914.025 6   2987258.304 6  25267372.152    25267377.445          15.750
        16.500
  33114954.990 5  25806160.744 5  26868804.746    26868809.973           9.250
         8.750
  18696452.399 6  14570844.055 6  25051251.230    25051256.664          17.750
        19.250
   1844406.643 4   1434274.773 5  27267045.973    27267051.137           6.750
         7.750
    -96763.981 4    -73442.071 5  27573604.723    27573609.598           6.500
         6.000
 97 10  4  1 42 45.0120000  0  7G18G14G19G22G16G 3G31
   4471724.918 7   3483450.487 6  24147986.293    24147990.754          20.250
        19.750
  43070482.221 5  33561415.234 5  26836549.504    26836555.566           9.250
        11.500
   3851972.962 6   3002109.438 6  25270998.738    25271003.937          16.000
        16.500
  33204742.956 5  25876125.390 5  26885890.965    26885896.531           9.250
         9.250
  18768509.931 6  14626992.775 6  25064963.254    25064968.734          17.750
        19.250
   1863455.775 4   1449118.295 5  27270670.574    27270676.082           6.750
         7.750
    -99343.951 4    -75452.423 5  27573113.668    27573118.664           6.250
         6.250
 97 10  4  1 43  0.0120000  0  7G18G14G19G22G16G 3G31
   4493835.700 7   3500679.683 6  24152193.957    24152198.301          20.250
        19.750
  43165136.418 5  33635171.735 5  26854561.652    26854567.488           9.250
        11.250
   3871084.835 6   3017001.822 6  25274635.762    25274640.996          16.000
        16.500
  33294599.120 5  25946143.184 5  26902990.527    26902995.621           9.500
         9.000
  18840682.487 6  14683231.126 6  25078697.355    25078702.766          17.750
        19.250
   1882602.331 4   1464037.708 5  27274314.230    27274319.570           6.500
         7.750
   -101895.497 4    -77440.604 5  27572628.254    27572633.687           6.250
         6.500
 97 10  4  1 43 15.0120000  0  7G18G14G19G22G16G 3G31
   4516035.041 7   3517977.885 6  24156418.316    24156422.730          20.250
        19.750
  43259825.321 5  33708955.299 5  26872580.207    26872586.148           9.000
        11.250
   3890246.180 6   3031932.757 6  25278282.027    25278287.262          16.000
        16.500
  33384519.708 5  26016211.166 5  26920102.090    26920106.769           9.750
         9.000
  18912961.569 6  14739552.487 6  25092451.465    25092457.027          17.750
        19.250
   1901843.984 4   1479031.246 5  27277975.715    27277981.285           6.500
         8.000
   -104423.144 4    -79410.169 5  27572146.996    27572151.836           6.500
         6.250
